     2.11           OBSERVATION DATA    G (GPS)             RINEX VERSION / TYPE
teqc 2007Jun25 20080610 12:26:00UTC                         PGM / RUN BY / DATE
MSXP|IAx86-PII|bcc32 5.0|MSWin95->XP|486/DX+                COMMENT
2.10 OBSERVATION DATA G (GPS)                               COMMENT
JPS2RIN 1.40 RUN BY 03-JUN-08 14:12                         COMMENT
build Feb 6 2004 (c) Javad Navigation Systems               COMMENT
Use -p (profile) switch to override ANTENNA TYPE and DELTA  COMMENT
and other fields                                            COMMENT
sfj10419a.jps                                               COMMENT
SE TPS 00000000                                             COMMENT
sfj10419a_AOSG                                              MARKER NAME
OBSERVER AGENCY                                             OBSERVER / AGENCY
8PBGA1WAOSG TPS MAXOR 2.6.0 Apr,18,2007                     REC # / TYPE / VERS
sfj10419a -Unknown-                                         ANT # / TYPE
  1582502.9551 -1933626.5443  5848739.8197                  APPROX POSITION XYZ
        0.0000        0.0000        0.0000                  ANTENNA: DELTA H/E/N
     1     1                                                WAVELENGTH FACT L1/2
     7    C1    P1    P2    L1    L2    D1    D2            # / TYPES OF OBSERV
    30.0000                                                 INTERVAL
Forced Modulo Decimation to 30 seconds                      COMMENT
teqc windowed: start @ 2008 Apr 19 00:00:00.000             COMMENT
  2008     4    19     0     0    0.0000000     GPS         TIME OF FIRST OBS
                                                            END OF HEADER
 08  4 19  0  0  0.0000000  0 12G 2G 4G 5G12G14G16G20G23G29G30G31G32
  23825124.131    23825122.8354   23825124.8164  125201876.844 6  97559920.97243
       842.477         656.476
  23976724.714    23976725.6864   23976729.3294  125998543.152 5  98180709.52441
     -1515.659       -1181.044
  22653299.355    22653298.5214   22653302.2224  119043923.201 6  92761526.44043
     -3849.079       -2999.272
  24267135.324    24267135.2314   24267137.6074  127524689.833 5  99369909.63542
     -4039.479       -3147.654
  24041983.209    24041983.5664   24041985.8024  126341498.752 5  98447934.96042
     -4338.064       -3380.301
  24164895.379    24164895.2154   24164898.8024  126987406.795 5  98951242.62541
      3306.618        2576.562
  22850943.781    22850943.2984   22850945.8624  120082541.840 6  93570830.66043
     -2040.840       -1590.262
  23192505.764    23192505.2534   23192506.1404  121877457.484 6  94969467.15743
      2718.568        2118.364
  22432250.974    22432250.4304   22432252.8504  117882303.159 7  91856355.69545
      1627.906        1268.494
  21382793.372    21382793.4794   21382796.1534  112367368.272 8  87559017.42145
     -2850.422       -2221.107
  20556547.807    20556547.7044   20556549.1204  108025425.876 9  84175680.05447
      -473.771        -369.172
  25128203.181    25128204.0764   25128206.1694  132049601.772 4 102895813.80241
     -3993.801       -3112.054
 08  4 19  0  0 30.0000000  0 12G 2G 4G 5G12G14G16G20G23G29G30G31G32
  23820368.668    23820368.1194   23820369.6074  125176889.889 6  97540450.62143
       823.375         641.589
  23985433.195    23985433.3404   23985436.8334  126044309.819 5  98216371.83141
     -1535.371       -1196.413
  22675300.533    22675299.8614   22675303.0614  119159542.035 6  92851619.03743
     -3858.854       -3006.898
  24290212.132    24290212.5674   24290213.9354  127645960.244 5  99464406.06442
     -4045.182       -3152.094
  24066764.514    24066764.4964   24066768.0514  126471724.362 5  98549409.37842
     -4343.576       -3384.605
  24146032.794    24146032.6364   24146035.7204  126888280.718 5  98874001.79942
      3301.819        2572.824
  22862648.709    22862648.2044   22862650.5434  120144052.016 6  93618760.66743
     -2059.836       -1605.068
  23177017.451    23177016.7954   23177017.4804  121796064.438 6  94906044.03343
      2707.594        2109.817
  22423004.390    22423004.4654   22423006.9614  117833716.276 7  91818495.81145
      1611.215        1255.490
  21399112.271    21399112.4154   21399115.1754  112453124.828 8  87625840.70545
     -2866.667       -2233.764
  20559300.779    20559300.6874   20559302.1934  108039893.280 9  84186953.37347
      -490.703        -382.366
  25151011.854    25151010.0744   25151015.1964  132169452.301 5 102989203.57241
     -3996.203       -3113.924
 08  4 19  0  1  0.0000000  0 12G 2G 4G 5G12G14G16G20G23G29G30G31G32
  23815722.531    23815722.0794   23815723.1344  125152472.798 6  97521424.31743
       804.378         626.784
  23994255.126    23994254.7164   23994258.4264  126090663.835 5  98252491.81841
     -1554.989       -1211.695
  22697357.031    22697356.2484   22697359.9544  119275449.192 6  92941936.26843
     -3868.271       -3014.234
  24313322.181    24313321.3614   24313323.9464  127767398.473 6  99559033.23742
     -4050.729       -3156.405
  24091578.257    24091575.9694   24091579.8294  126602113.220 5  98651010.85142
     -4348.970       -3388.774
  24127195.478    24127194.4944   24127198.7854  126789294.518 5  98796870.01241
      3297.135        2569.185
  22874461.474    22874460.5984   22874463.0964  120206128.442 6  93667131.91843
     -2078.663       -1619.728
  23161590.540    23161590.1524   23161590.9214  121714998.312 6  94842875.65443
      2696.728        2101.341
  22413853.649    22413853.5024   22413855.8564  117785627.120 7  91781023.80645
      1594.632        1242.571
  21415523.088    21415523.2094   21415526.1474  112539364.499 7  87693040.44045
     -2882.676       -2246.237
  20562149.747    20562149.7474   20562151.3024  108054865.251 9  84198619.85348
      -507.487        -395.443
  25173832.102    25173831.5194   25173835.1654  132289373.349 5 103082648.35741
     -3998.526       -3115.730
 08  4 19  0  1 30.0000000  0 12G 2G 4G 5G12G14G16G20G23G29G30G31G32
  23811184.627    23811184.2374   23811186.0394  125128627.456 6  97502843.50643
       785.358         611.968
  24003188.384    24003186.4454   24003191.3374  126137604.657 5  98289069.03841
     -1574.320       -1226.770
  22719468.546    22719467.8864   22719470.9694  119391642.615 6  93032476.56143
     -3877.805       -3021.660
  24336461.679    24336461.8844   24336463.7314  127889002.635 5  99653789.76242
     -4056.160       -3160.637
  24116419.092    24116419.2704   24116423.3154  126732663.923 5  98752738.81142
     -4354.390       -3393.020
  24108386.634    24108385.4224   24108388.3284  126690450.210 5  98719848.53441
      3292.529        2565.597
  22886381.504    22886380.4234   22886384.0724  120268769.346 6  93715942.99843
     -2097.325       -1634.279
  23146226.841    23146226.5454   23146227.4724  121634262.088 6  94779964.34243
      2685.784        2092.814
  22404797.904    22404797.6724   22404799.8034  117738037.956 7  91743941.35245
      1578.032        1229.639
  21432026.029    21432025.7154   21432028.4534  112626084.802 7  87760614.70445
     -2898.586       -2258.634
  20565094.976    20565094.9244   20565096.4374  108070342.064 8  84210679.71847
      -524.226        -408.488
  25196664.876    25196664.3304   25196669.1624  132409362.296 5 103176146.09541
     -4000.705       -3117.419
 08  4 19  0  2  0.0000000  0 12G 2G 4G 5G12G14G16G20G23G29G30G31G32
  23806756.590    23806755.5224   23806756.8584  125105355.958 6  97484709.86143
       766.182         597.032
  24012230.306    24012231.0904   24012235.0954  126185131.290 5  98326102.73241
     -1593.965       -1242.063
  22741634.396    22741633.0214   22741636.2894  119508120.293 6  93123238.36943
     -3887.255       -3029.022
  24359633.583    24359633.7494   24359635.8164  128010770.833 5  99748674.05242
     -4061.604       -3164.878
  24141293.211    24141292.1164   24141295.7444  126863374.499 5  98854591.48042
     -4359.557       -3397.045
  24089603.672    24089603.8214   24089606.9104  126591750.573 5  98642939.79441
      3287.637        2561.811
  22898408.790    22898408.2654   22898411.7214  120331973.600 6  93765193.05843
     -2116.156       -1648.957
  23130927.018    23130926.7024   23130927.3344  121553858.791 6  94717312.43643
      2674.560        2084.065
  22395837.350    22395837.4204   22395839.5434  117690951.360 7  91707250.48345
      1561.183        1216.508
  21448619.100    21448619.1414   21448621.9404  112713284.006 8  87828562.13145
     -2914.575       -2271.096
  20568136.269    20568136.2074   20568137.7704  108086324.275 9  84223133.39247
      -541.144        -421.669
  25219510.706    25219510.5244   25219514.0154  132529417.047 5 103269694.99641
     -4002.795       -3119.071
 08  4 19  0  2 30.0000000  0 12G 2G 4G 5G12G14G16G20G23G29G30G31G32
  23802437.402    23802437.8464   23802439.1514  125082661.453 6  97467025.80843
       746.886         581.986
  24021388.159    24021386.3474   24021390.7814  126233244.012 5  98363593.16141
     -1613.547       -1257.298
  22763852.790    22763851.1944   22763854.9164  119624881.155 6  93214220.85443
     -3896.636       -3036.346
  24382836.746    24382836.0604   24382838.2054  128132702.588 5  99843685.81242
     -4067.063       -3169.117
  24166196.087    24166195.4864   24166199.1374  126994243.406 5  98956567.55741
     -4364.867       -3401.190
  24070850.380    24070851.5364   24070852.3324  126493199.135 6  98566146.59541
      3282.615        2557.849
  22910543.650    22910542.6614   22910545.8864  120395740.357 6  93814881.44343
     -2134.923       -1663.573
  23115690.539    23115690.3954   23115690.5754  121473792.463 6  94654923.11443
      2663.279        2075.274
  22386973.811    22386973.3774   22386975.6714  117644371.107 7  91670954.17945
      1544.240        1203.297
  21465303.739    21465303.6734   21465306.1804  112800961.320 7  87896882.13145
     -2930.466       -2283.484
  20571273.915    20571273.9194   20571275.4504  108102813.236 9  84235981.93448
      -558.024        -434.825
  25242369.441    25242367.1684   25242369.8904  132649536.672 4 103363294.37241
     -4004.973       -3120.800
 08  4 19  0  3  0.0000000  0 12G 2G 4G 5G12G14G16G20G23G29G30G31G32
  23798228.879    23798228.4184   23798230.1424  125060545.481 5  97449792.61342
       727.526         566.900
  24030653.621    24030652.9444   24030658.0064  126281941.454 5  98401539.18041
     -1632.956       -1272.454
  22786124.539    22786123.6634   22786127.1074  119741922.991 6  93305422.27443
     -3906.040       -3043.657
  24406070.403    24406070.3064   24406072.2904  128254795.855 5  99938823.42242
     -4072.442       -3173.335
  24191129.544    24191129.1594   24191132.2494  127125267.703 5  99058664.18141
     -4369.997       -3405.168
  24052126.197    24052125.4154   24052127.8934  126394797.959 6  98489470.36842
      3277.519        2553.897
  22922784.539    22922783.6874   22922787.5754  120460067.810 6  93865006.74243
     -2153.562       -1678.101
  23100518.984    23100518.3414   23100519.5824  121394066.151 6  94592798.73843
      2651.847        2066.375
  22378206.379    22378206.1914   22378208.4024  117598299.413 7  91635054.26945
      1527.230        1190.048
  21482078.570    21482078.5554   21482081.1944  112889114.227 8  87965572.70745
     -2946.309       -2295.825
  20574508.069    20574508.1574   20574509.6644  108119809.036 9  84249225.41747
      -574.968        -448.027
  25265234.371    25265236.9394   25265243.7654  132769718.734 4 103456942.73841
     -4007.121       -3122.386
 08  4 19  0  3 30.0000000  0 11G 2G 4G 5G12G14G16G20G23G29G30G31
  23794130.148    23794130.2484   23794131.9304  125039008.737 5  97433010.72442
       708.269         551.907
  24040031.569    24040031.7844   24040034.4264  126331221.681 5  98439939.33841
     -1652.425       -1287.602
  22808449.927    22808449.0224   22808452.0654  119859242.527 6  93396840.06443
     -3915.246       -3050.828
  24429334.925    24429334.5374   24429335.0984  128377047.553 6 100034084.41342
     -4077.716       -3177.443
  24216092.508    24216091.4704   24216094.2054  127256446.111 5  99160881.22141
     -4375.193       -3409.246
  24033429.829    24033428.5264   24033430.8314  126296548.535 5  98412912.49142
      3272.416        2549.963
  22935131.623    22935130.8344   22935135.2784  120524953.582 6  93915567.06243
     -2172.153       -1692.585
  23085413.044    23085412.5884   23085413.2484  121314681.799 6  94530940.84043
      2640.378        2057.439
  22369535.898    22369535.6794   22369538.1424  117552737.429 7  91599551.42345
      1510.189        1176.773
  21498943.660    21498943.6124   21498946.1894  112977740.204 7  88034631.92145
     -2962.064       -2308.102
  20577838.833    20577838.7764   20577840.2314  108137311.519 8  84262863.72547
      -591.875        -461.203
 08  4 19  0  4  0.0000000  0 11G 2G 4G 5G12G14G16G20G23G29G30G31
  23790142.744    23790141.9454   23790144.0144  125018057.249 5  97416684.90442
       688.594         536.560
  24049520.744    24049520.8994   24049525.0514  126381087.258 5  98478795.61842
     -1671.925       -1302.816
  22830827.789    22830826.6874   22830830.0654  119976841.351 6  93488475.52343
     -3924.593       -3058.116
  24452628.800    24452627.9514   24452630.0554  128499459.273 5 100129469.99242
     -4083.070       -3181.610
  24241083.715    24241082.9654   24241086.2084  127387778.482 5  99263217.87541
     -4380.375       -3413.281
  24014763.412    24014762.4034   24014765.2444  126198456.456 5  98336477.09742
      3267.064        2545.752
  22947585.982    22947585.0734   22947589.0974  120590399.578 6  93966563.91343
     -2190.861       -1707.161
  23070372.936    23070372.4644   23070372.8844  121235645.640 6  94469354.23443
      2628.669        2048.324
  22360963.893    22360963.7184   22360966.1974  117507691.048 7  91564450.35845
      1492.925        1163.321
  21515898.480    21515898.6754   21515901.1064  113066840.254 8  88104060.53245
     -2977.885       -2320.427
  20581266.544    20581266.4064   20581267.8634  108155324.250 9  84276899.62347
      -608.949        -474.503
 08  4 19  0  4 30.0000000  0 11G 2G 4G 5G12G14G16G20G23G29G30G31
  23786267.767    23786267.7444   23786268.6744  124997692.177 5  97400816.01342
       668.939         521.248
  24059121.494    24059120.9864   24059125.5974  126431537.237 5  98518107.29642
     -1691.527       -1318.082
  22853258.371    22853258.3414   22853261.0024  120094717.245 6  93580326.88343
     -3933.904       -3065.392
  24475952.664    24475952.9484   24475954.8504  128622030.008 6 100224979.67642
     -4088.423       -3185.778
  24266104.145    24266103.4794   24266106.2354  127519264.187 5  99365674.22341
     -4385.500       -3417.271
  23996126.811    23996127.2334   23996127.8124  126100524.482 5  98260166.45342
      3261.688        2541.563
  22960146.567    22960145.5134   22960149.3174  120656404.065 6  94017995.98043
     -2209.528       -1721.714
  23055399.623    23055399.3074   23055399.6874  121156961.006 6  94408041.57043
      2616.872        2039.126
  22352490.529    22352490.3224   22352492.8874  117463162.761 7  91529752.97145
      1475.563        1149.794
  21532943.845    21532943.7234   21532946.2914  113156412.625 7  88173857.18145
     -2993.694       -2332.750
  20584791.323    20584791.3484   20584792.7274  108173847.793 9  84291333.56447
      -626.053        -487.833
 08  4 19  0  5  0.0000000  0 11G 2G 4G 5G12G14G16G20G23G29G30G31
  23782503.853    23782504.8474   23782506.5154  124977917.471 5  97385407.17942
       649.435         506.028
  24068833.609    24068832.6454   24068836.2244  126482572.073 5  98557874.68942
     -1710.899       -1333.168
  22875742.515    22875742.2424   22875745.6344  120212869.936 6  93672393.93243
     -3943.000       -3072.473
  24499308.027    24499306.8234   24499309.4654  128744759.337 5 100320612.89042
     -4093.560       -3189.769
  24291154.863    24291154.5774   24291157.7804  127650902.882 5  99468249.93941
     -4390.501       -3421.177
  23977522.513    23977522.6444   23977525.0324  126002756.544 6  98183983.71342
      3256.209        2537.293
  22972812.491    22972812.1624   22972815.3464  120722967.075 6  94069863.24443
     -2227.982       -1736.087
  23040494.260    23040493.9944   23040494.3724  121078632.479 6  94347006.35243
      2605.029        2029.894
  22344116.346    22344116.2094   22344118.8184  117419156.563 7  91495462.35245
      1458.187        1136.250
  21550078.881    21550078.5474   21550081.2544  113246457.371 7  88244021.91845
     -3009.321       -2344.925
  20588413.933    20588413.8644   20588415.2604  108192884.142 9  84306167.09147
      -643.062        -501.086
 08  4 19  0  5 30.0000000  0 11G 2G 4G 5G12G14G16G20G23G29G30G31
  23778854.631    23778854.0784   23778855.7064  124958737.156 5  97370461.50241
       629.379         490.407
  24078655.087    24078656.2164   24078659.1414  126534193.189 5  98598098.90841
     -1730.570       -1348.485
  22898279.467    22898278.8364   22898281.9504  120331299.440 6  93764676.66043
     -3952.303       -3079.717
  24522693.315    24522692.4734   24522693.5714  128867647.710 5 100416370.03142
     -4098.965       -3194.006
  24316233.317    24316233.3474   24316236.9534  127782694.691 5  99570945.07741
     -4395.704       -3425.224
  23958949.008    23958949.0054   23958952.5804  125905157.259 5  98107932.34842
      3250.502        2532.867
  22985586.475    22985585.6974   22985588.3664  120790089.324 6  94122166.30643
     -2246.806       -1750.759
  23025657.727    23025657.3094   23025657.9974  121000665.298 6  94286252.72443
      2592.736        2020.307
  22335842.497    22335842.4364   22335844.9244  117375677.354 7  91461582.48145
      1440.457        1122.434
  21567303.670    21567303.5334   21567306.0224  113336974.373 8  88314554.63445
     -3025.142       -2357.245
  20592134.547    20592134.3974   20592135.8324  108212435.681 9  84321402.05047
      -660.375        -514.578
 08  4 19  0  6  0.0000000  0 11G 2G 4G 5G12G14G16G20G23G29G30G31
  23775317.152    23775317.3774   23775319.1994  124940152.269 5  97355979.77241
       609.485         474.919
  24088589.749    24088590.0724   24088593.3434  126586398.951 5  98638778.72941
     -1749.937       -1363.586
  22920867.755    22920867.3304   22920870.9234  120450003.216 6  93857173.09243
     -3961.385       -3086.803
  24546107.464    24546107.0964   24546109.5564  128990692.968 5 100512249.45742
     -4104.095       -3197.984
  24341341.664    24341339.4544   24341342.8694  127914636.824 5  99673757.27141
     -4400.537       -3428.989
  23940410.058    23940409.0564   23940411.5514  125807728.165 5  98032013.62842
      3244.746        2528.377
  22998464.658    22998463.8144   22998467.0254  120857768.384 6  94174903.22743
     -2265.253       -1765.130
  23010889.248    23010889.8694   23010890.1214  120923061.689 6  94225782.40043
      2580.723        2010.947
  22327669.032    22327669.0454   22327671.4324  117332726.603 7  91428114.39245
      1422.836        1108.698
  21584617.938    21584617.8714   21584620.4004  113427961.491 8  88385453.68845
     -3040.716       -2369.382
  20595952.821    20595952.9334   20595954.4264  108232502.305 9  84337038.39647
      -677.497        -527.917
 08  4 19  0  6 30.0000000  0 11G 2G 4G 5G12G14G16G20G23G29G30G31
  23771896.261    23771896.2544   23771896.1114  124922165.055 5  97341963.75042
       589.637         459.469
  24098635.616    24098635.6804   24098639.7634  126639188.570 5  98679913.49741
     -1769.403       -1378.741
  22943508.264    22943507.7114   22943511.3214  120568979.598 6  93949881.93043
     -3970.406       -3093.810
  24569551.987    24569551.2964   24569553.4524  129113893.612 5 100608249.98142
     -4109.198       -3201.983
  24366476.959    24366476.9364   24366480.1674  128046727.782 5  99776685.42441
     -4405.546       -3432.896
  23921903.162    23921902.1484   23921903.6604  125710472.305 6  97956229.87842
      3238.977        2523.866
  23011448.951    23011448.2104   23011451.8874  120926002.875 6  94228072.94143
     -2283.688       -1779.498
  22996192.610    22996191.8674   22996192.0884  120845825.523 7  94165598.41543
      2568.385        2001.341
  22319597.096    22319596.9864   22319599.5244  117290307.054 7  91395060.22345
      1405.119        1094.890
  21602021.455    21602021.3164   21602023.8814  113519416.747 8  88456717.51345
     -3056.292       -2381.532
  20599869.727    20599869.6144   20599871.0864  108253084.842 9  84353076.74947
      -694.680        -541.309
 08  4 19  0  7  0.0000000  0 11G 2G 4G 5G12G14G16G20G23G29G30G31
  23768587.166    23768586.4964   23768586.2444  124904774.482 5  97328412.64042
       569.747         443.958
  24108790.424    24108792.1004   24108795.4674  126692558.085 5  98721500.10541
     -1788.594       -1393.705
  22966199.775    22966199.1374   22966202.7694  120688223.527 6  94042799.24743
     -3979.122       -3100.612
  24593024.510    24593024.3474   24593025.7724  129237244.890 5 100704367.67142
     -4114.014       -3205.725
  24391640.305    24391639.8674   24391643.6154  128178962.009 5  99879724.97641
     -4410.170       -3436.484
  23903428.353    23903428.1564   23903428.8344  125613389.222 5  97880580.68842
      3233.224        2519.431
  23024538.571    23024538.1824   23024540.4264  120994788.393 6  94281672.06043
     -2301.959       -1793.732
  22981564.647    22981564.5784   22981564.7004  120768956.410 6  94105700.40643
      2556.200        1991.829
  22311626.150    22311625.8824   22311628.1184  117248418.189 7  91362419.58745
      1387.469        1081.141
  21619512.934    21619512.9724   21619515.3274  113611335.351 7  88528342.38145
     -3071.615       -2393.463
  20603884.128    20603884.0594   20603885.5204  108274180.597 9  84369515.00447
      -711.677        -554.552
 08  4 19  0  7 30.0000000  0 11G 2G 4G 5G12G14G16G20G23G29G30G31
  23765390.311    23765390.4514   23765390.9654  124887980.735 5  97315326.58841
       549.946         428.535
  24119057.641    24119056.8434   24119061.2644  126746504.698 5  98763536.45141
     -1807.691       -1408.598
  22988941.108    22988940.2774   22988943.7994  120807731.405 6  94135922.19043
     -3987.889       -3107.435
  24616526.853    24616525.9134   24616525.8924  129360743.845 6 100800600.63242
     -4118.980       -3209.586
  24416830.259    24416830.4944   24416833.8394  128311335.524 5  99982872.60641
     -4414.817       -3440.098
  23884986.257    23884986.1564   23884988.9844  125516479.486 5  97805066.56042
      3227.429        2514.898
  23037731.769    23037731.3544   23037734.4284  121064121.483 6  94335697.83943
     -2320.136       -1807.905
  22967007.523    22967006.7434   22967007.8184  120692456.304 6  94046089.93144
      2543.877        1982.248
  22303755.995    22303755.8344   22303758.1724  117207060.516 7  91330192.85245
      1369.758        1067.339
  21637092.099    21637092.1144   21637094.1794  113703713.643 8  88600325.45245
     -3086.844       -2405.332
  20607995.882    20607995.7874   20607997.2714  108295788.060 9  84386352.01147
      -728.722        -567.833
 08  4 19  0  8  0.0000000  0 11G 2G 4G 5G12G14G16G20G23G29G30G31
  23762309.134    23762309.1054   23762308.4574  124871782.906 6  97302704.86342
       529.912         412.921
  24129432.102    24129432.2924   24129437.0194  126801025.234 5  98806019.98041
     -1826.964       -1423.595
  23011731.918    23011731.2574   23011735.1814  120927499.118 6  94229247.60543
     -3996.634       -3114.260
  24640054.196    24640054.0684   24640055.8174  129484386.437 5 100896945.58242
     -4123.842       -3213.379
  24442046.921    24442046.8284   24442049.1244  128443846.754 5 100086128.16441
     -4419.292       -3443.630
  23866578.233    23866578.1994   23866581.4254  125419743.622 6  97729688.06342
      3221.586        2510.332
  23051028.705    23051027.8754   23051031.6934  121133998.551 6  94390147.50843
     -2338.379       -1822.105
  22952519.863    22952519.8774   22952520.7144  120616325.912 7  93986767.58344
      2531.388        1972.507
  22295987.167    22295986.9294   22295988.9674  117166234.809 7  91298380.65045
      1351.912        1053.438
  21654757.751    21654757.7304   21654760.0124  113796547.842 7  88672663.81145
     -3102.108       -2417.226
  20612204.605    20612204.6244   20612206.1274  108317905.804 8  84403586.59948
      -745.834        -581.167
 08  4 19  0  8 30.0000000  0 11G 2G 4G 5G12G14G16G20G23G29G30G31
  23759341.221    23759341.9064   23759340.5454  124856187.343 6  97290552.48742
       509.853         397.311
  24139916.291    24139916.3964   24139919.8864  126856122.537 5  98848952.93641
     -1846.109       -1438.534
  23034573.568    23034572.7354   23034575.7184  121047528.645 6  94322777.07443
     -4005.260       -3120.982
  24663610.234    24663609.5244   24663611.7994  129608175.063 5 100993404.27142
     -4128.623       -3217.089
  24467288.840    24467289.1364   24467291.8814  128576494.797 5 100189489.56441
     -4423.938       -3447.267
  23848204.587    23848204.5274   23848207.5414  125323187.965 6  97654450.01442
      3215.563        2505.612
  23064430.147    23064428.9484   23064432.7824  121204421.561 6  94445022.58443
     -2356.477       -1836.208
  22938104.453    22938103.9404   22938104.8774  120540571.997 7  93927738.58844
      2518.913        1962.776
  22288320.840    22288320.4194   22288322.5134  117125946.996 7  91266987.57745
      1334.009        1039.489
  21672510.543    21672510.3834   21672512.9984  113889839.595 8  88745358.67445
     -3117.285       -2429.053
  20616511.457    20616511.3884   20616512.9004  108340537.814 9  84421221.89447
      -762.914        -594.477
 08  4 19  0  9  0.0000000  0 11G 2G 4G 5G12G14G16G20G23G29G30G31
  23756487.849    23756487.0274   23756487.3364  124841191.729 6  97278867.60342
       489.866         381.726
  24150510.374    24150511.1484   24150515.1534  126911791.356 5  98892331.25841
     -1865.034       -1453.312
  23057462.870    23057462.1274   23057465.5224  121167814.020 6  94416505.91643
     -4013.722       -3127.572
  24687193.196    24687192.2014   24687194.3814  129732104.208 5 101089972.48642
     -4133.410       -3220.827
  24492557.917                                   128709275.503 5
     -4428.649
  23829864.857    23829863.7634   23829866.5784  125226810.831 6  97579350.96242
      3209.521        2500.928
  23077934.113    23077932.8934   23077936.2564  121275384.635 6  94500318.45443
     -2374.366       -1850.156
  22923760.547    22923760.0314   22923760.4644  120465193.979 7  93869002.47143
      2506.309        1952.978
  22280756.065    22280755.9264   22280757.7914  117086195.046 7  91236012.03045
      1316.160        1025.579
  21690349.280    21690349.0264   21690351.3864  113983582.908 8  88818405.41945
     -3132.245       -2440.706
  20620915.371    20620915.3024   20620916.8844  108363680.471 9  84439255.10047
      -779.892        -607.708
 08  4 19  0  9 30.0000000  0 11G 2G 4G 5G12G14G16G20G23G29G30G31
  23753748.661    23753748.3154   23753748.0224  124826795.588 6  97267649.81642
       469.952         366.198
  24161211.349    24161211.8874   24161217.2344  126968029.043 5  98936152.85741
     -1883.953       -1468.038
  23080400.022    23080399.7244   23080402.4534  121288351.374 6  94510431.04443
     -4022.013       -3134.009
  24710802.266    24710802.0234   24710803.7434  129856170.029 5 101186647.07342
     -4137.762       -3224.227
  24517848.059    24517847.5154   24517852.4194  128842188.618 4 100396516.48441
     -4432.393       -3453.787
  23811557.935    23811557.3284   23811560.0884  125130612.780 5  97504391.46342
      3203.648        2496.339
  23091540.134    23091538.9234   23091541.9214  121346884.519 6  94556032.63143
     -2392.169       -1864.019
  22909488.381    22909487.8524   22909488.2014  120390193.141 7  93810560.25344
      2493.782        1943.208
  22273293.265    22273293.4194   22273295.6134  117046979.760 7  91205454.67845
      1298.272        1011.639
  21708272.925    21708272.9684   21708275.5764  114077774.179 7  88891801.22345
     -3147.108       -2452.293
  20625416.015    20625416.1014   20625417.7094  108387332.392 9  84457685.16947
      -796.823        -620.901
 08  4 19  0 10  0.0000000  0 11G 2G 4G 5G12G14G16G20G23G29G30G31
  23751122.911    23751122.6464   23751123.1774  124812999.857 6  97256899.93042
       449.774         350.462
  24172021.239    24172020.6824   24172024.9104  127024833.224 5  98980415.84541
     -1902.946       -1482.814
  23103384.920    23103383.9714   23103388.0494  121409137.894 6  94604550.41543
     -4030.391       -3140.561
  24734436.574    24734436.5284   24734439.3944  129980370.013 6 101283426.21042
     -4142.357       -3227.787
  24543164.718    24543163.6954   24543166.8584  128975224.806 5 100500181.11841
     -4436.682       -3457.141
  23793286.588    23793286.2804   23793289.8264  125034595.602 5  97429573.00642
      3197.609        2491.635
  23105247.833    23105247.0584   23105249.7764  121418918.284 6  94612162.82043
     -2410.095       -1878.005
  22895288.675    22895288.3374   22895288.8064  120315571.414 7  93752413.45544
      2480.929        1933.198
  22265933.445    22265933.3204   22265935.3484  117008302.335 7  91175316.46345
      1280.172         997.530
  21726281.725    21726281.6624   21726284.1124  114172410.407 7  88965543.72745
     -3162.026       -2463.924
  20630013.799    20630013.6744   20630015.2184  108411492.897 9  84476511.58747
      -813.920        -634.230
 08  4 19  0 10 30.0000000  0 11G 2G 4G 5G12G14G16G20G23G29G30G31
  23748611.456    23748611.9734   23748611.8644  124799804.336 5  97246617.71443
       429.824         334.927
  24182938.569    24182938.5794   24182942.0894  127082200.886 6  99025117.89242
     -1921.657       -1497.420
  23126417.140    23126416.3654   23126419.7964  121530169.637 6  94698860.81043
     -4038.415       -3146.808
  24758096.406    24758096.4924   24758096.8804  130104700.584 5 101380307.10442
     -4146.512       -3231.072
  24568504.908    24568504.1144   24568507.7994  129108382.093 5 100603939.49041
     -4440.571       -3460.131
  23775050.895    23775050.0704   23775052.4334  124938759.588 6  97354895.64943
      3191.470        2486.875
  23119056.524    23119055.0724   23119057.8594  121491482.395 6  94668706.27743
     -2427.632       -1891.681
  22881160.790    22881160.3084   22881161.0734  120241329.949 7  93694562.98544
      2468.301        1923.349
  22258675.592    22258675.2784   22258677.5434  116970162.844 7  91145597.36645
      1262.320         983.623
  21744374.539    21744374.3934   21744376.9104  114267487.848 7  89039630.02245
     -3176.610       -2475.277
  20634707.754    20634707.7894   20634709.2494  108436160.579 9  84495733.16647
      -830.727        -647.318
 08  4 19  0 11  0.0000000  0 11G 2G 4G 5G12G14G16G20G23G29G30G31
  23746215.643    23746216.0484   23746215.9714  124787213.091 6  97236806.37043
       409.652         319.216
  24193962.266    24193962.1624   24193966.2544  127140133.305 5  99070260.02042
     -1940.428       -1512.000
  23149494.759    23149494.2674   23149498.8244  121651447.209 6  94793362.77343
     -4046.600       -3153.182
  24781779.858    24781780.3674   24781782.5684  130229163.238 5 101477290.99942
     -4150.935       -3234.508
  24593867.338    24593865.6884   24593869.4684  129241663.800 5 100707795.70941
     -4444.731       -3463.435
  23756848.228    23756848.2444   23756851.2504  124843109.875 6  97280363.44242
      3185.191        2481.964
  23132965.156    23132964.2354   23132967.3854  121564577.523 6  94725663.53242
     -2445.328       -1905.461
  22867106.191    22867105.7884   22867106.7744  120167474.319 7  93637013.18444
      2455.385        1913.278
  22251521.268    22251521.0184   22251523.4614  116932566.781 7  91116301.72445
      1244.127         969.448
  21762551.034    21762551.2454   21762553.5714  114363006.719 7  89114060.29045
     -3191.296       -2486.723
  20639498.921    20639498.8814   20639500.2854  108461337.930 9  84515351.88647
      -847.745        -660.582
 08  4 19  0 11 30.0000000  0 11G 2G 4G 5G12G14G16G20G23G29G30G31
  23743934.887    23743934.7304   23743935.6054  124775226.331 6  97227466.03643
       389.495         303.509
  24205093.788    24205093.6984   24205096.9404  127198628.040 5  99115840.35042
     -1959.030       -1526.506
  23172618.913    23172618.4524   23172622.7804  121772966.739 6  94888053.13643
     -4054.565       -3159.388
  24805488.536    24805488.3724   24805490.5914  130353754.126 5 101574374.72341
     -4155.084       -3237.718
  24619251.830    24619251.3814   24619254.4734  129375064.093 5 100811743.93741
     -4448.630       -3466.453
  23738682.607    23738681.2244   23738683.9504  124747647.090 6  97205976.87442
      3179.058        2477.200
  23146975.873    23146974.7344   23146977.1084  121638200.609 6  94783032.17542
     -2462.757       -1919.044
  22853125.852    22853125.1654   22853126.2124  120094006.474 7  93579765.52144
      2442.532        1903.272
  22244470.536    22244470.1844   22244472.7314  116895514.561 7  91087429.88045
      1226.094         955.392
  21780811.296    21780811.2604   21780813.8144  114458963.963 7  89188832.14745
     -3205.769       -2498.002
  20644386.839    20644386.7074   20644388.1874  108487023.789 9  84535366.82547
      -864.574        -673.691
 08  4 19  0 12  0.0000000  0 11G 2G 4G 5G12G14G16G20G23G29G30G31
  23741769.467    23741769.3764   23741770.2044  124763845.671 6  97218597.96843
       369.220         287.694
  24216331.405    24216331.5634   24216335.3814  127257683.625 5  99161857.67942
     -1977.826       -1541.170
  23195790.107    23195789.5964   23195793.0744  121894726.997 6  94982931.23043
     -4062.678       -3165.716
  24829221.898    24829221.7594   24829223.8784  130478472.344 5 101671557.79241
     -4159.322       -3241.047
  24644660.833    24644660.0954   24644663.6864  129508581.956 5 100915783.90241
     -4452.555       -3469.525
  23720552.604    23720552.0554   23720554.6714  124652373.973 6  97131738.19742
      3172.560        2472.111
  23161086.230    23161084.7594   23161088.2784  121712349.477 6  94840810.51943
     -2480.396       -1932.769
  22839219.481    22839219.4474   22839219.5234  120020929.005 7  93522822.06344
      2429.382        1893.028
  22237523.409    22237523.2624   22237525.8334  116859008.172 7  91058983.36445
      1207.753         941.107
  21799154.420    21799154.3474   21799157.0114  114555357.722 7  89263944.16845
     -3220.383       -2509.392
  20649371.524    20649371.4024   20649372.8594  108513218.368 9  84555778.20847
      -881.629        -686.987
 08  4 19  0 12 30.0000000  0 11G 2G 4G 5G12G14G16G20G23G29G30G31
  23739719.856    23739718.9634   23739720.3764  124753074.022 6  97210204.48543
       348.954         271.915
  24227676.832    24227676.8364   24227679.8504  127317300.125 5  99208312.08942
     -1996.537       -1555.777
  23219005.533    23219004.7014   23219008.1334  122016727.040 6  95077996.16443
     -4070.660       -3171.923
  24852979.279    24852979.3834   24852982.0334  130603317.290 5 101768839.56741
     -4163.557       -3244.341
  24670088.651    24670088.2044   24670092.2384  129642216.532 5 101019914.69941
     -4456.384       -3472.497
  23702460.042    23702459.9354   23702462.2894  124557294.458 6  97057650.33543
      3166.036        2467.034
  23175296.181    23175295.0674   23175298.7134  121787023.817 6  94898998.31443
     -2497.844       -1946.359
  22825388.975    22825388.3614   22825389.1624  119948246.518 7  93466186.38144
      2416.195        1882.750
  22230681.219    22230680.9504   22230683.3724  116823051.520 7  91030965.20145
      1189.428         926.829
  21817580.428    21817580.4114   21817582.7144  114652187.237 7  89339395.75345
     -3234.829       -2520.643
  20654453.206    20654453.1644   20654454.6384  108539923.377 9  84576587.32447
      -898.640        -700.245
 08  4 19  0 13  0.0000000  0 11G 2G 4G 5G12G14G16G20G23G29G30G31
  23737786.948    23737785.4474   23737786.4674  124742912.662 6  97202286.51843
       328.587         256.051
  24239127.051    24239126.8814   24239131.4604  127377476.145 5  99255202.52542
     -2015.215       -1570.298
  23242266.666    23242265.9364   23242269.2364  122138964.581 6  95173246.16842
     -4078.401       -3177.972
  24876759.974    24876760.3884   24876762.7204  130728286.902 5 101866218.50042
     -4167.687       -3247.555
  24695540.860    24695539.4054   24695542.9454  129775964.722 4 101124133.49141
     -4459.999       -3475.297
  23684403.468    23684402.8784   23684406.3854  124462410.460 6  96983714.83843
      3159.549        2461.990
  23189605.479    23189605.2204   23189608.7764  121862221.551 6  94957593.94943
     -2515.269       -1959.950
  22811633.306    22811632.9634   22811633.6184  119875961.831 7  93409860.68244
      2402.900        1872.390
  22223943.489    22223943.3804   22223945.8804  116787646.301 7  91003376.72945
      1171.008         912.470
  21836088.883    21836088.7124   21836091.4354  114749449.285 7  89415184.32545
     -3249.194       -2531.838
  20659632.149    20659632.0874   20659633.5684  108567138.819 9  84597794.14847
      -915.629        -713.478
 08  4 19  0 13 30.0000000  0 11G 2G 4G 5G12G14G16G20G23G29G30G31
  23735968.156    23735967.9174   23735968.6814  124733361.225 6  97194843.83043
       308.169         240.136
  24250684.945    24250684.3294   24250687.1024  127438208.014 5  99302526.07442
     -2033.659       -1584.656
  23265572.826    23265572.1164   23265576.1354  122261435.639 6  95268678.18742
     -4086.284       -3184.150
  24900564.012    24900564.4684   24900566.8684  130853377.755 5 101963691.94842
     -4171.736       -3250.716
  24721013.316    24721013.1624   24721016.4124  129909825.044 5 101228440.31141
     -4463.852       -3478.343
  23666384.870    23666384.2644   23666387.4154  124367722.540 6  96909932.20842
      3152.946        2456.811
  23204013.596    23204013.5924   23204017.1354  121937938.540 6  95016594.20243
     -2532.548       -1973.422
  22797953.438    22797953.3144   22797954.3754  119804075.878 6  93353845.69744
      2389.502        1861.945
  22217311.137    22217311.1894   22217313.5624  116752792.565 7  90976217.99445
      1152.585         898.116
  21854678.937    21854678.8154   21854681.3514  114847140.427 7  89491307.27645
     -3263.513       -2542.996
  20664907.789    20664907.7564   20664909.2324  108594862.725 9  84619397.23247
      -932.595        -726.702
 08  4 19  0 14  0.0000000  0 11G 2G 4G 5G12G14G16G20G23G29G30G31
  23734267.812    23734266.1944   23734267.9784  124724421.315 6  97187877.65943
       287.801         224.259
  24262346.890    24262346.1014   24262351.0654  127499495.207 5  99350282.30441
     -2052.078       -1599.031
  23288921.985    23288921.0734   23288925.2304  122384139.070 6  95364291.29842
     -4093.949       -3190.079
  24924391.369    24924391.2994   24924393.8964  130978588.623 5 102061258.68442
     -4175.594       -3253.716
  24746506.164    24746505.9424   24746510.9894  130043794.765 4 101332832.29641
     -4467.402       -3481.086
  23648404.206    23648404.2094   23648406.2704  124273233.423 6  96836304.33842
      3146.348        2451.715
  23218521.713    23218520.6114   23218524.0604  122014173.895 6  95075998.36143
     -2549.752       -1986.822
  22784351.208    22784350.7204   22784351.6364  119732592.322 7  93298144.26144
      2376.079        1851.480
  22210784.089    22210784.2694   22210786.6194  116718492.906 7  90949490.91845
      1134.128         883.737
  21873350.381    21873350.2734   21873352.6764  114945259.751 7  89567763.87945
     -3277.713       -2554.062
  20670280.526    20670280.4194   20670281.9044  108623096.026 9  84641397.15647
      -949.553        -739.907
 08  4 19  0 14 30.0000000  0 11G 2G 4G 5G12G14G16G20G23G29G30G31
  23732682.550    23732681.7754   23732683.0604  124716093.437 6  97181388.39343
       267.431         208.394
  24274114.803    24274114.0034   24274118.0884  127561335.076 5  99398469.21241
     -2070.462       -1613.362
  23312316.093    23312315.2064   23312318.4384  122507071.099 6  95460082.38643
     -4101.505       -3195.979
  24948240.632    24948240.8524   24948242.1094  131103917.458 5 102158917.71142
     -4179.603       -3256.863
  24772020.797    24772020.7104   24772025.0574  130177871.032 5 101437307.47041
     -4470.915       -3483.848
  23630461.560    23630460.8904   23630463.9664  124178944.297 6  96762832.35842
      3139.676        2446.491
  23233125.707    23233125.3054   23233129.1884  122090923.846 5  95135803.50543
     -2566.822       -2000.114
  22770825.018    22770824.8104   22770825.2694  119661512.897 7  93242757.72844
      2362.615        1841.001
  22204363.079    22204362.8914   22204365.1664  116684748.292 7  90923196.41245
      1115.610         869.314
  21892102.565    21892102.4324   21892104.8734  115043803.544 7  89644551.27445
     -3291.807       -2565.046
  20675749.819    20675749.7484   20675751.2724  108651837.768 9  84663793.35247
      -966.479        -753.104
 08  4 19  0 15  0.0000000  0 11G 2G 4G 5G12G14G16G20G23G29G30G31
  23731213.738    23731213.4334   23731214.7744  124708377.293 6  97175375.81443
       246.861         192.368
  24285986.648    24285986.3534   24285990.7194  127623724.460 5  99447084.33041
     -2088.901       -1627.710
  23335752.277    23335751.3534   23335754.8074  122630228.427 6  95556049.09143
     -4109.083       -3201.889
  24972110.770    24972111.6354   24972114.2484  131229359.915 5 102256665.14041
     -4183.505       -3259.865
  24797554.509    24797554.0324   24797558.3344  130312049.508 5 101541862.15441
     -4474.376       -3486.560
  23612556.813    23612556.6414   23612559.3474  124084855.378 6  96689516.28642
      3132.757        2441.111
  23247829.021    23247827.4854   23247831.3704  122168184.787 6  95196006.81743
     -2583.935       -2013.455
  22757376.483    22757375.8424   22757376.3814  119590838.766 7  93187686.99244
      2348.915        1830.328
  22198047.511    22198047.2164   22198049.4564  116651559.025 7  90897334.66745
      1096.904         854.731
  21910934.812    21910935.0284   21910937.4564  115142768.282 7  89721666.66445
     -3305.922       -2576.038
  20681315.500    20681315.4284   20681317.0214  108681085.766 9  84686584.01647
      -983.500        -766.363
 08  4 19  0 15 30.0000000  0 11G 2G 4G 5G12G14G16G20G23G29G30G31
  23729863.679    23729861.7394   23729863.3204  124701274.262 6  97169840.96743
       226.611         176.578
  24297962.987    24297962.3994   24297966.9014  127686662.145 5  99496126.69341
     -2106.920       -1641.773
  23359229.640    23359229.2194   23359232.6074  122753609.499 6  95652190.27643
     -4116.294       -3207.499
  24996002.350    24996003.2724   24996006.0994  131354914.776 5 102354500.07841
     -4186.936       -3262.532
  24823106.726    24823106.7894   24823108.4624  130446328.954 5 101646495.57141
     -4477.622       -3489.073
  23594692.082    23594691.1914   23594692.9614  123990970.364 6  96616359.16843
      3126.148        2435.948
  23262628.464    23262627.1474   23262631.1224  122245955.089 6  95256607.04443
     -2600.743       -2026.545
  22744004.945    22744004.7974   22744004.9334  119520573.409 7  93132934.78344
      2335.391        1819.777
  22191838.062    22191837.7454   22191839.9564  116618927.274 7  90871907.29845
      1078.447         840.345
  21929846.960    21929846.8804   21929849.2834  115242151.750 7  89799108.32745
     -3319.689       -2586.773
  20686977.707    20686977.6644   20686979.1704  108710840.618 9  84709769.59647
     -1000.209        -779.386
 08  4 19  0 16  0.0000000  0 11G 2G 4G 5G12G14G16G20G23G29G30G31
  23728626.927    23728627.4974   23728628.7994  124694785.888 6  97164785.07443
       206.033         160.548
  24310044.185    24310044.2674   24310047.2684  127750146.641 5  99545595.13541
     -2125.215       -1656.030
  23382750.412    23382749.9504   23382753.7764  122877211.571 5  95748503.45442
     -4123.736       -3213.295
  25019917.124    25019916.8854   25019918.9834  131480580.243 5 102452421.13041
     -4190.629       -3265.412
  24848678.457    24848676.9314   24848682.1704  130580707.027 4 101751205.66241
     -4480.865       -3491.589
  23576864.523    23576863.9554   23576866.6664  123897291.101 6  96543362.42643
      3119.227        2430.560
  23277523.739    23277523.0524   23277526.5844  122324232.776 6  95317602.62543
     -2617.734       -2039.800
  22730712.427    22730711.7734   22730712.5794  119450719.193 7  93078502.95144
      2321.574        1809.024
  22185734.798    22185734.6064   22185736.7844  116586855.089 7  90846915.97245
      1059.732         825.768
  21948838.370    21948838.1694   21948840.7754  115341951.719 7  89876874.50345
     -3333.637       -2597.635
  20692736.254    20692736.3544   20692737.9174  108741102.673 8  84733350.39247
     -1017.185        -792.609
 08  4 19  0 16 30.0000000  0 11G 2G 4G 5G12G14G16G20G23G29G30G31
  23727510.528    23727509.8834   23727511.5644  124688913.669 6  97160209.27843
       185.501         144.544
  24322227.739    24322227.3214   24322231.3844  127814176.924 5  99595488.86341
     -2143.392       -1670.192
  23406312.735    23406311.6734   23406315.1574  123001033.372 6  95844987.85542
     -4130.954       -3218.923
  25043851.152    25043850.5524   25043854.1084  131606355.722 5 102550428.07541
     -4194.305       -3268.302
  24874269.124    24874268.1294   24874270.9064  130715182.283 5 101855991.53241
     -4484.088       -3494.123
  23559078.177    23559077.5184   23559079.6584  123803820.307 6  96470528.16343
      3112.222        2425.099
  23292514.830    23292514.0844   23292517.7224  122403016.251 6  95378992.33143
     -2634.500       -2052.859
  22717498.007    22717497.7664   22717499.0784  119381280.088 7  93024394.59044
      2307.702        1798.208
  22179738.631    22179738.3574   22179740.5734  116555345.009 7  90822362.66445
      1040.962         811.145
  21967908.294    21967908.4564   21967910.9564  115442166.909 7  89954964.26845
     -3347.392       -2608.360
  20698591.780    20698591.6584   20698593.1684  108771872.338 9  84757326.77447
     -1034.092        -805.783
 08  4 19  0 17  0.0000000  0 11G 2G 4G 5G12G14G16G20G23G29G30G31
  23726510.805    23726509.7364   23726510.9154  124683658.261 6  97156114.14543
       164.821         128.438
  24334516.574    24334517.2094   24334519.7374  127878750.582 6  99645806.01541
     -2161.492       -1684.283
  23429917.566    23429916.9004   23429919.8034  123125072.553 6  95941641.79842
     -4138.316       -3224.657
  25067806.520    25067806.0974   25067808.6804  131732238.025 5 102648518.01742
     -4197.933       -3271.119
  24899873.030    24899875.7454   24899879.2064  130849752.224 4 101960851.17941
     -4487.270       -3496.573
  23541331.385    23541330.6924   23541333.1744  123710559.431 6  96397857.42643
      3105.081        2419.545
  23307603.618    23307602.0324   23307605.0504  122482302.692 6  95440773.94843
     -2651.344       -2065.965
  22704364.287    22704363.8754   22704364.3254  119312258.302 7  92970611.40444
      2293.713        1787.305
  22173849.639    22173849.3224   22173851.5404  116524397.710 7  90798247.87345
      1022.129         796.472
  21987057.294    21987057.0934   21987059.7534  115542794.214 7  90033375.13645
     -3361.154       -2619.080
  20704543.414    20704543.3494   20704544.9154  108803148.695 9  84781697.97447
     -1051.044        -818.987
 08  4 19  0 17 30.0000000  0 11G 2G 4G 5G12G14G16G20G23G29G30G31
  23725627.874    23725627.5854   23725628.3924  124679019.573 6  97152499.55543
       144.421         112.533
  24346907.973    24346906.9424   24346910.2764  127943864.991 6  99696544.52142
     -2179.394       -1698.250
  23453562.274    23453560.9074   23453564.4074  123249325.767 6  96038462.65342
     -4145.216       -3230.041
  25091780.471    25091780.6974   25091783.3424  131858224.900 5 102746689.55442
     -4201.220       -3273.682
  24925502.439    24925500.6634   24925504.7124  130984413.877 4 102065782.14641
     -4490.106       -3498.803
  23523624.002    23523623.2414   23523625.5714  123617509.660 6  96325351.14343
      3098.242        2414.225
  23322785.416    23322784.7484   23322787.9744  122562088.475 6  95502944.70543
     -2667.739       -2078.760
  22691309.441    22691308.7084   22691309.2804  119243655.004 7  92917154.31544
      2279.810        1776.474
  22168067.975    22168067.5944   22168069.7164  116494014.254 7  90774572.44445
      1003.433         781.895
  22006283.960    22006283.7684   22006286.6154  115643830.349 7  90112104.56545
     -3374.561       -2629.526
  20710591.217    20710591.2264   20710592.7714  108834930.573 9  84806463.09047
     -1067.758        -832.020
 08  4 19  0 18  0.0000000  0 11G 2G 4G 5G12G14G16G20G23G29G30G31
  23724861.295    23724861.1254   23724863.0744  124674996.941 6  97149365.03143
       123.867          96.527
  24359401.328    24359400.7174   24359404.6664  128009516.279 6  99747701.34742
     -2197.281       -1712.161
  23477245.831    23477245.4664   23477249.0484  123373788.238 6  96135446.33442
     -4152.207       -3235.483
  25115775.211    25115773.8634   25115777.5844  131984312.243 5 102844939.25441
     -4204.639       -3276.354
  24951143.989    24951143.7464   24951146.3614  131119162.943 5 102170781.36741
     -4493.053       -3501.106
  23505956.553    23505956.0774   23505959.7094  123524671.167 6  96253009.49542
      3091.177        2408.702
  23338062.493    23338062.4364   23338064.9354  122642369.721 6  95565501.51743
     -2684.265       -2091.655
  22678334.347    22678333.7454   22678334.3644  119175471.273 7  92864024.14744
      2265.794        1765.555
  22162392.980    22162392.9564   22162395.2134  116464194.505 7  90751336.30445
       984.578         767.203
  22025587.443    22025587.4764   22025589.9794  115745271.199 7  90191149.40645
     -3388.058       -2640.049
  20716735.009    20716734.9944   20716736.4824  108867215.721 9  84831620.28447
     -1084.525        -845.082
 08  4 19  0 18 30.0000000  0 11G 2G 4G 5G12G14G16G20G23G29G30G31
  23724213.522    23724213.6554   23724215.2864  124671593.791 5  97146713.23643
       103.119          80.356
  24371996.698    24371996.2584   24371999.4304  128075705.590 6  99799277.44341
     -2215.256       -1726.140
  23500970.335    23500969.9254   23500973.1694  123498461.132 6  96232594.03842
     -4159.236       -3240.969
  25139787.765    25139787.1454   25139789.7084  132110501.196 5 102943268.21242
     -4207.902       -3278.867
  24976801.388    24976799.6984   24976804.3274  131253999.850 4 102275849.05941
     -4496.007       -3503.385
  23488332.154    23488331.4724   23488334.4494  123432049.005 6  96180836.46543
      3083.847        2402.983
  23353434.154    23353433.3314   23353436.8384  122723146.499 6  95628444.45543
     -2700.766       -2104.486
  22665440.714    22665440.2134   22665440.1964  119107712.521 7  92811225.13244
      2251.549        1754.453
  22156826.153    22156826.2734   22156828.7954  116434942.658 7  90728542.68245
       965.623         752.430
  22044967.772    22044967.8784   22044970.3524  115847116.962 7  90270509.76745
     -3401.571       -2650.573
  20722974.978    20722974.9114   20722976.4454  108900006.830 9  84857171.78047
     -1101.443        -858.266
 08  4 19  0 19  0.0000000  0 11G 2G 4G 5G12G14G16G20G23G29G30G31
  23723683.976    23723683.1844   23723685.4804  124668808.405 6  97144542.83643
        82.464          64.250
  24384692.625    24384692.3894   24384696.8484  128142428.130 5  99851269.05141
     -2233.055       -1740.043
  23524733.639    23524733.3834   23524736.6224  123623338.872 5  96329901.29742
     -4166.043       -3246.276
  25163819.369    25163818.1084   25163819.6724  132236786.412 5 103041672.04841
     -4211.161       -3281.403
  25002475.449    25002475.8274   25002478.8074  131388919.700 5 102380981.36341
     -4498.742       -3505.555
  23470748.533    23470747.6764   23470749.2414  123339641.943 6  96108830.95243
      3076.583        2397.351
  23368898.365    23368897.7554   23368901.3814  122804413.684 6  95691769.54343
     -2717.128       -2117.243
  22652627.422    22652626.7014   22652627.2104  119040378.819 7  92758757.32844
      2237.298        1743.357
  22151368.180    22151367.7104   22151369.9174  116406257.285 7  90706190.47445
       946.691         737.685
  22064424.190    22064424.2884   22064427.0314  115949362.007 7  90350181.14645
     -3414.843       -2660.909
  20729310.676    20729310.6274   20729312.1244  108933300.889 9  84883115.21347
     -1118.229        -871.349
 08  4 19  0 19 30.0000000  0 11G 2G 4G 5G12G14G16G20G23G29G30G31
  23723272.065    23723271.2144   23723273.7324  124666644.964 6  97142857.07243
        61.738          48.107
  24397491.143    24397491.2664   24397495.4704  128209685.322 5  99903677.24641
     -2250.779       -1753.847
  23548536.939    23548535.9784   23548540.2664  123748423.104 6  96427369.52442
     -4172.775       -3251.504
  25187869.425    25187869.8514   25187871.3464  132363169.949 5 103140152.57141
     -4214.356       -3283.931
  25028167.634    25028165.9134   25028169.9354  131523923.596 5 102486179.27541
     -4501.466       -3507.649
  23453204.919    23453204.1694   23453207.0014  123247455.918 6  96036997.70743
      3069.210        2391.591
  23384456.703    23384455.9334   23384459.3794  122886172.105 5  95755477.38543
     -2733.468       -2129.972
  22639895.335    22639895.1524   22639896.0674  118973475.863 6  92706625.19844
      2222.902        1732.124
  22146017.576    22146017.6114   22146020.2834  116378143.509 7  90684283.63245
       927.592         722.802
  22083957.436    22083957.6224   22083959.8774  116052007.606 7  90430164.58245
     -3428.175       -2671.300
  20735742.667    20735742.5694   20735744.0014  108967100.946 9  84909452.92747
     -1135.087        -884.487
 08  4 19  0 20  0.0000000  0 11G 2G 4G 5G12G14G16G20G23G29G30G31
  23722979.246    23722978.2084   23722980.6754  124665104.608 5  97141656.81943
        40.961          31.918
  24410391.393    24410391.7244   24410395.0294  128277475.748 5  99956500.97441
     -2268.499       -1767.700
  23572378.092    23572377.4634   23572380.7814  123873711.441 5  96524996.66642
     -4179.646       -3256.859
  25211937.922    25211938.1954   25211939.7184  132489650.684 5 103238709.01341
     -4217.576       -3286.448
  25053873.476    25053873.2994   25053875.9394  131659009.347 4 102591440.89141
     -4504.125       -3509.699
  23435704.853    23435704.4214   23435706.5414  123155493.466 6  95965338.74143
      3061.714        2385.755
  23400108.207    23400107.1854   23400110.9934  122968419.997 6  95819566.62443
     -2749.677       -2142.590
  22627247.027    22627246.4994   22627246.8494  118907006.682 7  92654831.05144
      2208.398        1720.833
  22140777.316    22140776.8834   22140779.5224  116350602.946 7  90662823.26945
       908.454         707.893
  22103566.268    22103566.3514   22103568.7174  116155052.138 7  90510458.96645
     -3441.384       -2681.599
  20742270.861    20742270.8494   20742272.2104  109001407.028 9  84936184.91947
     -1151.936        -897.612
 08  4 19  0 20 30.0000000  0 11G 2G 4G 5G12G14G16G20G23G29G30G31
  23722803.627    23722802.7694   23722805.5924  124664184.816 5  97140940.10743
        20.259          15.794
  24423392.259    24423391.1834   24423397.6884  128345794.311 5 100009736.19141
     -2286.169       -1781.432
  23596258.470    23596258.0594   23596261.1424  123999199.279 6  96622779.64942
     -4186.257       -3262.017
  25236023.310    25236023.1174   25236023.9664  132616223.181 5 103337337.05541
     -4220.700       -3288.871
  25079592.803    25079592.3694   25079597.6634  131794171.988 4 102696762.40941
     -4506.716       -3511.724
  23418247.332    23418247.0504   23418248.7064  123063753.045 6  95893852.76543
      3054.186        2379.880
  23415851.493    23415850.6374   23415854.7144  123051151.619 6  95884032.81843
     -2765.845       -2155.206
  22614681.112    22614680.5004   22614681.1244  118840970.821 7  92603374.52244
      2193.852        1709.489
  22135645.118    22135645.0624   22135647.6174  116323634.365 7  90641808.81445
       889.332         692.986
  22123249.654    22123249.6474   22123252.6724  116258489.789 7  90591059.73045
     -3454.528       -2691.835
  20748894.764    20748894.6594   20748896.0244  109036215.707 9  84963308.61047
     -1168.722        -910.692
 08  4 19  0 21  0.0000000  0 11G 2G 4G 5G12G14G16G20G23G29G30G31
  23722746.873    23722746.4464   23722749.0874  124663887.469 5  97140708.45243
        -0.543          -0.421
  24436493.384    24436493.4814   24436497.9064  128414639.803 5 100063382.01041
     -2303.614       -1795.041
  23620175.504    23620173.8284   23620177.2364  124124884.124 6  96720715.85442
     -4192.713       -3267.025
  25260125.673    25260125.5254   25260129.2154  132742886.733 4 103436036.07741
     -4223.460       -3291.012
  25105327.634    25105327.1944   25105332.0094  131929410.172 4 102802142.87741
     -4509.251       -3513.720
  23400832.655    23400831.7994   23400834.2194  122972237.676 6  95822542.14243
      3046.730        2374.084
  23431687.178    23431685.5324   23431689.6244  123134365.216 6  95948874.56843
     -2781.817       -2167.650
  22602197.718    22602197.2094   22602198.1504  118775371.856 7  92552258.45144
      2179.347        1698.192
  22130622.451    22130622.4804   22130624.9124  116297240.232 7  90621241.95745
       870.212         678.080
  22143007.930    22143007.8844   22143010.2824  116362318.995 7  90671965.62945
     -3467.474       -2701.923
  20755614.274    20755614.2484   20755615.6224  109071527.299 9  84990824.13347
     -1185.443        -923.722
 08  4 19  0 21 30.0000000  0 11G 2G 4G 5G12G14G16G20G23G29G30G31
  23722809.964    23722808.8764   23722811.3324  124664213.923 6  97140962.84143
       -21.319         -16.611
  24449693.374    24449693.9474   24449697.3464  128484011.046 5 100117437.50041
     -2321.155       -1808.661
  23644129.963    23644128.9844   23644132.6614  124250765.059 6  96818804.93442
     -4199.322       -3272.205
  25284245.450    25284245.7304   25284248.0944  132869639.511 4 103534804.50241
     -4226.419       -3293.315
  25131076.977    25131077.7164   25131080.8594  132064721.797 4 102907580.57341
     -4511.658       -3515.560
  23383461.619    23383460.8654   23383463.2824  122880949.961 6  95751408.85743
      3039.076        2368.114
  23447612.557    23447612.6304   23447616.0054  123218059.093 6  96014090.52343
     -2797.837       -2180.130
  22589799.014    22589798.1174   22589798.6834  118710213.043 7  92501485.36644
      2164.582        1686.686
  22125709.597    22125709.4274   22125711.9324  116271422.471 7  90601124.24345
       850.943         663.078
  22162840.020    22162840.1344   22162842.4714  116466538.112 7  90753175.37445
     -3480.502       -2712.081
  20762429.685    20762429.6624   20762431.0084  109107342.437 9  85018732.01347
     -1202.249        -936.814
 08  4 19  0 22  0.0000000  0 11G 2G 4G 5G12G14G16G20G23G29G30G31
  23722990.945    23722989.9404   23722992.0084  124665165.122 6  97141704.03343
       -42.093         -32.796
  24462993.911    24462994.6494   24462999.0544  128553906.055 5 100171901.08841
     -2338.465       -1822.172
  23668119.393    23668118.9164   23668123.0014  124376839.573 5  96917044.70542
     -4205.604       -3277.079
  25308382.716    25308383.1474   25308386.0804  132996479.708 5 103633640.90441
     -4229.468       -3295.705
  25156839.648                                   132200103.378 4
     -4513.906
  23366133.382    23366132.7304   23366135.7014  122789892.170 6  95680454.74243
      3031.406        2362.125
  23463630.159    23463629.0724   23463633.1844  123302230.722 6  96079678.75843
     -2813.652       -2192.451
  22577483.194    22577482.8704   22577483.4894  118645496.752 7  92451057.10344
      2149.809        1675.173
  22120906.741    22120906.4664   22120908.8614  116246182.257 7  90581456.58545
       831.716         648.086
  22182745.807    22182745.8114   22182748.5884  116571144.604 7  90834686.91045
     -3493.310       -2722.055
  20769340.846    20769340.7304   20769342.1184  109143660.379 9  85047031.70047
     -1218.970        -949.847
 08  4 19  0 22 30.0000000  0 11G 2G 4G 5G12G14G16G20G23G29G30G31
  23723290.239    23723290.4314   23723292.1954  124666741.333 6  97142932.27343
       -63.002         -49.096
  24476394.482    24476393.7824   24476397.9674  128624322.585 5 100226771.08641
     -2355.847       -1835.741
  23692148.055    23692147.3244   23692151.6944  124503105.317 5  97015433.56142
     -4211.985       -3282.050
  25332536.731    25332536.6124   25332539.2214  133123405.450 5 103732544.05042
     -4232.288       -3297.875
  25182615.769                                   132335555.924 4
     -4516.196
  23348849.960    23348848.5614   23348852.1474  122699065.391 6  95609680.26143
      3023.731        2356.177
  23479737.539    23479737.2794   23479741.1354  123386877.210 6  96145636.87143
     -2829.421       -2204.731
  22565252.896    22565252.1924   22565253.3254  118581225.527 7  92400975.64144
      2134.950        1663.598
  22116213.704    22116213.5014   22116215.8664  116221521.296 7  90562240.32145
       812.370         633.020
  22202724.914    22202725.0124   22202727.8174  116676135.812 7  90916498.26844
     -3506.068       -2731.996
  20776347.572    20776347.3914   20776348.7554  109180480.787 8  85075722.93847
     -1235.726        -962.907
 08  4 19  0 23  0.0000000  0 11G 2G 4G 5G12G14G16G20G23G29G30G31
  23723709.135    23723708.7844   23723710.9784  124668944.447 6  97144648.97143
       -83.897         -65.377
  24489893.378    24489894.0004   24489896.0754  128695259.884 5 100282046.88241
     -2373.211       -1849.271
  23716211.476    23716211.2854   23716214.6674  124629561.564 6  97113970.84942
     -4218.350       -3287.034
  25356706.370    25356705.9544   25356708.8434  133250415.889 5 103831513.16842
     -4235.055       -3300.053
  25208402.995                                   132471076.476 4
     -4518.454
  23331611.931    23331611.7424   23331613.2974  122608470.136 6  95539084.40642
      3016.085        2350.259
  23495936.601    23495935.7414   23495938.8694  123471998.121 6  96211964.82843
     -2845.251       -2217.073
  22553108.514    22553108.0414   22553108.2414  118517403.373 7  92351244.11744
      2119.917        1651.884
  22111631.286    22111631.4344   22111633.6864  116197441.936 7  90543477.21645
       792.986         617.914
  22222776.963    22222777.1574   22222779.6844  116781510.180 7  90998608.14144
     -3518.821       -2741.939
  20783449.822    20783449.8554   20783451.2544  109217804.464 9  85104806.28547
     -1252.516        -975.995
 08  4 19  0 23 30.0000000  0 11G 2G 4G 5G12G14G16G20G23G29G30G31
  23724247.502    23724247.7374   23724250.0144  124671774.926 5  97146854.55343
      -104.845         -81.689
  24503491.179    24503491.1934   24503494.2194  128766715.593 5 100337726.61841
     -2390.455       -1862.653
  23740310.959    23740310.9764   23740314.1574  124756205.216 6  97212654.22842
     -4224.535       -3291.864
  25380890.833    25380890.5264   25380893.3644  133377509.212 5 103930546.96242
     -4238.014       -3302.350
  25234205.063    25234203.5104   25234210.0674  132606662.236 4 103329871.40341
     -4520.653       -3522.573
  23314418.984                                   122518110.137 6
      3007.795
  23512224.849    23512223.5074   23512226.5074  123557589.615 6  96278659.48143
     -2860.852       -2229.234
  22541049.209    22541048.6934   22541048.4904  118454032.038 7  92301863.85244
      2104.805        1640.108
  22107160.466    22107160.2704   22107162.4944  116173944.985 7  90525167.86946
       773.452         602.686
  22242902.009    22242901.9504   22242904.5074  116887265.343 7  91081014.77844
     -3531.519       -2751.835
  20790648.026    20790647.9884   20790649.2784  109255630.675 9  85134281.24247
     -1269.264        -989.037
 08  4 19  0 24  0.0000000  0 11G 2G 4G 5G12G14G16G20G23G29G30G31
  23724905.801    23724905.1384   23724907.3474  124675229.690 6  97149546.56143
      -125.474         -97.773
  24517185.885    24517185.7844   24517188.5514  128838683.893 5 100393805.78441
     -2407.464       -1875.956
  23764446.289    23764445.0144   23764448.5524  124883030.595 6  97311479.14442
     -4230.524       -3296.498
  25405091.324    25405091.3784   25405092.2144  133504678.951 5 104029640.09641
     -4240.282       -3304.123
  25260018.591    25260016.9734   25260021.5614  132742307.973 4 103435569.55641
     -4522.438       -3523.960
  23297268.651                                   122427996.709 6
      2999.875
  23528599.797    23528599.1794   23528602.5284  123643645.764 6  96345716.24243
     -2876.165       -2241.160
  22529075.209    22529074.8954   22529075.1534  118391110.869 7  92252834.35544
      2089.893        1628.484
  22102799.549    22102799.3674   22102801.6594  116151028.698 8  90507311.04245
       754.254         587.726
  22263097.574    22263097.4424   22263100.0724  116993395.262 7  91163713.45844
     -3543.811       -2761.411
  20797940.940    20797940.9314   20797942.1954  109293955.238 9  85164144.51947
     -1285.740       -1001.875
 08  4 19  0 24 30.0000000  0 11G 2G 4G 5G12G14G16G20G23G29G30G31
  23725682.245    23725681.7614   23725684.0394  124679310.487 6  97152726.41243
      -146.540        -114.192
  24530978.750    24530978.0684   24530982.7584  128911163.956 5 100450283.75941
     -2424.465       -1889.196
  23788613.461    23788613.2644   23788615.8374  125010036.561 5  97410444.71942
     -4236.487       -3301.166
  25429306.351    25429304.5534   25429308.7724  133631926.012 4 104128793.72041
     -4242.734       -3305.992
  25285842.381    25285840.6704   25285845.8954  132878012.623 5 103541313.59541
     -4524.408       -3525.511
  23280164.322    23280163.8924   23280167.2864  122338118.240 6  95328403.04343
      2992.067        2331.447
  23545064.320    23545062.9944   23545066.4194  123730165.033 6  96413133.82943
     -2891.600       -2253.188
  22517188.077    22517187.8944   22517188.7324  118328643.587 7  92204158.57844
      2074.684        1616.638
  22098549.671    22098549.4454   22098551.8204  116128695.110 7  90489908.24546
       734.754         572.536
  22283364.380    22283364.1424   22283366.9604  117099898.820 7  91246703.27044
     -3556.296       -2771.144
  20805328.784    20805328.7314   20805330.1804  109332779.076 9  85194396.83447
     -1302.440       -1014.890
 08  4 19  0 25  0.0000000  0 11G 2G 4G 5G12G14G16G20G23G29G30G31
  23726578.018    23726577.8534   23726579.7854  124684019.154 6  97156395.50643
      -167.368        -130.414
  24544868.291    24544867.6314   24544872.0954  128984155.159 5 100507160.02341
     -2441.488       -1902.426
  23812817.655    23812816.1834   23812818.9414  125137222.905 5  97509551.02341
     -4242.422       -3305.788
  25453534.270    25453533.3614   25453534.9204  133759249.018 4 104228006.37341
     -4245.326       -3308.060
  25311676.346    25311676.8544   25311680.0974  133013774.856 5 103647102.49241
     -4526.283       -3526.984
  23263106.764    23263105.9704   23263108.0504  122248479.604 6  95258555.15243
      2983.992        2325.200
  23561615.488    23561615.2494   23561618.2224  123817146.434 6  96480911.54643
     -2906.989       -2265.192
  22505388.616    22505387.6584   22505388.0154  118266633.869 7  92155839.32944
      2059.390        1604.715
  22094410.867    22094410.8004   22094413.0594  116106946.880 7  90472961.62346
       715.213         557.305
  22303701.849    22303702.1714   22303704.8354  117206774.317 7  91329982.79144
     -3568.648       -2780.758
  20812811.757    20812811.8314   20812813.3174  109372103.169 9  85225038.97547
     -1319.072       -1027.849
 08  4 19  0 25 30.0000000  0 11G 2G 4G 5G12G14G16G20G23G29G30G31
  23727594.799    23727593.3634   23727595.5564  124689357.097 6  97160554.96843
      -188.500        -146.895
  24558855.245    24558855.5624   24558857.4084  129057656.071 5 100564433.48541
     -2458.607       -1915.795
  23837052.737    23837052.4444   23837056.9934  125264587.848 5  97608796.59642
     -4248.441       -3310.459
  25477776.727    25477776.7164   25477779.5814  133886646.989 5 104327277.66441
     -4247.850       -3310.008
  25337516.541    25337518.6154   25337523.6914  133149593.418 4 103752935.22441
     -4528.238       -3528.477
  23246095.267    23246094.5804   23246096.9934  122159084.965 6  95188897.18443
      2975.712        2318.747
  23578255.470    23578254.3184   23578258.3694  123904588.007 6  96549047.78443
     -2922.406       -2277.213
  22493675.537    22493675.2854   22493675.6464  118205085.135 7  92107879.29244
      2043.906        1592.651
  22090384.261    22090384.1344   22090386.3944  116085786.230 7  90456472.75646
       695.512         541.963
  22324110.957    22324110.6834   22324113.1054  117314020.419 7  91413551.11444
     -3581.028       -2790.414
  20820390.229    20820390.1544   20820391.6244  109411927.681 8  85256071.08547
     -1335.861       -1040.934
 08  4 19  0 26  0.0000000  0 12G 2G 4G 5G 6G12G14G16G20G23G29G30G31
  23728728.773    23728728.8904   23728731.0664  124695323.748 5  97165204.28343
      -209.251        -163.044
  24572938.015    24572938.0034   24572942.0364  129131663.419 5 100622101.58241
     -2475.319       -1928.773
  23861324.061    23861322.5604   23861325.5694  125392127.457 6  97708178.15242
     -4254.070       -3314.860
  25351743.766                                   133224312.591 4
      3244.133
  25502033.432    25502033.9814   25502035.9904  134014116.750 5 104426604.75041
     -4250.183       -3311.823
  25363377.518    25363373.7094   25363379.7594  133285464.825 4 103858809.09941
     -4529.856       -3529.754
  23229130.229    23229129.9564   23229132.7164  122069934.588 6  95119429.05643
      2967.691        2312.515
  23594982.129    23594981.3434   23594984.0464  123992486.199 6  96617539.89843
     -2937.445       -2288.924
  22482051.898    22482051.2914   22482051.4804  118143998.760 7  92060279.53244
      2028.545        1580.681
  22086469.465    22086469.2944   22086471.6574  116065213.514 7  90440442.09846
       676.020         526.766
  22344588.807    22344588.9534   22344591.6724  117421633.567 7  91497405.42644
     -3593.148       -2799.863
  20828063.373    20828063.3754   20828064.8304  109452251.132 8  85287492.02147
     -1352.331       -1053.764
 08  4 19  0 26 30.0000000  0 12G 2G 4G 5G 6G12G14G16G20G23G29G30G31
  23430191.910    23430191.7154   23430193.5594  123126497.854 6  95942742.53343
      -230.295        -179.445
  24287325.048    24287325.0884   24287328.2974  127630755.268 5  99452562.72341
     -2491.995       -1941.847
  23585834.372    23585833.8434   23585837.3274  123944422.092 6  96580096.10542
     -4259.928       -3319.420
  25033434.684                                   131551583.913 5
      3242.936
  25226511.591    25226512.3224   25226514.2294  132566238.229 5 103298387.40142
     -4252.364       -3313.527
  25089450.394    25089449.8444   25089454.5824  131845969.033 5 102737124.16141
     -4531.499       -3531.041
  22912419.143    22912418.8364   22912422.0614  120405607.698 6  93822551.18943
      2959.336        2305.961
  23312001.836    23312000.9864   23312005.3504  122505419.067 5  95458786.29743
     -2952.526       -2300.685
  22170722.216    22170721.8694   22170722.6114  116507953.250 7  90785438.87444
      2013.030        1568.599
  21782873.504    21782873.4854   21782875.8084  114469807.152 7  89197268.32546
       656.375         511.458
  22065343.852    22065343.9564   22065346.7904  115954192.934 7  90353945.22844
     -3605.247       -2809.283
  20536038.952    20536038.8454   20536040.3054  107917652.040 8  84091700.51047
     -1368.934       -1066.702
 08  4 19  0 27  0.0000000  0 11G 2G 4G 5G 6G12G16G20G23G29G30G31
  23431566.054    23431565.7664   23431567.7564  123133718.962 6  95948369.40243
      -251.140        -195.701
  24301599.385    24301598.2354   24301602.3014  127705764.543 5  99511011.45541
     -2508.539       -1954.699
  23610168.138    23610167.6984   23610171.7324  124072300.788 5  96679741.80742
     -4265.372       -3323.648
  25014924.622                                   131454312.410 5
      3241.861
  25250794.168    25250794.8584   25250796.1754  132693841.000 5 103397817.54741
     -4254.443       -3315.161
  22895548.391    22895547.8264   22895550.5814  120316950.248 6  93753467.38943
      2951.204        2299.626
  23328899.940    23328898.7174   23328902.6454  122594218.152 6  95527980.39242
     -2967.386       -2312.240
  22159274.914    22159274.3484   22159274.1784  116447794.801 7  90738562.16344
      1997.579        1556.552
  21779182.236    21779182.1674   21779184.4184  114450409.027 8  89182152.92346
       636.819         496.217
  22085959.430    22085959.3994   22085962.3374  116062528.363 7  90438362.45044
     -3617.100       -2818.518
  20543900.821    20543900.8484   20543902.2964  107958967.133 8  84123894.12347
     -1385.361       -1079.506
 08  4 19  0 27 30.0000000  0 11G 2G 4G 5G 6G12G16G20G23G29G30G31
  23433059.581    23433058.7954   23433061.0914  123141567.474 6  95954485.12543
      -272.010        -211.958
  24315967.917    24315966.7754   24315970.0474  127781271.166 5  99569847.73141
     -2525.046       -1967.561
  23634535.065    23634533.2384   23634535.9324  124200345.165 5  96779516.76042
     -4270.879       -3327.983
  24996419.704                                   131357085.945 5
      3240.508
  25275089.217    25275088.6514   25275091.1924  132821508.767 5 103497298.90041
     -4256.676       -3316.878
  22878724.682    22878724.0584   22878727.2444  120228542.025 6  93684578.05343
      2942.829        2293.112
  23345882.758    23345881.6564   23345885.6834  122683462.923 6  95597521.75842
     -2982.280       -2323.863
  22147915.594    22147914.9004   22147915.6474  116388103.575 7  90692049.50444
      1981.885        1544.331
  21775603.033    21775602.8734   21775605.2624  114431599.865 7  89167496.48546
       617.143         480.888
  22106643.465    22106643.2974   22106645.8954  116171220.821 7  90523057.90244
     -3629.010       -2827.805
  20551857.009    20551856.9554   20551858.4524  108000776.797 8  84156473.02947
     -1401.895       -1092.379
 08  4 19  0 28  0.0000000  0 11G 2G 4G 5G 6G12G16G20G23G29G30G31
  23434673.255    23434672.8324   23434673.9224  123150045.541 6  95961091.42343
      -293.099        -228.394
  24330430.468    24330429.9884   24330433.9194  127857274.296 5  99629070.86741
     -2541.615       -1980.484
  23658933.073    23658931.8244   23658934.2934  124328554.782 6  96879420.34042
     -4276.330       -3332.197
  24977923.588    24977924.1884   24977928.1584  131259890.953 5 102280440.81741
      3239.268        2524.087
  25299395.198    25299394.5944   25299396.8804  132949239.982 4 103596829.64241
     -4258.673       -3318.490
  22861948.789    22861948.4244   22861951.1884  120140385.773 6  93615884.93743
      2934.338        2286.495
  23362950.763    23362949.9254   23362952.5634  122773152.404 6  95667409.62742
     -2996.996       -2335.335
  22136646.826    22136646.0314   22136646.8604  116328883.822 7  90645904.27044
      1966.120        1532.039
  21772136.381    21772136.1494   21772138.3044  114413382.224 7  89153300.92946
       597.375         465.496
  22127394.765    22127394.4304   22127396.8874  116280269.458 7  90608030.90244
     -3640.840       -2837.021
  20559907.518    20559907.4664   20559908.9724  108043082.271 8  84189438.31847
     -1418.420       -1105.261
 08  4 19  0 28 30.0000000  0 10G 2G 4G 5G 6G16G20G23G29G30G31
  23436406.428    23436406.1164   23436407.6194  123159154.543 6  95968189.34943
      -314.182        -244.814
  24344987.657    24344987.2274   24344990.5704  127933773.623 5  99688680.66941
     -2558.236       -1993.398
  23683361.943    23683359.8864   23683363.2054  124456928.556 6  96979451.92742
     -4281.791       -3336.483
  24959435.962    24959434.4554   24959441.1114  131162740.207 4 102204739.02842
      3237.510        2522.738
  22845221.694    22845221.6354   22845223.8364  120052485.568 6  93547391.45443
      2925.740        2279.781
  23380102.543    23380102.1694   23380104.2654  122863285.452 6  95737643.21443
     -3011.858       -2346.898
  22125467.426    22125467.1954   22125468.0174  116270139.528 7  90600129.55044
      1950.230        1519.651
  21768782.443    21768782.4784   21768784.6914  114395758.478 7  89139568.11346
       577.589         450.072
  22148213.313    22148213.0384   22148215.6684  116389673.396 7  90693280.75444
     -3652.658       -2846.220
  20568052.621    20568052.5364   20568053.9734  108085884.599 8  84222790.77547
     -1435.020       -1118.195
 08  4 19  0 29  0.0000000  0 10G 2G 4G 5G 6G16G20G23G29G30G31
  23438258.448    23438259.2024   23438260.8084  123168894.208 5  95975778.71043
      -335.293        -261.253
  24359638.485    24359638.8554   24359642.5864  128010765.725 5  99748674.48541
     -2574.730       -2006.298
  23707820.320    23707820.4164   23707823.3274  124585463.658 6  97079609.11242
     -4287.261       -3340.735
  24940959.003    24940957.2604   24940960.9164  131065634.655 4 102129072.36941
      3235.986        2521.535
  22828544.340    22828543.8804   22828546.5464  119964841.976 6  93479097.91043
      2917.116        2273.058
  23397337.761    23397337.7154   23397341.0544  122953858.471 6  95808219.62443
     -3026.457       -2358.279
  22114380.259    22114379.3304   22114379.5854  116211871.837 7  90554726.14744
      1934.181        1507.157
  21765542.189    21765541.7784   21765544.0344  114378728.891 8  89126298.29846
       557.650         434.530
  22169098.796    22169098.7794   22169101.6774  116499429.167 7  90778804.72144
     -3664.457       -2855.431
  20576291.878    20576291.7444   20576293.1764  108129181.879 8  84256528.91947
     -1451.570       -1131.099
 08  4 19  0 29 30.0000000  0 10G 2G 4G 5G 6G16G20G23G29G30G31
  23440234.717    23440233.9184   23440235.6484  123179269.522 6  95983863.35543
      -356.509        -277.811
  24374384.959    24374384.9494   24374387.5714  128088252.981 5  99809054.18441
     -2591.193       -2019.118
  23732310.996    23732310.2814   23732314.1124  124714162.350 5  97179893.74142
     -4292.737       -3344.981
  24922491.501    24922490.8784   24922493.6934  130968581.781 5 102053446.55641
      3234.147        2520.110
  22811916.540    22811915.9574   22811918.5384  119877461.561 6  93411009.17044
      2908.208        2266.153
  23414656.966    23414656.2244   23414660.1834  123044873.572 6  95879140.47643
     -3041.299       -2369.847
  22103383.903    22103383.4174   22103384.0724  116154088.371 7  90509700.09845
      1917.965        1494.520
  21762415.353    21762415.3404   21762417.6124  114362299.175 7  89113495.86646
       537.528         418.858
  22190052.688    22190052.4394   22190054.4354  116609539.036 7  90864604.65644
     -3676.261       -2864.622
  20584626.140    20584626.0164   20584627.4164  108172978.836 8  84290656.43547
     -1468.280       -1144.115
 08  4 19  0 30  0.0000000  0 10G 2G 4G 5G 6G16G20G23G29G30G31
  23442327.760    23442328.4634   23442329.8294  123190277.971 6  95992441.33143
      -377.418        -294.077
  24389222.180    24389221.6274   24389225.8484  128166230.409 5  99869815.78541
     -2607.243       -2031.609
  23756831.517    23756830.8104   23756834.5294  124843019.653 5  97280301.87142
     -4297.638       -3348.805
  24904032.321    24904032.2784   24904036.0034  130871581.120 5 101977861.68341
      3232.561        2518.876
  22795338.490    22795337.4324   22795340.1124  119790344.392 6  93343125.85243
      2899.680        2259.482
  23432059.056    23432058.9214   23432063.0154  123136325.136 6  95950401.39442
     -3055.479       -2380.883
  22092479.788    22092479.6384   22092480.3314  116096788.519 7  90465050.88144
      1902.058        1482.119
  21759403.024    21759402.9024   21759405.2134  114346467.993 7  89101159.81046
       517.846         403.512
  22211071.550    22211071.7004   22211074.0434  116719997.482 7  90950676.17744
     -3687.637       -2873.489
  20593054.759    20593054.6104   20593055.9614  108217271.316 9  84325170.10247
     -1484.534       -1156.784
 08  4 19  0 30 30.0000000  0 10G 2G 4G 5G 6G16G20G23G29G30G31
  23444544.534    23444543.7494   23444545.5774  123201920.090 6  96001513.07043
      -398.619        -310.613
  24404154.257    24404154.1804   24404158.0994  128244695.980 5  99930957.76041
     -2623.505       -2044.280
  23781383.316    23781381.7424   23781385.2414  124972033.380 5  97380831.72942
     -4303.024       -3353.023
  24885583.669    24885584.3254   24885589.1194  130774634.903 5 101902319.21241
      3230.634        2517.400
  22778811.375    22778810.3034   22778812.8414  119703491.006 7  93275447.79343
      2890.729        2252.533
  23449544.975    23449544.0964   23449548.3654  123228210.508 5  96022000.38842
     -3070.020       -2392.218
  22081668.869    22081668.4184   22081668.9534  116039975.060 7  90420780.66545
      1885.673        1469.355
  21756504.701    21756504.4634   21756506.7084  114331236.612 7  89089291.19146
       497.753         387.861
  22232157.106    22232157.3214   22232159.9294  116830802.507 7  91037017.83644
     -3699.228       -2882.521
  20601577.632    20601577.4884   20601578.8724  108262059.150 8  84360069.69947
     -1501.125       -1169.705
 08  4 19  0 31  0.0000000  0 10G 2G 4G 5G 6G16G20G23G29G30G31
  23446880.959    23446879.7194   23446881.8314  123214194.976 5  96011077.91943
      -419.722        -327.058
  24419177.861    24419178.1674   24419181.3744  128323646.311 5  99992477.43641
     -2639.695       -2056.885
  23805961.856    23805961.5684   23805965.7434  125101200.977 5  97481481.60942
     -4308.085       -3356.914
  24867145.035    24867143.0714   24867150.0424  130677744.612 5 101826820.40741
      3228.702        2515.855
  22762333.888    22762333.2644   22762335.9804  119616903.417 6  93207976.75244
      2881.812        2245.565
  23467112.649    23467111.6384   23467115.7524  123320525.815 6  96093934.32943
     -3084.306       -2403.350
  22070950.359    22070949.9134   22070950.3934  115983649.250 7  90376890.41644
      1869.394        1456.672
  21753720.245    21753719.9794   21753722.3824  114316604.238 7  89077889.23846
       477.767         372.280
  22253307.774    22253307.9924   22253310.4794  116941950.145 7  91123626.38144
     -3710.580       -2891.344
  20610194.416    20610194.3064   20610195.7424  108307340.869 8  84395354.10947
     -1517.622       -1182.569
 08  4 19  0 31 30.0000000  0 10G 2G 4G 5G 6G16G20G23G29G30G31
  23449335.959    23449336.2394   23449337.2814  123227101.496 6  96021134.92043
      -440.828        -343.502
  24434293.433    24434292.6904   24434296.2444  128403077.620 5 100054371.88341
     -2655.767       -2069.418
  23830570.839    23830570.1374   23830573.2304  125230518.355 6  97582248.26542
     -4313.095       -3360.839
  24848719.092    24848718.2424   24848724.1144  130580911.410 5 101751366.09341
      3226.834        2514.416
  22745907.639    22745906.8094   22745909.6224  119530582.607 7  93140713.78344
      2872.884        2238.600
  23484760.708    23484760.1464   23484763.8344  123413266.884 6  96166200.01043
     -3098.466       -2414.389
  22060325.375    22060325.0004   22060325.5024  115927812.176 7  90333381.03045
      1853.086        1443.963
  21751049.680    21751049.5924   21751052.1194  114302571.199 7  89066954.35346
       457.725         356.663
  22274523.634    22274523.2484   22274525.9234  117053436.356 7  91210498.69344
     -3721.847       -2900.137
  20618904.918    20618904.8374   20618906.1854  108353114.109 8  84431021.42347
     -1533.958       -1195.282
 08  4 19  0 32  0.0000000  0 10G 2G 4G 5G 6G16G20G23G29G30G31
  23451913.258    23451912.3084   23451913.3854  123240639.891 6  96031684.31843
      -461.789        -359.838
  24449499.576    24449499.5124   24449503.6564  128482987.683 5 100116639.42641
     -2671.589       -2081.760
  23855207.332    23855206.3254   23855209.6594  125359983.636 6  97683130.37741
     -4317.896       -3364.589
  24830302.822    24830302.4144   24830306.8724  130484137.266 5 101675957.66341
      3224.761        2512.783
  22729531.837    22729531.4014   22729534.0984  119444530.500 6  93073660.44444
      2863.975        2231.677
  23502489.764    23502488.3404   23502492.0964  123506431.123 6  96238795.53743
     -3112.503       -2425.340
  22049793.118    22049792.6144   22049793.2144  115872466.224 7  90290254.34645
      1836.666        1431.163
  21748493.276    21748493.4724   21748495.9564  114289138.652 7  89056487.43646
       437.746         341.100
  22295802.009    22295802.5054   22295805.1014  117165259.172 7  91297633.18244
     -3733.006       -2908.836
  20627708.809    20627708.7204   20627710.0984  108399379.099 8  84467072.16147
     -1550.323       -1208.042
 08  4 19  0 32 30.0000000  0 10G 2G 4G 5G 6G16G20G23G29G30G31
  23454610.141    23454609.2684   23454610.4924  123254811.433 6  96042727.07943
      -482.919        -376.301
  24464796.714    24464796.3874   24464800.3754  128563375.548 5 100179279.32841
     -2687.499       -2094.128
  23879871.992    23879870.8394   23879875.8224  125489596.110 6  97784127.09842
     -4322.812       -3368.413
  24811898.761    24811897.0214   24811903.4454  130387425.773 4 101600598.05141
      3222.662        2511.181
  22713208.756    22713208.1804   22713210.4274  119358749.921 7  93006818.61244
      2854.822        2224.526
  23520298.219    23520297.2664   23520301.2584  123600017.492 6  96311719.98142
     -3126.577       -2436.299
  22039355.348    22039354.7464   22039355.1384  115817615.241 7  90247513.35745
      1820.129        1418.284
  21746052.497    21746052.3224   21746055.0944  114276306.776 8  89046487.61746
       417.547         325.331
  22317145.401    22317145.4364   22317148.0444  117277418.209 7  91385030.03844
     -3744.162       -2917.520
  20636606.205    20636606.2064   20636607.6204  108446135.795 8  84503505.96147
     -1566.719       -1220.824
 08  4 19  0 33  0.0000000  0 10G 2G 4G 5G 6G16G20G23G29G30G31
  23457427.314    23457426.5844   23457428.0444  123269617.167 6  96054264.01643
      -504.194        -392.883
  24480184.006    24480185.1334   24480188.1494  128644239.339 5 100242290.06941
     -2703.414       -2106.540
  23904564.265    23904563.1914   23904566.7304  125619353.571 5  97885236.71342
     -4327.686       -3372.223
  24793508.498    24793508.8584   24793513.6114  130290780.366 5 101525289.92441
      3220.349        2509.360
  22696937.480    22696936.4314   22696938.7284  119273243.529 7  92940190.39744
      2845.538        2217.302
  23538186.965    23538186.0864   23538190.2664  123694023.204 6  96384971.18442
     -3140.579       -2447.204
  22029012.195    22029011.8444   22029012.2474  115763262.077 7  90205160.23145
      1803.395        1405.244
  21743725.965    21743725.8294   21743728.8724  114264080.930 8  89036961.08846
       397.345         309.595
  22338551.866    22338551.7844   22338554.6304  117389910.255 7  91472686.12744
     -3755.349       -2926.262
  20645597.425    20645597.3494   20645598.8254  108493384.220 9  84540322.84147
     -1583.220       -1233.676
 08  4 19  0 33 30.0000000  0 10G 2G 4G 5G 6G16G20G23G29G30G31
  23460364.438    23460364.3574   23460365.4634  123285055.591 6  96066293.95243
      -525.105        -409.165
  24495662.309    24495662.7044   24495667.1824  128725575.703 5 100305669.02541
     -2719.013       -2118.694
  23929281.739    23929280.9894   23929286.8344  125749253.300 5  97986457.13641
     -4332.248       -3375.753
  24775130.692    24775131.5884   24775132.1694  130194203.023 5 101450035.01741
      3218.226        2507.768
  22680718.035    22680717.4514   22680719.8034  119188012.110 6  92873776.29844
      2836.545        2210.299
  23556153.933    23556153.4624   23556157.1174  123788444.501 5  96458546.19442
     -3154.193       -2457.814
  22018764.497    22018763.7444   22018763.9864  115709408.003 7  90163196.01245
      1786.872        1392.371
  21741514.208    21741514.1774   21741516.6274  114252458.874 7  89027905.14646
       377.442         294.116
  22360021.399    22360021.5694   22360023.9774  117502732.596 7  91560599.71344
     -3766.131       -2934.652
  20654681.839    20654681.8244   20654683.3284  108541122.707 8  84577521.50847
     -1599.333       -1246.214
 08  4 19  0 34  0.0000000  0 10G 2G 4G 5G 6G16G20G23G29G30G31
  23463423.395    23463423.2204   23463423.8804  123301128.019 6  96078817.94243
      -546.322        -425.709
  24511229.765    24511230.6714   24511233.3564  128807383.217 5 100369415.16141
     -2734.819       -2131.034
  23954028.758    23954027.3034   23954031.2954  125879294.153 5  98087787.76142
     -4337.094       -3379.565
  24756766.017    24756765.5154   24756767.9604  130097695.766 5 101374834.65041
      3215.649        2505.687
  22664552.436    22664551.4614   22664553.7904  119103057.880 7  92807578.01544
      2827.163        2203.015
  23574200.968    23574199.8984   23574203.0284  123883279.652 6  96532443.70142
     -3168.129       -2468.662
  22008611.586    22008610.9634   22008611.3664  115656056.523 7  90121623.44545
      1769.933        1379.165
  21739418.006    21739417.9284   21739421.0054  114241440.943 7  89019319.17546
       357.005         278.146
  22381553.169    22381553.2924   22381555.3584  117615883.356 7  91648769.16544
     -3777.191       -2943.260
  20663859.697    20663859.4984   20663861.1664  108589351.505 8  84615102.31347
     -1615.885       -1259.154
 08  4 19  0 34 30.0000000  0 10G 2G 4G 5G 6G16G20G23G29G30G31
  23466603.318    23466602.3684   23466603.1934  123317835.711 6  96091836.90543
      -567.410        -442.135
  24526887.367    24526886.3904   24526889.7864  128889660.567 5 100433527.38541
     -2750.304       -2143.115
  23978801.145    23978799.7914   23978803.9544  126009474.953 5  98189227.50242
     -4341.630       -3383.097
  24738414.715    24738414.8734   24738418.3824  130001262.569 5 101299691.99841
      3213.177        2503.784
  22648439.402    22648438.8154   22648440.7874  119018385.352 7  92741599.57544
      2817.804        2195.690
  23592325.612    23592325.4294   23592327.7904  123978526.769 6  96606662.24442
     -3181.702       -2479.227
  21998555.563    21998555.2544   21998555.1984  115603210.794 7  90080444.94145
      1753.132        1366.081
  21737436.619    21737436.7384   21737439.4774  114231033.251 7  89011210.07746
       336.900         262.520
  22403146.898    22403147.0394   22403149.5284  117729361.176 6  91737193.39444
     -3787.949       -2951.643
  20673130.386    20673130.4184   20673131.9044  108638071.194 8  84653065.86847
     -1632.085       -1271.749
 08  4 19  0 35  0.0000000  0 10G 2G 4G 5G 6G16G20G23G29G30G31
  23469903.239    23469902.5914   23469903.1554  123335177.271 6  96105349.79343
      -588.651        -458.688
  24542633.164    24542632.8464   24542636.9274  128972403.792 5 100498002.64641
     -2765.892       -2155.262
  24003600.707    24003599.9684   24003601.6694  126139791.368 6  98290772.65642
     -4346.156       -3386.583
  24720077.148    24720076.9634   24720082.4104  129904904.418 5 101224607.89841
      3210.542        2501.753
  22632380.459    22632379.8064   22632381.6404  118933994.150 7  92675840.27544
      2808.298        2188.304
  23610527.826    23610527.6684   23610531.2264  124074181.872 6  96681198.72642
     -3195.192       -2489.768
  21988595.672    21988595.2774   21988595.6624  115550872.100 7  90039661.54145
      1736.149        1352.847
  21735571.884    21735571.6404   21735574.1094  114221231.088 7  89003572.00646
       316.610         246.698
  22424802.920    22424802.8484   22424805.6674  117843161.915 7  91825869.23644
     -3798.719       -2960.027
  20682494.351    20682494.3334   20682495.9054  108687279.044 8  84691409.60747
     -1648.407       -1284.470
 08  4 19  0 35 30.0000000  0 10G 2G 4G 5G 6G16G20G23G29G30G31
  23473324.041    23473323.5444   23473324.1824  123353153.865 6  96119357.52043
      -609.720        -475.112
  24558466.490    24558466.8074   24558469.1054  129055611.717 5 100562839.87441
     -2781.209       -2167.185
  24028423.784    24028423.4244   24028427.3694  126270243.163 5  98392423.30841
     -4350.554       -3390.047
  24701757.207    24701756.5494   24701760.1674  129808624.788 5 101149584.79941
      3208.116        2499.847
  22616375.185    22616374.4854   22616376.7674  118849886.883 7  92610301.81944
      2798.896        2180.985
  23628808.638    23628807.3394   23628811.1904  124170243.040 6  96756051.52642
     -3208.682       -2500.261
  21978732.981    21978732.5034   21978733.1834  115499043.695 7  89999275.78045
      1719.160        1339.611
  21733821.995    21733822.0104   21733824.3074  114212037.405 8  88996407.91546
       296.446         231.065
  22446519.856    22446519.8074   22446522.4584  117957284.795 6  91914796.21344
     -3809.379       -2968.348
  20691951.504    20691951.5084   20691953.0644  108736975.777 8  84730134.08247
     -1664.603       -1297.058
 08  4 19  0 36  0.0000000  0 10G 2G 4G 5G 6G16G20G23G29G30G31
  23476865.929    23476865.2374   23476865.8604  123371765.729 6  96133860.32443
      -631.011        -491.711
  24574387.680    24574387.7794   24574392.3004  129139282.361 5 100628037.80841
     -2796.842       -2179.365
  24053273.409    24053272.8884   24053275.6704  126400828.753 5  98494178.38141
     -4355.114       -3393.601
  24683451.350    24683450.2674   24683454.5584  129712426.684 5 101074625.31241
      3205.214        2497.579
  22600424.705    22600423.9614   22600426.9524  118766067.026 7  92544987.52944
      2789.131        2173.333
  23647164.408    23647163.9694   23647167.9614  124266707.962 6  96831219.04042
     -3222.231       -2510.815
  21968968.436    21968967.7544   21968968.2324  115447728.308 7  89959289.76645
      1701.897        1326.161
  21732188.798    21732188.7944   21732192.0094  114203454.536 7  88989719.93646
       275.803         214.873
  22468297.314    22468297.1194   22468299.9594  118071727.309 6  92003972.20944
     -3820.088       -2976.694
  20701501.775    20701501.7974   20701503.5524  108787161.143 8  84769239.12247
     -1681.061       -1309.935
 08  4 19  0 36 30.0000000  0 10G 2G 4G 5G 6G16G20G23G29G30G31
  23480528.247    23480527.5114   23480527.7264  123391011.691 6  96148857.17643
      -652.077        -508.105
  24590398.594    24590398.5634   24590401.5214  129223412.079 5 100693593.35841
     -2811.956       -2191.104
  24078146.193    24078146.3264   24078151.4284  126531544.743 5  98596034.99041
     -4359.293       -3396.842
  24665161.467    24665159.9294   24665163.9914  129616311.072 5 100999729.98741
      3202.307        2495.317
  22584530.017    22584527.7514   22584532.7034  118682532.566 7  92479894.36743
      2779.325        2165.419
  23665597.617    23665597.0044   23665600.3324  124363572.737 6  96906698.07042
     -3235.584       -2521.231
  21959301.182    21959300.7714   21959301.4594  115396927.303 7  89919704.60945
      1684.773        1312.810
  21730671.891    21730671.6884   21730673.8134  114195481.580 7  88983507.30146
       255.506         199.104
  22490135.651    22490135.1514   22490138.0974  118186486.050 7  92093394.63944
     -3830.542       -2984.833
  20711144.532    20711144.4784   20711146.4244  108837833.590 8  84808724.01347
     -1697.259       -1322.555
 08  4 19  0 37  0.0000000  0 10G 2G 4G 5G 6G16G20G23G29G30G31
  23484310.307    23484310.3824   23484310.3614  123410890.164 6  96164347.01343
      -673.026        -524.426
  24606493.326    24606493.3994   24606497.2724  129307996.822 5 100759503.52141
     -2826.969       -2202.830
  24103045.942    24103045.8964   24103050.4014  126662387.065 5  98697990.00942
     -4363.434       -3400.074
  24646886.790    24646885.9474   24646889.6414  129520278.835 5 100924899.62441
      3199.581        2493.199
  22568688.912    22568687.9404   22568690.0824  118599288.196 7  92415028.71444
      2770.396        2158.917
  23684105.963    23684104.7924   23684108.5184  124460832.763 6  96982485.12942
     -3248.542       -2531.314
  21949731.736    21949731.4194   21949731.4984  115346640.646 7  89880519.95245
      1667.673        1299.498
  21729271.258    21729271.0074   21729273.5194  114188113.521 8  88977764.00146
       235.363         183.417
  22512032.335    22512032.6844   22512034.9474  118301556.794 7  92183060.15944
     -3840.827       -2992.844
  20720879.429    20720879.3434   20720881.4064  108888990.374 8  84848586.29347
     -1713.261       -1335.026
 08  4 19  0 37 30.0000000  0 10G 2G 4G 5G 6G16G20G23G29G30G31
  23488213.024    23488212.7484   23488213.6914  123431400.990 6  96180329.44743
      -694.367        -541.048
  24622676.190    24622675.9194   24622680.4184  129393034.137 5 100825766.21741
     -2842.202       -2214.691
  24127969.001    24127968.1984   24127973.0494  126793353.829 5  98800041.92642
     -4367.709       -3403.401
  24628626.875    24628626.3154   24628632.8614  129424332.578 5 100850136.27541
      3196.530        2490.840
  22552903.289                                   118516335.658 7
      2760.076
  23702687.978    23702687.8224   23702691.2014  124558484.964 6  97058577.68242
     -3261.725       -2541.582
  21940261.423    21940260.5384   21940261.3204  115296871.773 7  89841738.95445
      1650.181        1285.853
  21727985.776    21727986.2994   21727992.7714  114181360.588 7  88972503.32345
       214.311         166.718
  22533988.928    22533988.5394   22533991.3374  118416937.043 7  92272966.70744
     -3851.256       -3000.971
  20730706.549                    20730708.5394  108940629.640 8  84888797.34146
     -1729.464       -1347.606
 08  4 19  0 38  0.0000000  0 10G 2G 4G 5G 6G16G20G23G29G30G31
  23492236.444    23492236.9404   23492236.5904  123452547.199 6  96196807.14843
      -715.405        -557.473
  24638944.128    24638943.6484   24638948.3964  129478524.547 5 100892382.08041
     -2857.178       -2226.380
  24152914.693    24152914.2414   24152917.3144  126924445.641 5  98902191.37542
     -4371.676       -3406.501
  24610388.208    24610387.6604   24610392.0054  129328477.419 5 100775444.07941
      3193.665        2488.567
  22537173.804    22537173.1024   22537175.8514  118433677.677 7  92285981.32344
      2750.413        2143.172
  23721344.648    23721344.0694   23721347.5874  124656529.493 5  97134976.07142
     -3274.613       -2551.646
  21930889.582    21930889.4564   21930889.9744  115247625.662 7  89803365.57345
      1632.907        1272.402
  21726817.090                                   114175220.971 8
       194.512
  22556004.005    22556004.0124   22556006.4404  118532627.664 7  92363115.26044
     -3861.409       -3008.902
  20740626.091    20740626.0534   20740631.8074  108992756.320 8  84929416.93647
     -1745.683       -1360.090
 08  4 19  0 38 30.0000000  0 10G 2G 4G 5G 6G16G20G23G29G30G31
  23496382.170    23496381.3864   23496381.2264  123474324.941 6  96213776.82842
      -736.414        -573.817
  24655297.809    24655297.7854   24655300.5694  129564462.220 5 100959346.43941
     -2872.008       -2237.911
  24177883.077    24177882.8684   24177886.6194  127055657.473 5  99004434.30241
     -4375.657       -3409.599
  24592163.904    24592163.6734   24592168.4464  129232713.325 5 100700822.89941
      3190.685        2486.256
  22521500.470    22521499.7734   22521502.5364  118351311.063 7  92221798.95344
      2740.632        2135.568
  23740075.716    23740074.3464   23740078.4904  124754960.703 5  97211675.72941
     -3287.402       -2561.606
  21921618.348    21921617.7314   21921617.8244  115198899.922 7  89765396.96545
      1615.420        1258.738
  21725764.543    21725764.1044   21725766.8204  114169692.082 8  88963394.72046
       174.098         135.624
  22578077.017    22578077.0774   22578080.2074  118648621.473 6  92453499.38043
     -3871.605       -3016.837
  20750637.175    20750637.1854   20750639.2284  109045365.121 8  84970410.86547
     -1761.593       -1372.688
 08  4 19  0 39  0.0000000  0 10G 2G 4G 5G 6G16G20G23G29G30G31
  23500646.474    23500645.6214   23500645.6714  123496733.345 6  96231237.85942
      -757.429        -590.192
  24671735.792    24671736.1624   24671739.1514  129650844.068 5 101026656.87741
     -2886.773       -2249.429
  24202875.823    24202873.5574   24202876.4374  127186986.387 5  99106768.44741
     -4379.655       -3412.740
  24573957.630    24573957.2474   24573963.1764  129137041.051 5 100626273.36441
      3187.547        2483.794
  22505882.362    22505881.9804   22505884.5584  118269242.588 7  92157850.48744
      2730.719        2127.836
  23758879.145    23758878.7064   23758881.6674  124853774.485 6  97288673.53142
     -3300.151       -2571.548
  21912445.061    21912444.7084   21912444.8144  115150699.376 7  89727838.67645
      1597.993        1245.187
  21724827.697    21724827.7704   21724829.9424  114164772.982 8  88959561.89746
       153.760         119.813
  22600207.775    22600207.9954   22600211.6214  118764916.938 6  92544118.55443
     -3882.011       -3025.110
  20760739.475    20760739.4954   20760741.5634  109098455.386 8  85011780.50047
     -1777.758       -1385.306
 08  4 19  0 39 30.0000000  0 11G 2G 4G 5G 6G13G16G20G23G29G30G31
  23505030.100    23505030.0094   23505029.7134  123519774.422 6  96249191.73442
      -778.605        -606.705
  24688258.167    24688257.9064   24688260.9794  129737669.713 5 101094313.20941
     -2901.677       -2260.998
  24227888.442    24227887.9504   24227890.4674  127318432.767 5  99209194.19141
     -4383.594       -3415.742
  24555769.374    24555769.7684   24555775.7204  129041465.223 5 100551798.76441
      3184.369        2481.333
  24521551.888    24521552.2404   24521555.7964  128861613.213 5 100411675.5424
      3223.276        2511.668
  22490322.682                                   118187464.836 7
      2720.665
  23777756.741    23777755.9864   23777758.9534  124952970.295 6  97365968.98342
     -3312.927       -2581.485
  21903373.462    21903372.7324   21903373.8474  115103024.742 7  89690689.37545
      1580.255        1231.377
  21724008.477    21724008.2804   21724010.5964  114160467.617 7  88956207.21946
       133.233         103.823
  22622395.387    22622395.0764   22622397.9234  118881516.090 6  92634976.02043
     -3891.677       -3032.464
  20770933.607    20770933.4854   20770935.1744  109152027.091 8  85053525.19047
     -1793.758       -1397.736
 08  4 19  0 40  0.0000000  0 11G 2G 4G 5G 6G13G16G20G23G29G30G31
  23509534.440    23509534.2254   23509534.3314  123543447.596 5  96267638.51842
      -799.567        -623.021
  24704863.777    24704864.0624   24704868.9334  129824935.766 5 101162312.69741
     -2916.113       -2272.283
  24252923.385    24252921.4374   24252926.1104  127449992.921 5  99311708.55141
     -4387.193       -3418.582
  24537600.495    24537601.0874   24537604.4064  128945986.418 5 100477399.14641
      3181.093        2478.785
  24503169.711    24503169.9594   24503172.9594  128765012.413 6 100336402.22541
      3216.754        2506.537
  22474819.001                                   118105996.626 7
      2710.691
  23796705.247    23796704.4904   23796707.3634  125052544.206 6  97443559.05443
     -3325.311       -2591.148
  21894402.196    21894401.6504   21894402.3874  115055879.094 7  89653952.42745
      1562.812        1217.793
  21723305.584    21723305.4964   21723307.8214  114156775.329 8  88953330.30146
       112.907          87.975
  22644639.571    22644639.2974   22644642.6164  118998410.972 6  92726063.01243
     -3901.356       -3039.983
  20781219.016    20781218.9154   20781220.5274  109206078.119 8  85095643.12547
     -1809.639       -1410.123
 08  4 19  0 40 30.0000000  0 11G 2G 4G 5G 6G13G16G20G23G29G30G31
  23514159.626    23514158.5594   23514159.7844  123567750.188 6  96286575.62842
      -820.497        -639.333
  24721553.445    24721553.5224   24721557.2004  129912638.059 6 101230652.09541
     -2930.655       -2283.612
  24277979.758    24277978.8074   24277982.6294  127581663.757 6  99414309.28942
     -4390.771       -3421.393
  24519451.405                                   128850604.449 5
      3177.632
  24484825.083    24484825.6774   24484827.8804  128668615.377 5 100261287.70941
      3209.929        2501.274
  22459371.901    22459371.0904   22459374.0034  118024827.161 7  91967397.55844
      2700.691        2104.413
  23815723.888    23815723.6714   23815727.5434  125152491.697 6  97521440.17343
     -3337.793       -2600.860
  21885530.780    21885530.5354   21885530.8134  115009262.565 7  89617627.69745
      1545.142        1204.031
  21722719.455    21722719.3524   21722721.4114  114153694.926 8  88950930.02846
        92.512          72.097
  22666939.739    22666939.9054   22666942.6804  119115599.376 6  92817378.73243
     -3911.134       -3047.645
  20791595.334    20791595.1944   20791596.6464  109260606.931 8  85138133.47447
     -1825.538       -1422.502
 08  4 19  0 41  0.0000000  0 11G 2G 4G 5G 6G13G16G20G23G29G30G31
  23518903.085    23518903.3524   23518904.5814  123592684.446 6  96306004.95942
      -841.602        -655.789
  24738325.699    24738325.2404   24738329.3794  130000775.863 6 101299330.85042
     -2944.977       -2294.777
  24303055.941    24303055.6944   24303060.2854  127713444.444 5  99516995.35242
     -4394.360       -3424.171
  24501324.377    24501322.0624   24501326.1894  128755329.262 5 100328834.81241
      3174.229        2473.458
  24466521.940    24466520.7014   24466524.0264  128572426.908 5 100186335.65841
      3202.850        2495.741
  22443983.412    22443982.7934   22443985.4994  117943959.897 7  91904384.20344
      2690.559        2096.530
  23834813.422    23834812.7624   23834817.5054  125252811.830 5  97599611.67142
     -3350.075       -2610.445
  21876762.003    21876761.4884   21876761.6354  114963181.080 7  89581720.57045
      1527.257        1190.060
  21722250.484    21722250.2054   21722252.4364  114151228.456 8  88949007.82846
        72.049          56.154
  22689295.829    22689295.5334   22689298.2144  119233080.223 7  92908922.08243
     -3920.787       -3055.146
  20802062.764    20802062.6244   20802064.0394  109315613.669 8  85180995.87247
     -1841.398       -1434.843
 08  4 19  0 41 30.0000000  0 11G 2G 4G 5G 6G13G16G20G23G29G30G31
  23523768.896    23523767.6694   23523768.4414  123618246.529 6  96325923.47842
      -862.493        -672.084
  24755179.938    24755178.8634   24755184.1294  130089343.763 5 101368344.73941
     -2959.434       -2306.034
  24328152.818    24328151.8294   24328156.6364  127845330.150 5  99619763.07142
     -4397.975       -3426.999
  24483211.192    24483212.1664   24483215.7354  128660153.727 5 100254671.70641
      3170.716        2470.716
  24448257.336    24448256.6674   24448258.4594  128476446.098 5 100111545.51441
      3195.949        2490.360
  22428652.544    22428652.0854   22428654.5124  117863395.356 7  91841606.74844
      2680.546        2088.746
  23853972.827    23853973.0404   23853976.8804  125353498.728 5  97678068.92442
     -3362.326       -2620.020
  21868093.818    21868093.4994   21868094.0724  114917631.222 7  89546227.20545
      1509.493        1176.212
  21721897.726    21721897.5524   21721899.8734  114149374.799 8  88947563.28246
        51.674          40.278
  22711707.021    22711706.6624   22711709.9174  119350847.141 6  93000687.55443
     -3930.356       -3062.613
  20812620.474    20812620.4634   20812621.9224  109371095.015 8  85224228.06547
     -1857.236       -1447.209
 08  4 19  0 42  0.0000000  0 11G 2G 4G 5G 6G13G16G20G23G29G30G31
  23528751.137    23528751.7674   23528752.2344  123644436.267 5  96346331.01442
      -883.426        -688.382
  24772114.340    24772114.1704   24772118.2634  130178338.818 5 101437691.47741
     -2973.558       -2317.054
  24353270.789    24353268.7644   24353273.7874  127977317.577 5  99722609.53941
     -4401.195       -3429.460
  24465120.033    24465120.6724   24465125.8204  128565086.386 5 100180593.61941
      3167.156        2467.935
  24430032.505    24430032.4634   24430034.3884  128380675.995 5 100036919.42241
      3188.781        2484.766
  22413379.764    22413378.8964   22413381.6994  117783135.139 7  91779066.23944
      2670.375        2080.866
  23873203.396    23873203.2334   23873206.4044  125454549.069 6  97756809.34742
     -3374.387       -2629.381
  21859527.559    21859527.0334   21859527.7714  114872616.248 7  89511150.60745
      1491.528        1162.228
  21721661.494    21721661.5194   21721663.8244  114148133.632 8  88946595.95646
        31.160          24.308
  22734171.448    22734171.6654   22734174.9104  119468900.582 6  93092677.02143
     -3939.893       -3070.026
  20823268.437    20823268.3994   20823269.5864  109427049.712 8  85267828.95247
     -1872.796       -1459.209
 08  4 19  0 42 30.0000000  0 11G 2G 4G 5G 6G13G16G20G23G29G30G31
  23533855.705    23533854.9404   23533856.5104  123671256.535 6  96367230.02542
      -904.555        -704.860
  24789131.347    24789131.4584   24789132.4004  130267761.898 5 101507371.88841
     -2987.971       -2328.314
  24378407.474                                   128109407.650 5
     -4404.665
  24447050.860    24447051.6284   24447055.9064  128470130.253 5 100106602.57741
      3163.322        2464.879
  24411849.223    24411849.8164   24411852.4524  128285122.426 5  99962462.24241
      3181.522        2479.128
  22398165.804    22398165.0634   22398167.4654  117703184.107 7  91716767.48644
      2659.908        2072.664
  23892502.837    23892501.0594   23892504.5414  125555962.699 6  97835832.87742
     -3386.355       -2638.698
  21851065.197    21851064.5874                  114828138.688 8  89476480.06043
      1473.458        1148.104
  21721542.646    21721542.6474   21721544.9294  114147508.684 8  88946108.89346
        10.570           8.236
  22756690.545    22756690.4244   22756693.7554  119587240.718 6  93184890.55643
     -3949.409       -3077.490
  20834006.878    20834006.8514   20834008.5064  109483480.912 8  85311801.32847
     -1888.944       -1471.930
 08  4 19  0 43  0.0000000  0 11G 2G 4G 5G 6G13G16G20G23G29G30G31
  23539079.064    23539077.5804   23539080.0054  123698704.299 6  96388617.87542
      -925.439        -721.127
  24806229.217    24806233.0074   24806238.2514  130357607.837 4 101577381.71041
     -3001.979       -2339.234
  24403561.208                                   128241602.261 5
     -4408.200
  24429002.121    24429001.7734   24429005.2634  128375284.490 5 100032697.48941
      3159.468        2461.923
  24393706.929    24393707.3944   24393710.1574  128189785.568 5  99888173.79641
      3174.134        2473.349
  22383010.602    22383009.8094   22383012.3384  117623541.501 7  91654707.62744
      2649.313        2064.409
  23911869.502    23911868.6904   23911870.2244  125657731.986 5  97915131.94441
     -3398.232       -2647.887
  21842704.580                                   114784203.006 8
      1455.463
  21721540.622    21721540.5954   21721543.2744  114147498.490 8  88946101.10946
        -9.987          -7.795
  22779262.818    22779263.3494   22779266.0564  119705860.731 6  93277321.68943
     -3958.833       -3084.827
  20844835.407    20844835.2954   20844836.7214  109540384.920 8  85356142.22247
     -1904.726       -1484.178
 08  4 19  0 43 30.0000000  0 11G 2G 4G 5G 6G13G16G20G23G29G30G31
  23544420.962    23544421.4754   23544423.4344  123726783.707 6  96410497.92742
      -946.511        -737.538
  24823406.713                                   130447878.763 3
     -3015.964
  24428737.369    24428737.4224   24428740.1634  128373896.465 5 100031609.82441
     -4411.443       -3437.451
  24410976.035    24410975.1734   24410978.4284  128280555.151 5  99958882.53241
      3155.647        2458.919
  24375608.587    24375608.7024   24375611.5134  128094673.186 5  99814060.29541
      3166.681        2467.567
  22367915.742    22367915.0344   22367917.4074  117544215.012 7  91592894.26644
      2638.523        2055.943
  23931305.020    23931305.0084   23931307.6374  125759862.049 5  97994712.38541
     -3410.422       -2657.410
  21834447.394    21834446.8494   21834447.8124  114740814.915 7  89408434.25245
      1437.104        1119.817
  21721656.610    21721656.3924   21721658.9234  114148107.571 8  88946575.79146
       -30.645         -23.883
  22801889.709    22801890.0204   22801892.6094  119824764.176 6  93369974.00443
     -3968.160       -3092.070
  20855754.418    20855754.3804   20855755.9364  109597764.855 8  85400853.70047
     -1920.624       -1496.590
 08  4 19  0 44  0.0000000  0 11G 2G 4G 5G 6G13G16G20G23G29G30G31
  23549885.975    23549885.0444   23549886.6124  123755492.247 6  96432868.20942
      -967.459        -753.882
  24840663.883                                   130538573.586 3
     -3030.227
  24453931.425    24453932.1764   24453936.5214  128506289.974 5 100134773.77541
     -4414.697       -3440.031
  24392972.286    24392972.8324   24392974.4424  128185944.447 5  99885160.25241
      3151.627        2455.801
  24357551.075    24357551.2664   24357554.5724  127999785.562 4  99740121.95741
      3159.177        2461.713
  22352879.492                    22352881.3584  117465208.929 7  91531327.14941
      2628.271        2047.973
  23950809.076    23950807.6164   23950812.3724  125862348.993 6  98074571.67341
     -3422.346       -2666.861
  21826295.327    21826294.9264   21826295.1344  114697973.092 7  89375051.10945
      1418.893        1105.633
  21721889.927    21721889.8514   21721892.0664  114149334.343 8  88947531.74746
       -51.145         -39.831
  22824569.542    22824569.6584   22824571.1754  119943944.448 6  93462841.24943
     -3977.281       -3099.139
  20866763.467    20866763.5384   20866765.0594  109655618.603 8  85445934.58547
     -1936.372       -1508.866
 08  4 19  0 44 30.0000000  0 10G 2G 5G 6G13G16G20G23G29G30G31
  23555468.994    23555468.1764   23555469.2574  123784828.851 6  96455727.88943
      -988.257        -770.077
  24479141.400    24479141.6584   24479148.7154  128638779.588 5 100238012.80341
     -4417.815       -3442.501
  24374989.738    24374989.2704   24374994.2624  128091452.200 5  99811529.88742
      3148.078        2453.083
  24339538.060    24339539.0664   24339540.5594  127905125.055 5  99666360.56241
      3151.725        2455.914
  22337904.555    22337903.8754   22337906.3694  117386516.316 7  91470004.58944
      2617.862        2039.890
  23970376.829    23970375.8224   23970382.4544  125965188.290 5  98154706.16142
     -3433.724       -2675.624
  21818246.298    21818245.9054   21818247.0254  114655678.998 7  89342094.57145
      1400.707        1091.444
  21722242.025    21722241.6464   21722243.9694  114151175.618 8  88948964.77046
       -71.969         -56.054
  22847301.728    22847301.4714   22847304.8724  120063400.233 6  93555923.20943
     -3986.370       -3106.267
  20877862.569    20877862.5394   20877864.0814  109713944.251 8  85491383.16947
     -1951.956       -1521.009
 08  4 19  0 45  0.0000000  0 10G 2G 5G 6G13G16G20G23G29G30G31
  23561169.178    23561168.8894   23561170.1534  123814788.584 6  96479073.14043
     -1009.065        -786.278
  24504370.861    24504370.8284   24504376.0024  128771357.551 5 100341320.52341
     -4420.819       -3444.830
  24357031.759    24357031.6974   24357035.8584  127997076.985 5  99737990.26842
      3143.836        2449.791
  24321569.513    24321567.6234   24321570.6264  127810689.679 5  99592774.63341
      3144.056        2449.912
  22322989.319    22322988.9264   22322991.3514  117308137.516 7  91408930.35844
      2607.324        2031.677
  23990013.365    23990012.3744   23990017.3884  126068371.952 6  98235109.08542
     -3445.182       -2684.522
  21810302.317    21810301.7734   21810302.4374  114613931.328 8  89309564.20245
      1382.459        1077.239
  21722709.224    21722708.7714   21722709.8564  114153634.455 8  88950881.52846
       -91.862         -71.449
  22870083.844    22870083.9474   22870087.2974  120183126.678 6  93649217.24043
     -3995.257       -3113.170
  20889050.520    20889050.4474   20889052.4104  109772734.675 8  85537193.18847
     -1967.589       -1533.211
 08  4 19  0 45 30.0000000  0 10G 2G 5G 6G13G16G20G23G29G30G31
  23566990.177    23566989.6734   23566990.1034  123845373.359 6  96502905.36143
     -1029.884        -802.500
  24529616.428    24529615.3744   24529620.8734  128904025.454 5 100444698.56441
     -4423.696       -3447.002
  24339096.651    24339094.5014   24339101.0554  127902824.755 5  99664546.67742
      3139.779        2446.627
  24303640.866    24303640.2724   24303644.1484  127716484.477 4  99519367.99041
      3136.218        2443.792
  22308135.071    22308134.2954   22308136.7734  117230076.775 7  91348103.82344
      2596.709        2023.428
  24009714.025    24009713.3614   24009717.7334  126171900.227 6  98315781.12343
     -3456.621       -2693.455
  21802462.941    21802462.4164   21802462.7754  114572732.635 7  89277460.85945
      1363.977        1062.813
  21723294.400    21723294.1424   21723297.2234  114156707.053 8  88953275.09046
      -112.775         -87.908
  22892918.498    22892918.4704   22892921.3454  120303119.377 6  93742717.50543
     -4004.246       -3120.162
  20900327.206    20900327.0824   20900328.6694  109831995.696 8  85583371.12047
     -1983.101       -1545.240
 08  4 19  0 46  0.0000000  0 10G 2G 5G 6G13G16G20G23G29G30G31
  23572929.103    23572928.6134   23572929.7694  123876584.058 6  96527225.35343
     -1050.785        -818.794
  24554880.423    24554878.8064   24554882.5024  129036780.705 5 100548144.03041
     -4426.593       -3449.333
  24321182.975    24321183.9874   24321188.2234  127808700.395 5  99591203.50441
      3135.355        2443.108
  24285758.848    24285759.0534   24285760.6124  127622513.724 5  99446144.07341
      3128.426        2437.724
  22293341.764    22293341.3414   22293343.7794  117152337.061 7  91287527.16444
      2585.951        2015.026
  24029479.359    24029478.4604   24029482.1524  126275769.430 6  98396718.36342
     -3467.957       -2702.309
  21794728.008    21794727.7204   21794728.4364  114532089.961 8  89245792.07545
      1345.588        1048.496
  21723996.564    21723996.2544   21723999.0164  114160400.362 8  88956153.88246
      -133.274        -103.843
  22915802.991    22915803.2614   22915806.6994  120423379.631 6  93836426.41643
     -4013.080       -3127.074
  20911693.442    20911693.4534   20911695.3144  109891721.511 8  85629909.44347
     -1998.701       -1557.404
 08  4 19  0 46 30.0000000  0 10G 2G 5G 6G13G16G20G23G29G30G31
  23578987.524    23578987.4914   23578988.1614  123908424.417 6  96552036.05643
     -1071.864        -835.223
  24580159.320    24580158.8814   24580163.0824  129169627.182 5 100651660.90941
     -4429.736       -3451.761
  24303297.051    24303297.2924   24303301.8094  127714708.738 5  99517963.70842
      3130.854        2439.636
  24267922.210    24267921.5844   24267925.0684  127528784.439 5  99373108.34041
      3120.268        2431.386
  22278610.946    22278610.3194   22278612.6724  117074926.216 7  91227207.27844
      2574.884        2006.395
  24049309.310    24049308.0504   24049311.8534  126379983.435 5  98477925.10842
     -3479.509       -2711.339
  21787100.365    21787100.0474   21787100.4784  114492005.741 8  89214557.70145
      1326.826        1033.900
  21724817.801    21724817.4314   21724819.6944  114164713.369 8  88959514.16446
      -154.200        -120.145
  22938739.269    22938738.9794   22938742.3634  120543911.071 6  93930347.65043
     -4022.055       -3134.076
  20923148.919    20923148.7484   20923150.7694  109951922.890 8  85676820.30447
     -2014.486       -1569.734
 08  4 19  0 47  0.0000000  0 10G 2G 5G 6G13G16G20G23G29G30G31
  23585166.068    23585165.2004   23585166.8974  123940890.769 6  96577334.57443
     -1092.607        -851.383
  24605454.787    24605454.8344   24605456.6854  129302559.852 5 100755245.11141
     -4432.437       -3453.787
  24285437.816    24285435.7334   24285440.5004  127620848.636 5  99444825.96241
      3126.583        2436.306
  24250131.164    24250131.7784   24250135.9644  127435296.346 5  99300260.56141
      3112.305        2425.162
  22263942.081    22263941.5194   22263943.7614  116997841.856 7  91167141.61244
      2564.109        1998.005
  24069204.602    24069203.6854   24069205.4574  126484533.670 6  98559393.39741
     -3490.518       -2719.902
  21779578.843    21779578.2394   21779579.0674  114452480.292 8  89183758.53845
      1308.185        1019.354
  21725756.339    21725756.2684   21725758.8054  114169647.883 8  88963359.47146
      -174.710        -136.128
  22961725.611    22961725.6934   22961728.8964  120664705.337 6  94024473.22743
     -4030.783       -3140.880
  20934693.508    20934693.4704   20934695.3574  110012590.766 8  85724094.03347
     -2029.991       -1581.818
 08  4 19  0 47 30.0000000  0 10G 2G 5G 6G13G16G20G23G29G30G31
  23591463.013    23591462.7454   23591463.7424  123973981.665 6  96603119.73143
     -1113.483        -867.655
  24630767.000    24630766.2294   24630771.2584  129435575.049 5 100858893.09341
     -4435.163       -3455.945
  24267600.974    24267600.9634   24267605.8594  127527122.960 5  99371792.88742
      3121.927        2432.663
  24232388.436    24232388.7714   24232391.5404  127342052.039 5  99227602.64741
      3104.071        2418.771
  22249335.752    22249335.2434   22249337.8074  116921084.903 7  91107330.82744
      2553.064        1989.391
  24089162.237    24089161.7004   24089165.3934  126589416.940 5  98641120.85842
     -3501.649       -2728.566
  21772164.176    21772163.7254   21772164.2654  114413515.486 7  89153396.34645
      1289.460        1004.790
  21726813.206    21726813.1164   21726815.7284  114175201.723 8  88967687.23246
      -195.485        -152.330
  22984761.783    22984761.6354   22984764.0744  120785761.008 6  94118802.84743
     -4039.521       -3147.681
  20946326.716    20946326.6764   20946328.5094  110073725.446 8  85771731.83847
     -2045.587       -1593.966
 08  4 19  0 48  0.0000000  0 10G 2G 5G 6G13G16G20G23G29G30G31
  23597878.512    23597877.8024   23597879.2774  124007696.780 6  96629391.26343
     -1134.311        -883.877
  24656096.118    24656094.2314   24656099.4514  129568670.452 5 100962603.04641
     -4437.743       -3457.884
  24249792.090    24249791.8904   24249795.9024  127433534.181 5  99298866.77642
      3117.204        2428.974
  24214691.657    24214691.0224   24214695.3314  127249053.646 5  99155136.42741
      3095.731        2412.235
  22234792.038    22234791.7484   22234793.7614  116844657.867 7  91047777.31344
      2542.030        1980.810
  24109183.860    24109182.5874   24109186.8244  126694630.191 5  98723105.30642
     -3512.608       -2737.087
  21764856.387    21764855.8854   21764856.6544  114375112.833 8  89123472.18245
      1270.636         990.100
  21727987.452    21727987.5184   21727990.2164  114181375.614 8  88972498.51846
      -216.145        -168.441
  23007846.154    23007846.7154   23007849.2034  120907073.899 6  94213332.43043
     -4048.069       -3154.336
  20958048.712    20958048.6544   20958050.4314  110135323.810 8  85819730.37347
     -2061.054       -1605.999
 08  4 19  0 48 30.0000000  0 10G 2G 5G 6G13G16G20G23G29G30G31
  23604412.467    23604411.9894   23604413.0674  124042034.677 6  96656148.09643
     -1155.011        -900.005
  24681439.185    24681437.1214   24681441.2754  129701846.139 4 101066376.18941
     -4440.472       -3460.125
  24232008.697    24232008.7894   24232013.2114  127340083.732 5  99226048.30942
      3112.604        2425.390
  24197042.412    24197041.6844   24197044.6314  127156303.501 5  99082863.58841
      3087.461        2405.826
  22220311.524    22220310.8574   22220313.4274  116768561.925 7  90988481.77744
      2530.941        1972.162
  24129267.531    24129266.7934   24129271.0444  126800170.429 5  98805344.47542
     -3523.434       -2745.510
  21757655.437    21757654.9234   21757656.0384  114337274.783 8  89093988.25445
      1251.777         975.403
  21729280.198    21729280.0664   21729282.6204  114188167.761 8  88977791.09746
      -236.800        -184.527
  23030979.969    23030979.7034   23030982.4524  121028642.234 6  94308061.06043
     -4056.602       -3160.990
  20969858.721    20969858.7924   20969860.5534  110197386.535 8  85868091.02047
     -2076.533       -1618.084
 08  4 19  0 49  0.0000000  0 10G 2G 5G 6G13G16G20G23G29G30G31
  23611066.002    23611064.9904   23611066.6674  124076996.251 6  96683390.89342
     -1175.788        -916.218
  24706796.044    24706794.2524   24706798.8764  129835101.438 5 101170211.90141
     -4443.128       -3462.186
  24214253.361    24214252.3474   24214257.0234  127246775.144 5  99153340.04442
      3107.817        2421.661
  24179438.995    24179440.3434   24179442.6964  127063806.039 5  99010787.68241
      3078.969        2399.224
  22205894.838    22205894.3214   22205896.6704  116692800.534 7  90929446.89745
      2519.695        1963.376
  24149413.685    24149412.3954   24149417.0654  126906035.868 6  98887836.79342
     -3534.329       -2754.026
  21750563.663    21750563.1264   21750563.2414  114300003.740 8  89064945.93245
      1232.847         960.662
  21730690.755    21730690.5724   21730693.1814  114195581.590 8  88983568.39346
      -257.528        -200.689
  23054162.417    23054162.3524   23054164.2874  121150464.994 6  94402987.98743
     -4065.000       -3167.554
  20981757.257    20981757.2064   20981758.8984  110259913.808 8  85916813.81847
     -2092.000       -1630.142
 08  4 19  0 49 30.0000000  0 10G 2G 5G 6G13G16G20G23G29G30G31
  23617837.039    23617836.7554   23617837.0114  124112579.436 6  96711117.96142
     -1196.394        -932.263
  24732166.767    24732165.4164   24732170.3994  129968431.437 5 101274105.90741
     -4445.511       -3464.023
  24196523.478    24196523.5394   24196528.2034  127153611.031 5  99080744.77942
      3103.083        2417.994
  24161886.391    24161886.9374   24161888.7024  126971562.633 5  98938909.71341
      3070.530        2392.604
  22191541.536    22191540.8744   22191543.5194  116617374.125 7  90870673.19145
      2508.623        1954.761
  24169619.804    24169619.6594   24169623.0824  127012223.254 5  98970580.46642
     -3544.828       -2762.210
  21743578.926    21743578.6004   21743579.1924  114263300.532 7  89036345.96345
      1213.988         945.965
  21732219.387    21732219.2284   21732221.5924  114203614.971 8  88989828.32746
      -278.070        -216.686
  23077391.945    23077392.0154   23077394.6394  121272538.299 6  94498110.05943
     -4073.192       -3173.923
  20993743.619    20993743.5804   20993745.0704  110322902.523 8  85965896.04947
     -2107.275       -1642.037
 08  4 19  0 50  0.0000000  0 11G 2G 5G 6G13G16G20G23G24G29G30G31
  23624727.176    23624726.0124   23624726.4904  124148782.156 6  96739327.76842
     -1217.087        -948.380
  24757552.807    24757551.3074   24757554.7664  130101832.622 5 101378055.03841
     -4447.936       -3465.937
  24178822.727    24178823.1454   24178828.0034  127060592.302 5  99008263.13042
      3098.202        2414.166
  24144382.278    24144382.2384   24144384.6484  126879575.110 6  98867231.09241
      3061.929        2385.901
  22177252.641    22177251.9214   22177254.3244  116542282.983 7  90812160.55645
      2497.372        1945.996
  24189887.036    24189885.6794   24189889.4544  127118726.338 5  99053569.66842
     -3555.319       -2770.345
  21736702.821    21736702.4234   21736703.4554  114227166.091 8  89008189.04045
      1194.963         931.145
  25018270.802                                   131471901.130 3
      2589.736
  21733865.820    21733865.6274   21733867.8404  114212267.226 7  88996570.51046
      -298.735        -232.782
  23100668.764    23100668.1164   23100671.6204  121394858.911 6  94593424.81043
     -4081.488       -3180.377
  21005817.273    21005817.3564   21005818.7214  110386350.754 8  86015336.29247
     -2122.615       -1653.983
 08  4 19  0 50 30.0000000  0 11G 2G 5G 6G13G16G20G23G24G29G30G31
  23631733.973    23631732.6964   23631733.7104  124185605.871 6  96768021.70542
     -1237.767        -964.507
  24782951.445    24782949.2514   24782956.5724  130235305.341 5 101482059.75041
     -4450.227       -3467.696
  24161150.714    24161150.0624   24161155.2504  126967722.461 5  98935897.25542
      3093.208        2410.289
  24126926.876    24126926.3024   24126929.9444  126787848.028 6  98795755.49841
      3053.267        2379.154
  22163027.802    22163027.0734   22163029.5104  116467531.557 7  90753912.81745
      2486.133        1937.246
  24210213.628    24210213.1064   24210217.9724  127225544.936 5  99136804.17341
     -3565.913       -2778.613
  21729936.566    21729935.7364   21729935.7634  114191604.943 7  88980479.15445
      1175.852         916.240
  25003507.422    25003508.3334   25003511.6984  131394320.790 5 102385205.99841
      2582.188        2012.092
  21735629.964    21735630.1024   21735632.3394  114221540.395 8  89003796.44246
      -319.396        -248.886
  23123993.044    23123992.8564   23123995.6474  121517425.147 6  94688930.49243
     -4089.511       -3186.608
  21017978.662    21017978.6684   21017980.0534  110450259.074 8  86065135.01347
     -2137.884       -1665.890
 08  4 19  0 51  0.0000000  0 11G 2G 5G 6G13G16G20G23G24G29G30G31
  23638857.389    23638857.1974   23638859.1244  124223046.083 6  96797195.98042
     -1258.288        -980.487
  24808362.800    24808361.7534   24808367.1494  130368843.838 5 101586115.39541
     -4452.342       -3469.342
  24143507.940    24143505.8564   24143509.4744  126875000.245 6  98863646.19242
      3088.228        2406.426
  24109520.429    24109521.1494   24109522.8114  126696380.271 5  98724481.92741
      3044.551        2372.375
  22148867.190    22148866.4814   22148868.6094  116393117.520 7  90695927.89645
      2474.841        1928.448
  24230600.448    24230599.6374   24230604.1274  127332674.450 5  99220281.95441
     -3576.089       -2786.566
  21723277.130    21723276.7514   21723277.3474  114156614.480 7  88953213.88445
      1156.822         901.421
  24988787.846    24988787.6324   24988793.2474  131316967.141 4 102324930.53341
      2574.758        2006.315
  21737512.080    21737512.2324   21737514.5074  114231430.709 8  89011503.23246
      -339.988        -264.936
  23147362.117    23147362.4544   23147365.3084  121640231.841 6  94784623.44143
     -4097.560       -3192.899
  21030226.782    21030226.7414   21030228.1624  110514623.339 8  86115289.03847
     -2153.056       -1677.708
 08  4 19  0 51 30.0000000  0 11G 2G 5G 6G13G16G20G23G24G29G30G31
  23646099.450    23646099.1374   23646100.5804  124261102.792 6  96826850.55042
     -1278.826        -996.480
  24833787.497    24833785.6424   24833792.0644  130502448.594 5 101690222.92841
     -4454.587       -3471.128
  24125890.479    24125890.6744   24125894.8884  126782429.162 5  98791512.62942
      3083.139        2402.438
  24092165.174    24092165.0624   24092167.4254  126605175.858 5  98653413.51641
      3035.768        2365.523
  22134771.059    22134770.5614   22134772.7264  116319044.380 7  90638208.75045
      2463.435        1919.555
  24251044.528    24251044.1744   24251046.5084  127440110.755 5  99303998.64941
     -3586.230       -2794.454
  21716728.379    21716727.7174   21716728.6104  114122197.806 8  88926395.52945
      1137.653         886.485
  24974111.712    24974111.0614   24974114.8214  131239844.008 4 102264834.75941
      2566.923        2000.168
  21739511.934    21739511.8914   21739513.9614  114241939.526 8  89019692.02646
      -360.584        -280.977
  23170777.762    23170777.5494   23170780.0564  121763278.993 6  94880504.31843
     -4105.548       -3199.127
  21042561.594    21042561.3804   21042562.8334  110579443.353 8  86165798.21447
     -2168.239       -1689.537
 08  4 19  0 52  0.0000000  0 11G 2G 5G 6G13G16G20G23G24G29G30G31
  23653460.263    23653459.9064   23653460.2304  124299777.097 6  96856986.40143
     -1299.346       -1012.485
  24859224.563                                   130636117.102 5
     -4456.634
  24108304.207    24108303.3044   24108308.2304  126690014.493 5  98719501.35942
      3077.952        2398.431
  24074861.118    24074861.7594   24074862.4594  126514239.383 5  98582553.85341
      3026.711        2358.479
  22120740.876    22120740.0964   22120742.3784  116245314.610 7  90580757.06945
      2451.971        1910.626
  24271547.317    24271546.5434   24271550.0564  127547852.477 5  99387953.01841
     -3596.364       -2802.382
  21710289.094    21710288.6914   21710289.0314  114088358.883 8  88900027.61545
      1118.339         871.426
  24959480.223    24959480.1574   24959483.0394  131162956.377 5 102204922.23441
      2558.998        1994.062
  21741629.722    21741629.6304   21741631.8214  114253068.474 7  89028363.92646
      -381.246        -297.079
  23194238.483    23194238.0494   23194239.9174  121886565.211 6  94976571.70743
     -4113.460       -3205.273
  21054982.955    21054982.8994   21054984.3734  110644719.625 8  86216662.92447
     -2183.402       -1701.354
 08  4 19  0 52 30.0000000  0 11G 2G 5G 6G13G16G20G23G24G29G30G31
  23660936.173    23660935.4954   23660936.7054  124339066.523 6  96887601.54043
     -1319.857       -1028.456
  24884672.820    24884671.4954   24884675.1594  130769848.603 5 101898594.83641
     -4458.760       -3474.429
  24090749.177    24090748.3584   24090751.7954  126597756.379 5  98647612.04142
      3072.661        2394.272
  24057608.251    24057607.2404   24057609.7644  126423572.036 6  98511903.92141
      3017.788        2351.515
  22106775.973    22106775.2294   22106777.1554  116171929.292 7  90523573.76845
      2440.424        1901.625
  24292108.878    24292107.9024   24292110.8604  127655895.906 6  99472142.53042
     -3606.460       -2810.206
  21703959.288    21703958.7714   21703959.2154  114055097.708 7  88874109.85445
      1099.105         856.460
  24944893.770    24944894.0094   24944900.4324  131086305.429 4 102145194.26441
      2551.100        1987.881
  21743864.966    21743865.0054   21743867.2204  114264816.339 8  89037518.26146
      -401.911        -313.174
  23217743.374    23217743.3814   23217745.4024  122010086.316 6  95072822.09543
     -4121.259       -3211.363
  21067491.089    21067490.9694   21067492.4734  110710449.671 8  86267881.14347
     -2198.544       -1713.150
 08  4 19  0 53  0.0000000  0 11G 2G 5G 6G13G16G20G23G24G29G30G31
  23668529.940    23668529.4574   23668530.9644  124378970.357 6  96918695.47343
     -1340.346       -1044.427
  24910131.764    24910130.7674   24910134.3224  130903641.511 5 102002849.72541
     -4460.684       -3475.881
  24073222.117    24073222.5914   24073226.4524  126505657.763 5  98575847.04942
      3067.254        2390.065
  24040405.947    24040406.4204   24040408.4534  126333177.150 5  98441466.35041
      3008.514        2344.300
  22092877.338    22092876.5524   22092878.5954  116098890.340 7  90466660.22645
      2428.801        1892.569
  24312725.305    24312723.7354   24312728.1074  127764238.501 6  99556565.45142
     -3616.356       -2817.936
  21697740.830    21697740.1874   21697740.8084  114022415.801 7  88848642.97545
      1079.644         841.276
  24930354.426    24930353.1404   24930358.3184  131009894.671 5 102085653.48042
      2542.972        1981.536
  21746218.389    21746218.3334   21746220.5394  114277183.077 8  89047154.70546
      -422.583        -329.280
  23241292.866    23241292.5564   23241295.8494  122133839.835 6  95169253.38843
     -4128.988       -3217.401
  21080085.227    21080085.3414   21080086.7504  110776632.998 8  86319452.52947
     -2213.652       -1724.920
 08  4 19  0 53 30.0000000  0 11G 2G 5G 6G13G16G20G23G24G29G30G31
  23676240.684    23676239.7584   23676240.6374  124419488.383 6  96950267.94343
     -1360.948       -1060.480
  24935602.149    24935602.5304   24935605.6344  131037492.687 5 102107149.73741
     -4462.788       -3477.492
  24055727.145    24055726.8724   24055731.5824  126413721.575 5  98504208.64842
      3061.715        2385.742
  24023257.139    24023256.8234   24023260.5454  126243057.796 6  98371243.50441
      2999.235        2337.069
  22079044.844    22079044.1694   22079046.4174  116026199.784 7  90410018.09945
      2417.033        1883.401
  24333397.037    24333395.8354   24333400.3734  127872877.112 5  99641219.03342
     -3626.306       -2825.702
  21691632.511    21691632.1234   21691633.0204  113990317.402 7  88823631.34745
      1060.093         826.040
  24915858.432    24915857.7174   24915864.0434  130933727.204 4 102026302.22341
      2534.601        1974.993
  21748689.583    21748689.5474   21748691.7844  114290169.144 8  89057273.64946
      -443.307        -345.431
  23264885.863    23264885.6564   23264890.0544  122257824.191 6  95265864.53943
     -4136.753       -3223.448
  21092765.656    21092765.5144   21092767.1774  110843268.211 8  86371376.00747
     -2228.848       -1736.766
 08  4 19  0 54  0.0000000  0 11G 2G 5G 6G13G16G20G23G24G29G30G31
  23684067.305    23684066.8464   23684067.9694  124460619.010 6  96982317.79243
     -1381.255       -1076.311
  24961083.901    24961084.1824   24961087.2424  131171399.899 4 102211493.28041
     -4464.532       -3478.838
  24038263.893    24038263.5104   24038267.9044  126321949.299 6  98432697.98142
      3056.273        2381.502
  24006160.786    24006160.8934   24006161.9534  126153215.987 5  98301236.90941
      2989.953        2329.817
  22065279.062    22065278.0794   22065280.5774  115953858.829 7  90353648.46445
      2405.489        1874.412
  24354125.158    24354124.6464   24354127.9914  127981807.872 5  99726100.06741
     -3635.933       -2833.200
  21685634.929    21685634.4554   21685635.1984  113958802.590 7  88799074.56145
      1040.721         810.936
  24901411.055    24901411.0944   24901416.3594  130857805.172 4 101967142.26541
      2526.564        1968.731
  21751278.683    21751278.4584   21751280.6984  114303773.800 8  89067874.56746
      -463.830        -361.416
  23288522.960    23288522.6684   23288525.9234  122382036.322 6  95362653.18343
     -4144.200       -3229.257
  21105531.630    21105531.6384   21105533.3374  110910354.460 8  86423651.04647
     -2243.736       -1748.366
 08  4 19  0 54 30.0000000  0 11G 2G 5G 6G13G16G20G23G24G29G30G31
  23692009.865    23692009.5144   23692010.9884  124502360.350 6  97014843.46243
     -1401.660       -1092.205
  24986574.822    24986574.7904   24986579.5774  131305360.044 5 102315877.96841
     -4466.322       -3480.278
  24020831.641    24020830.7594   24020835.3274  126230342.714 5  98361316.40342
      3050.658        2377.135
  23989117.520    23989117.7394   23989120.0244  126063653.913 5  98231448.33241
      2980.639        2322.564
  22051579.692    22051578.9464   22051581.4084  115881868.802 7  90297552.36545
      2393.696        1865.211
  24374910.491    24374909.1164   24374913.4024  128091026.543 5  99811205.14741
     -3645.572       -2840.730
  21679749.396    21679748.8514   21679749.0814  113927872.509 8  88774973.42645
      1021.145         795.693
  24887010.988    24887009.3604   24887016.8524  130782130.757 5 101908175.15441
      2518.156        1962.210
  21753985.571    21753985.3024   21753987.4974  114317995.409 8  89078955.64646
      -484.473        -377.482
  23312202.653    23312202.4884   23312205.6124  122506472.948 6  95459616.75943
     -4151.748       -3235.133
  21118383.170    21118383.0354   21118384.6854  110977889.327 8  86476275.65147
     -2258.728       -1760.055
 08  4 19  0 55  0.0000000  0 10G 2G 6G13G16G20G23G24G29G30G31
  23700069.349    23700067.9414   23700070.1784  124544712.068 5  97047844.71243
     -1421.910       -1107.989
  24003431.404    24003431.2444   24003435.3254  126138905.599 6  98290066.89042
      3044.967        2372.699
  23972128.267    23972127.5814   23972129.7014  125974375.352 5  98161880.56841
      2971.078        2315.123
  22037947.575    22037946.9404   22037949.0004  115810232.573 7  90241732.02345
      2381.914        1856.036
  24395748.213    24395747.3754   24395750.5844  128200533.258 6  99896535.57641
     -3655.020       -2848.042
  21673975.374    21673974.6884   21673975.3394  113897529.687 8  88751329.82245
      1001.582         780.443
  24872659.464    24872659.8674   24872663.3144  130706708.571 5 101849404.64741
      2509.735        1955.631
  21756809.902    21756809.7384   21756812.1464  114332837.394 8  89090520.67446
      -505.098        -393.587
  23335924.069    23335924.1744   23335926.9644  122631133.729 6  95556755.24043
     -4159.099       -3240.858
  21131319.927    21131319.8654   21131321.5064  111045873.057 8  86529249.99347
     -2273.648       -1771.675
 08  4 19  0 55 30.0000000  0 10G 2G 6G13G16G20G23G24G29G30G31
  23708244.103    23708243.3004   23708245.3464  124587670.786 5  97081318.25442
     -1442.165       -1123.747
  23986064.188    23986063.5004   23986067.0824  126047638.384 6  98218949.61442
      3039.332        2368.320
  23955192.749    23955192.5064   23955195.0004  125885381.418 5  98092534.49041
      2961.634        2307.785
  22024382.466    22024381.9184   22024384.4504  115738950.289 7  90186187.51745
      2370.082        1846.810
  24416641.030    24416640.4154   24416642.3764  128310320.574 6  99982083.95841
     -3664.318       -2855.312
  21668312.289    21668311.9934   21668313.1834  113867774.018 8  88728143.46945
       981.972         765.173
  24858354.631    24858355.1064   24858359.7664  130631539.585 4 101790831.48941
      2501.217        1949.016
  21759751.621    21759751.5444   21759754.0144  114348297.049 8  89102567.21146
      -525.690        -409.635
  23359688.295    23359688.0314   23359690.4534  122756012.918 6  95654063.32742
     -4166.425       -3246.556
  21144341.797    21144341.6904   21144343.2694  111114302.735 8  86582571.84247
     -2288.449       -1783.207
 08  4 19  0 56  0.0000000  0 10G 2G 6G13G16G20G23G24G29G30G31
  23716536.116    23716534.8974   23716536.7654  124631242.941 5  97115270.43342
     -1462.650       -1139.759
  23968729.931    23968728.9994   23968733.1944  125956548.626 5  98147970.72542
      3033.252        2363.566
  23938314.684    23938314.1364   23938316.6044  125796679.192 5  98023415.41341
      2951.744        2300.078
  22010886.565    22010885.8714   22010888.0644  115668028.403 7  90130923.79645
      2357.977        1837.385
  24437585.562    24437584.8764   24437589.5684  128420392.270 5 100067854.18841
     -3673.797       -2862.722
  21662763.509    21662763.0734   21662763.2444  113838612.614 8  88705420.29445
       962.063         749.661
  24844100.788    24844099.4364   24844105.1314  130556631.204 5 101732461.41741
      2492.472        1942.209
  21762811.615    21762811.5954   21762814.0414  114364378.891 8  89115098.85946
      -546.478        -425.840
  23383494.745    23383494.6004   23383497.1504  122881114.424 6  95751545.06942
     -4173.785       -3252.305
  21157449.046    21157448.9594   21157450.5404  111183182.052 8  86636244.07247
     -2303.529       -1794.958
 08  4 19  0 56 30.0000000  0 10G 2G 6G13G16G20G23G24G29G30G31
  23724944.653    23724943.4214   23724936.8784  124675424.994 6  97149696.93642
     -1482.367       -1154.859
  23951430.399    23951429.4534   23951434.4624  125865640.388 5  98077133.27042
      3027.221        2358.883
  23921490.070    23921491.6904   23921495.3354  125708273.972 5  97954527.63641
      2941.746        2292.220
  21997460.015    21997459.5094   21997461.6134  115597470.145 7  90075943.24145
      2345.878        1827.968
  24458586.096    24458584.6634   24458589.8954  128530746.842 5 100153844.94542
     -3683.048       -2869.916
  21657328.183    21657327.7124   21657328.0574  113810048.778 7  88683162.69845
       942.160         734.150
  24829896.283    24829894.8694   24829900.9024  130481988.116 4 101674298.11941
      2483.612        1935.266
  21765990.355    21765990.1354   21765992.6344  114381084.393 7  89128116.44946
      -567.215        -441.991
  23407342.184    23407342.4324   23407345.1804  123006437.841 6  95849199.83242
     -4181.063       -3257.962
  21170641.993    21170641.9784   21170643.4844  111252511.563 8  86690267.09847
     -2318.444       -1806.575
 08  4 19  0 57  0.0000000  0 10G 2G 6G13G16G20G23G24G29G30G31
  23733469.136                                   124720221.363 6
     -1503.425
  23934166.318    23934165.4364   23934170.1554  125774914.575 6  98006437.94142
      3021.111        2354.122
  23904724.704    23904725.2094   23904728.6324  125620168.016 5  97885873.80541
      2931.812        2284.515
  21984102.677    21984102.0444   21984104.1814  115527276.158 7  90021246.53745
      2333.662        1818.438
  24479637.851    24479636.6454   24479640.9794  128641378.708 5 100240051.54541
     -3692.358       -2877.194
  21652006.176    21652005.8244   21652006.6514  113782082.938 7  88661371.09645
       922.162         718.571
  24815743.623    24815742.8194   24815747.5764  130407611.643 5 101616342.45141
      2474.733        1928.381
  21769287.559    21769287.4914   21769289.7804  114398411.346 8  89141618.03246
      -587.964        -458.151
  23431233.008    23431232.8644   23431235.1714  123131978.619 6  95947023.88143
     -4188.311       -3263.619
  21183920.249    21183920.1734   21183921.6614  111322288.386 8  86744638.48547
     -2333.382       -1818.213
 08  4 19  0 57 30.0000000  0 10G 2G 6G13G16G20G23G24G29G30G31
  23742109.318    23742108.7334   23742109.2724  124765626.662 6  97219988.45242
     -1523.712       -1187.350
  23916936.411    23916936.5694   23916940.1064  125684374.205 6  97935887.06243
      3014.862        2349.251
  23888016.740    23888015.9224   23888019.9564  125532363.526 5  97817454.76341
      2921.654        2276.615
  21970815.111    21970814.5254   21970816.4774  115457448.347 7  89966835.01445
      2321.390        1808.865
  24500742.833    24500741.3774   24500746.2074  128752285.794 5 100326472.42141
     -3701.469       -2884.271
  21646799.347    21646798.7224   21646799.2024  113754716.610 8  88640046.36345
       902.132         702.963
  24801640.192    24801639.8234   24801645.9494  130333506.089 5 101558597.85541
      2465.566        1921.201
  21772703.431    21772703.0934   21772705.3254  114416360.642 8  89155604.61946
      -608.722        -474.332
  23455163.388    23455163.1014   23455166.4324  123257734.772 6  96045015.78443
     -4195.473       -3269.201
  21197283.398    21197283.4044   21197284.9054  111392512.446 8  86799358.43947
     -2348.293       -1829.833
 08  4 19  0 58  0.0000000  0 10G 2G 6G13G16G20G23G24G29G30G31
  23750865.342    23750864.5484   23750864.6374  124811641.586 6  97255844.74642
     -1544.014       -1203.160
  23899742.978    23899742.0534   23899745.9784  125594022.645 6  97865483.30442
      3008.490        2344.274
  23871366.770    23871366.6424   23871369.7294  125444864.776 5  97749274.05541
      2911.488        2268.647
  21957597.712    21957597.1284   21957599.2244  115387990.345 7  89912712.03045
      2309.075        1799.283
  24521900.323    24521900.1744   24521904.2834  128863465.931 5 100413106.17841
     -3710.440       -2891.221
  21641706.411    21641705.8484   21641706.2174  113727953.779 8  88619192.32545
       881.916         687.166
  24787591.328    24787590.7954   24787596.4134  130259674.344 5 101501066.73441
      2456.330        1914.015
  21776237.180    21776237.2154   21776239.4694  114434932.451 8  89170076.10746
      -629.482        -490.504
  23479133.336    23479133.5944   23479137.8294  123383704.762 6  96143174.18143
     -4202.614       -3274.771
  21210731.600    21210731.6204   21210733.1294  111463183.436 8  86854426.76947
     -2363.166       -1841.427
 08  4 19  0 58 30.0000000  0 10G 2G 6G13G16G20G23G24G29G30G31
  23759737.732    23759737.7394   23759737.6944  124858263.097 6  97292172.13442
     -1564.038       -1218.737
  23882586.697    23882586.2764   23882589.1694  125503864.124 6  97795229.95842
      3002.117        2339.310
  23854775.608    23854775.7254   23854778.0364  125357674.639 6  97681333.39842
      2901.400        2260.866
  21944451.252    21944450.5854   21944452.7844  115318904.394 7  89858878.72045
      2296.742        1789.674
  24543109.482    24543109.4854   24543112.5144  128974916.184 6 100499949.68841
     -3719.490       -2898.316
  21636727.903    21636727.6044   21636728.4244  113701797.648 8  88598811.39245
       861.879         671.593
  24773594.781    24773594.1484   24773599.6514  130186121.364 5 101443752.83742
      2447.181        1906.880
  21779890.283    21779890.1904   21779892.4094  114454128.110 8  89185033.48046
      -650.194        -506.647
  23503145.980    23503146.0714   23503148.7694  123509888.664 6  96241499.31942
     -4209.599       -3280.202
  21224265.006    21224264.9524   21224266.4744  111534301.722 8  86909843.63047
     -2377.963       -1852.957
 08  4 19  0 59  0.0000000  0 10G 2G 6G13G16G20G23G24G29G30G31
  23768724.786                                   124905491.095 6
     -1584.271
  23865465.883    23865465.4694   23865469.5794  125413895.722 6  97725124.77842
      2995.761        2334.369
  23838242.850    23838242.3354   23838245.5474  125270791.507 5  97613631.39142
      2890.750        2252.501
  21931374.680    21931373.9374   21931376.3824  115250187.544 7  89805332.94745
      2284.402        1780.057
  24564368.300    24564366.9444   24564372.6394  129086633.117 5 100587002.32541
     -3728.212       -2905.120
  21631865.848    21631865.3134   21631865.6674  113676242.711 8  88578898.36845
       841.792         655.959
  24759650.724    24759649.3424   24759654.1654  130112844.490 5 101386654.01941
      2437.920        1899.653
  21783660.861    21783660.8054   21783663.0834  114473943.381 8  89200474.09846
      -670.829        -522.720
  23527196.449    23527196.5894   23527200.6684  123636278.346 5  96339984.51442
     -4216.363       -3285.462
  21237882.188    21237882.1164   21237883.6624  111605860.664 8  86965603.82847
     -2392.626       -1864.383
 08  4 19  0 59 30.0000000  0 10G 2G 6G13G16G20G23G24G29G30G31
  23777826.516    23777826.0254   23777826.8484  124953323.676 6  97366245.5034
     -1604.464       -1250.258
  23848382.496    23848382.1344   23848385.9944  125324122.004 5  97655171.30943
      2989.168        2329.201
  23821768.283    23821768.1214   23821771.4434  125184223.143 5  97546176.23942
      2880.399        2244.448
  21918369.119    21918368.5764   21918371.1474  115181843.768 7  89752077.93245
      2271.869        1770.299
  24585676.615    24585675.2484   24585679.3624  129198611.805 5 100674258.64741
     -3736.942       -2911.929
  21627118.528    21627117.9424   21627118.2024  113651293.504 8  88559457.11845
       821.494         640.136
  24745759.694    24745759.8184   24745765.1404  130039848.851 5 101329774.40042
      2428.350        1892.233
  21787549.431    21787549.4624   21787551.6764  114494379.449 8  89216398.55546
      -691.570        -538.884
  23551287.247    23551287.2404   23551290.3184  123762873.804 6  96438630.17542
     -4223.357       -3290.920
  21251583.257    21251583.2614   21251584.8144  111677861.110 8  87021708.14647
     -2407.402       -1875.902
 08  4 19  1  0  0.0000000  0 10G 2G 6G13G16G20G23G24G29G30G31
  23787042.598    23787042.5144   23787044.9064  125001758.208 6  97403986.67043
     -1624.602       -1265.899
  23831336.707    23831336.0924   23831340.0844  125234545.582 6  97585371.55842
      2982.525        2324.075
  23805354.150    23805354.1704   23805357.9394  125097969.096 6  97478965.53442
      2869.851        2236.222
  21905435.340    21905434.5984   21905437.2364  115113875.513 7  89699115.86845
      2259.348        1760.533
  24607034.690    24607033.1644   24607037.8584  129310849.688 5 100761716.81241
     -3745.617       -2918.642
  21622486.248    21622485.5874   21622486.3664  113626952.736 8  88540490.26245
       801.219         624.327
  24731924.713    24731922.4624   24731927.0134  129967137.199 5 101273116.02742
      2418.968        1884.906
  21791556.545    21791556.4184   21791558.7734  114515435.521 8  89232805.83846
      -712.215        -554.988
  23575416.847    23575416.6364   23575420.2464  123889673.188 6  96537434.90742
     -4230.018       -3296.123
  21265368.368    21265368.2984   21265369.7444  111750302.208 8  87078155.81047
     -2422.025       -1887.291
 08  4 19  1  0 30.0000000  0 10G 2G 6G13G16G20G23G24G29G30G31
  23796375.599    23796374.4544   23796375.5504  125050797.912 5  97442199.28242
     -1644.669       -1281.537
  23814328.534    23814328.4374   23814332.2844  125145172.137 5  97515729.92142
      2975.801        2318.781
  23789002.145    23789002.2864   23789005.2934  125012035.926 6  97412004.55942
      2859.048        2227.815
  21892573.505    21892572.9204   21892575.3504  115046286.531 7  89646449.11945
      2246.654        1750.640
  24628442.628    24628441.8634   24628446.4654  129423346.751 5 100849376.31541
     -3754.207       -2925.341
  21617971.397    21617970.8924   21617971.3584  113603224.124 8  88522000.15646
       780.733         608.374
  24718141.436    24718140.8474   24718146.6094  129894716.028 5 101216683.75141
      2409.217        1877.308
  21795681.838    21795681.8884   21795683.9454  114537115.382 8  89249699.45246
      -732.983        -571.150
  23599585.081    23599585.2064   23599587.4554  124016677.290 6  96636399.25542
     -4236.834       -3301.435
  21279237.571    21279237.5464   21279239.1784  111823185.651 8  87134948.00447
     -2436.761       -1898.771
 08  4 19  1  1  0.0000000  0 10G 2G 6G13G16G20G23G24G29G30G31
  23805821.640    23805820.9094   23805823.3154  125100440.339 5  97480881.31242
     -1664.745       -1297.199
  23797362.163    23797361.1014   23797364.1134  125056003.526 6  97446247.92542
      2968.959        2313.475
  23772711.768    23772711.5234   23772714.6084  124926426.310 6  97345295.51842
      2848.267        2219.415
  21879784.497    21879783.7534   21879786.0234  114979078.851 8  89594079.60945
      2233.964        1740.750
  24649900.005    24649899.1584   24649902.9994  129536098.861 5 100937234.29442
     -3762.462       -2931.769
  21613572.416    21613571.7794   21613573.1264  113580110.342 8  88503989.58145
       760.280         592.414
  24704417.177    24704415.1274   24704420.5584  129822587.599 5 101160479.97841
      2399.438        1869.667
  21799926.024    21799925.7984   21799927.8944  114559417.045 8  89267077.24346
      -753.672        -587.277
  23623790.816    23623791.3184   23623794.7434  124143883.280 6  96735521.01242
     -4243.443       -3306.582
  21293190.746    21293190.8484   21293192.4354  111896509.963 8  87192083.79647
     -2451.424       -1910.200
 08  4 19  1  1 30.0000000  0 10G 2G 6G13G16G20G23G24G29G30G31
  23815382.223    23815382.6284   23815384.1044  125150683.808 5  97520031.94842
     -1684.799       -1312.818
  23780432.208    23780432.1034   23780435.4284  124967040.693 6  97376926.34143
      2962.006        2308.064
  23756481.619    23756482.5364   23756484.7734  124841142.783 6  97278841.25642
      2837.375        2210.922
  21867067.529    21867066.9264   21867068.9394  114912251.663 8  89542006.39445
      2221.207        1730.808
  24671403.914    24671403.5334   24671408.2124  129649103.195 6 101025289.03942
     -3771.012       -2938.450
  21609290.991    21609290.2204   21609290.9534  113557609.624 8  88486456.61946
       739.822         576.491
  24690746.227    24690745.3124   24690749.1404  129750753.391 5 101104505.20041
      2389.548        1861.936
  21804287.705    21804287.6854   21804289.9104  114582339.456 8  89284938.89546
      -774.391        -603.417
  23648034.422    23648034.9704   23648039.6724  124271286.334 5  96834795.84642
     -4250.081       -3311.760
  21307227.465    21307227.3834   21307228.9424  111970272.526 8  87249561.13947
     -2466.009       -1921.566
 08  4 19  1  2  0.0000000  0 10G 2G 6G13G16G20G23G24G29G30G31
  23825058.391    23825057.5164   23825059.3004  125201526.587 6  97559649.65342
     -1704.610       -1328.254
  23763542.460    23763542.5014   23763546.1944  124878286.019 6  97307766.89143
      2955.081        2302.670
  23740314.875    23740314.9104   23740318.5384  124756186.986 6  97212642.29742
      2826.431        2202.396
  21854423.673    21854423.0754   21854425.0784  114845807.799 7  89490231.99945
      2208.476        1720.881
  24692955.351    24692954.8694   24692959.6954  129762358.204 6 101113540.20742
     -3779.228       -2944.897
  21605126.336    21605125.7334   21605125.9974  113535724.164 8  88469402.92345
       719.323         560.515
  24677133.620    24677132.6824   24677137.8894  129679215.729 5 101048761.61241
      2379.702        1854.327
  21808767.678    21808767.6174   21808769.8944  114605882.074 8  89303283.85146
      -795.022        -619.504
  23672316.772    23672316.5414   23672320.0184  124398885.165 6  96934223.46542
     -4256.438       -3316.715
  21321346.979    21321347.1114   21321348.6194  112044471.595 8  87307378.53347
     -2480.494       -1932.850
 08  4 19  1  2 30.0000000  0 10G 2G 6G13G16G20G23G24G29G30G31
  23834847.023    23834846.9924   23834847.3334  125252968.741 6  97599734.63742
     -1724.679       -1343.887
  23746693.931    23746693.0984   23746696.8334  124789742.781 6  97238772.17943
      2947.867        2297.044
  23724211.534    23724211.5034   23724213.9984  124671561.849 6  97146700.84942
      2815.216        2193.694
  21841853.075    21841852.4874   21841854.6044  114779749.055 8  89438757.72045
      2195.493        1710.786
  24714552.910    24714551.1814   24714556.5584  129875859.459 5 101201983.30141
     -3787.463       -2951.315
  21601078.987    21601078.6564   21601079.1404  113514456.317 8  88452830.58346
       698.571         544.333
  24663577.924    24663577.7054   24663581.9534  129607978.658 5 100993252.14541
      2369.603        1846.465
  21813365.807    21813365.5814   21813367.8364  114630045.274 8  89322112.47546
      -815.792        -635.677
  23696634.531    23696633.8754   23696637.5594  124526677.928 6  97033802.04442
     -4262.912       -3321.727
  21335549.800    21335549.8524   21335551.2234  112119107.144 8  87365536.16047
     -2495.125       -1944.256
 08  4 19  1  3  0.0000000  0 10G 2G 6G13G16G20G23G24G29G30G31
  23844750.413    23844748.9604   23844750.3534  125305008.113 6  97640285.08643
     -1744.517       -1359.351
  23729884.763    23729884.1814   23729888.1164  124701413.086 6  97169943.71243
      2940.837        2291.556
  23708171.232    23708171.5404   23708174.3774  124587270.350 6  97081019.19742
      2804.132        2185.079
  21829355.725    21829355.4104   21829357.8074  114714076.933 7  89387584.53345
      2182.619        1700.752
  24736197.567    24736196.2564   24736200.6104  129989603.174 4 101290615.05641
     -3795.484       -2957.559
  21597149.990    21597149.5094   21597149.8974  113493807.721 8  88436740.94646
       677.963         528.279
  24650079.365    24650079.2784   24650083.4334  129537044.990 5 100937979.03741
      2359.338        1838.456
  21818081.966    21818081.6984   21818083.8014  114654828.131 8  89341423.76446
      -836.408        -651.739
  23720989.948    23720989.8454   23720992.5754  124654662.721 6  97133530.45142
     -4269.284       -3326.729
  21349835.200    21349835.1614   21349836.7114  112194177.797 8  87424032.82047
     -2509.577       -1955.514
 08  4 19  1  3 30.0000000  0 10G 2G 6G13G16G20G23G24G29G30G31
  23854765.727    23854765.1024   23854766.6314  125357643.063 6  97681299.56143
     -1764.410       -1374.865
  23713117.644    23713117.0454   23713120.7634  124613299.775 6  97101283.93843
      2933.408        2285.752
  23692195.650    23692195.6014   23692198.2464  124503314.981 6  97015599.00542
      2792.869        2176.305
  21816933.384    21816932.4694   21816935.1974  114648793.532 8  89336714.24445
      2169.623        1690.628
  24757887.821    24757887.5654   24757890.9374  130103586.691 5 101379433.49941
     -3803.292       -2963.583
  21593338.221    21593337.6614   21593338.4064  113473779.208 8  88421134.36145
       657.322         512.205
  24636639.703    24636639.4744   24636643.0034  129466417.814 5 100882944.90441
      2349.097        1830.479
  21822915.738    21822915.5644   21822917.6944  114680230.213 7  89361217.48046
      -857.049        -667.825
  23745380.528    23745380.0774   23745383.8634  124782837.354 6  97233407.00142
     -4275.616       -3331.665
  21364203.237    21364203.1134   21364204.7384  112269681.865 8  87482867.03547
     -2523.985       -1966.732
 08  4 19  1  4  0.0000000  0 10G 2G 6G13G16G20G23G24G29G30G31
  23864895.002    23864894.5524   23864895.9244  125410872.992 6  97722777.50443
     -1784.128       -1390.239
  23696391.361    23696390.9944   23696395.2274  124525406.036 6  97032795.27543
      2926.198        2280.153
  23676283.912    23676284.1254   23676287.0214  124419701.874 6  96950446.18842
      2781.498        2167.436
  21804584.841    21804584.1854   21804586.3964  114583901.618 8  89286149.04545
      2156.564        1680.435
  24779624.063    24779623.5194   24779627.3124  130217807.883 5 101468437.02742
     -3811.178       -2969.760
  21589645.555    21589644.9874   21589645.3544  113454373.152 8  88406012.71845
       636.518         495.985
  24623259.151    24623258.4304   24623260.4254  129396100.637 5 100828152.34541
      2338.716        1822.371
  21827867.749    21827867.4944   21827869.7454  114706252.290 8  89381494.28046
      -877.714        -683.935
  23769806.407    23769806.4344   23769809.5524  124911200.033 6  97333429.91442
     -4281.876       -3336.534
  21378653.835    21378653.7044   21378655.2844  112345619.286 8  87542038.91146
     -2538.408       -1977.980
 08  4 19  1  4 30.0000000  0 10G 2G 6G13G16G20G23G24G29G30G31
  23875136.515    23875136.4864   23875136.9614  125464692.345 6  97764714.62442
     -1803.846       -1405.596
  23679707.450    23679707.0504   23679711.0634  124437730.168 6  96964476.43143
      2918.797        2274.389
  23660437.207    23660437.4914   23660440.4624  124336427.404 5  96885557.02642
      2770.131        2158.531
  21792310.420    21792309.7954   21792312.1024  114519398.017 7  89235886.35245
      2143.552        1670.295
  24801402.981    24801402.2264   24801406.2254  130332260.084 5 101557620.77942
     -3818.955       -2975.819
  21586070.598    21586070.0484   21586070.6534  113435587.518 8  88391374.60745
       615.795         479.839
  24609936.420    24609935.0274   24609940.0344  129326091.985 5 100773600.18142
      2328.351        1814.285
  21832936.675    21832936.4294   21832938.6574  114732889.644 7  89402250.60546
      -898.193        -699.881
  23794267.840    23794267.6024   23794270.7774  125039744.011 5  97433594.08442
     -4287.818       -3341.150
  21393185.380    21393185.4494   21393187.2214  112421984.313 8  87601543.96546
     -2552.640       -1989.057
 08  4 19  1  5  0.0000000  0 10G 2G 6G13G16G20G23G24G29G30G31
  23885489.992    23885489.7564   23885490.9394  125519102.055 6  97807111.76642
     -1823.567       -1420.967
  23663065.977    23663064.9514   23663069.6974  124350276.864 6  96896331.16643
      2911.299        2268.545
  23644656.118    23644656.2014   23644658.9574  124253497.464 6  96820936.60442
      2758.460        2149.460
  21780110.340    21780109.7934   21780112.0414  114455287.486 8  89185930.28445
      2130.386        1660.036
  24823226.641    24823226.4044   24823228.0724  130446940.950 5 101646982.33241
     -3826.604       -2981.764
  21582614.160    21582613.8704   21582614.4614  113417425.356 8  88377222.34446
       594.921         463.579
  24596673.058    24596673.0094   24596677.8564  129256396.953 5 100719292.55642
      2317.987        1806.231
  21838122.458    21838122.6204   21838124.8844  114760143.563 8  89423487.38646
      -918.814        -715.956
  23818763.013    23818764.0534   23818766.4354  125168469.624 5  97533899.81942
     -4293.850       -3345.864
  21407798.963    21407798.9024   21407800.6414  112498778.351 8  87661383.48147
     -2567.029       -2000.290
 08  4 19  1  5 30.0000000  0 10G 2G 6G13G16G20G23G24G29G30G31
  23895957.410    23895955.9184   23895956.9434  125574103.900 5  97849970.31642
     -1843.165       -1436.231
  23646466.900    23646466.4354   23646470.6304  124263051.662 6  96828363.60043
      2903.709        2262.621
  23628941.823    23628941.4894   23628943.5284  124170917.774 6  96756589.03442
      2746.863        2140.394
  21767986.131    21767985.6004   21767987.5974  114391574.291 8  89136283.72145
      2117.176        1649.747
  24845092.375    24845090.7804   24845096.4364  130561852.083 4 101736523.56641
     -3834.088       -2987.581
  21579277.767    21579277.2004   21579277.8844  113399891.164 8  88363559.35746
       574.033         447.302
  24583471.994    24583470.8504   24583474.7964  129187021.547 5 100665233.97241
      2307.217        1797.812
  21843426.839    21843426.7414   21843429.3704  114788017.130 7  89445207.00746
      -939.391        -731.988
  23843293.707    23843294.1514   23843297.5814  125297377.468 6  97634347.39142
     -4299.897       -3350.562
  21422494.416    21422494.2744   21422495.9234  112576003.315 8  87721558.95646
     -2581.244       -2011.350
 08  4 19  1  6  0.0000000  0 10G 2G 6G13G16G20G23G24G29G30G31
  23906535.138    23906535.5934   23906535.5644  125629695.260 5  97893288.21942
     -1862.788       -1451.500
  23629912.833    23629912.2884   23629916.3314  124176055.712 6  96760574.62943
      2896.089        2256.689
  23613293.106    23613293.5474   23613296.5734  124088689.470 6  96692515.12242
      2735.177        2131.311
  21755937.582    21755936.9824   21755939.0224  114328259.195 8  89086947.42846
      2103.939        1639.432
  24867002.874    24867002.0014   24867005.6274  130676988.672 5 101826240.23641
     -3841.544       -2993.391
  21576060.461    21576059.9844   21576060.9304  113382985.251 8  88350385.90846
       553.131         431.007
  24570330.802    24570330.2954   24570336.1904  129117967.580 5 100611425.73241
      2296.485        1789.473
  21848849.138    21848848.5854   21848851.0514  114816508.483 8  89467408.04846
      -959.943        -748.008
  23867858.568    23867858.7384   23867861.8374  125426464.695 6  97734934.75642
     -4305.758       -3355.152
  21437271.201    21437271.1354   21437272.7754  112653656.133 8  87782067.61346
     -2595.469       -2022.441
 08  4 19  1  6 30.0000000  0 10G 2G 6G13G16G20G23G24G29G30G31
  23917225.281    23917224.8014   23917226.6004  125685872.728 5  97937062.56842
     -1882.196       -1466.632
  23613401.474    23613401.0564   23613404.6304  124089289.967 6  96692964.97443
      2888.414        2250.722
  23597713.515    23597713.4394   23597716.5404  124006814.235 6  96628716.17942
      2723.448        2122.186
  21743964.752    21743963.9384   21743965.9674  114265341.759 8  89037920.91045
      2090.676        1629.095
  24888953.545    24888954.0224   24888956.9514  130792345.694 5 101916128.63341
     -3848.753       -2998.996
  21572963.329    21572962.7354   21572963.1744  113366707.365 8  88337701.83946
       532.192         414.693
  24557250.711    24557252.1374   24557257.1874  129049236.159 5 100557868.85041
      2285.704        1781.083
  21854387.834    21854387.5394   21854389.9614  114845614.941 7  89490088.15146
      -980.338        -763.890
  23892456.202    23892456.5194   23892459.7464  125555726.953 6  97835658.55342
     -4311.538       -3359.625
  21452128.867    21452128.9504   21452130.4544  112731734.507 8  87842907.98246
     -2609.584       -2033.441
 08  4 19  1  7  0.0000000  0 10G 2G 6G13G16G20G23G24G29G30G31
  23928028.011    23928026.1954   23928028.8994  125742634.766 5  97981292.61042
     -1901.717       -1481.844
  23596933.428    23596933.4814   23596937.9944  124002756.164 6  96625536.15143
      2880.634        2244.650
  23582200.481    23582200.5084   23582203.7294  123925294.221 6  96565194.01742
      2711.421        2112.804
  21732067.695    21732066.9474   21732069.2334  114202823.309 8  88989205.29045
      2077.316        1618.687
  24910948.032    24910946.8554   24910951.9334  130907920.288 5 102006186.62741
     -3856.066       -3004.716
  21569985.075    21569984.6464   21569985.0894  113351058.596 8  88325508.11046
       511.172         398.310
  24544235.223    24544233.7954   24544238.4454  128980829.692 5 100504565.26141
      2274.771        1772.529
  21860043.210    21860043.0524   21860045.7684  114875336.336 7  89513247.90446
     -1000.878        -779.911
  23917086.840    23917086.6644   23917089.0374  125685161.702 6  97936516.82042
     -4317.311       -3364.139
  21467067.228    21467067.3064   21467068.7884  112810236.393 8  87904078.39946
     -2623.724       -2044.468
 08  4 19  1  7 30.0000000  0 10G 2G 6G13G16G20G23G24G29G30G31
  23938939.873    23938938.8684   23938941.1244  125799980.572 5  98025977.58042
     -1921.341       -1497.155
  23580512.086    23580512.0184   23580515.6484  123916457.597 6  96558290.63743
      2872.676        2238.440
  23566756.827    23566756.7184   23566759.2254  123844133.799 6  96501952.24742
      2699.300        2103.335
  21720247.224    21720246.3554   21720248.6324  114140706.438 8  88940802.61745
      2063.836        1608.183
  24932982.002    24932981.3634   24932986.1204  131023710.630 5 102096412.94941
     -3863.314       -3010.402
  21567127.399    21567126.8314   21567127.4034  113336040.421 8  88313805.66946
       490.043         381.854
  24531279.704    24531277.9014   24531284.1154  128912751.695 5 100451517.61841
      2263.743        1763.970
  21865815.854    21865815.7314   21865818.4584  114905671.760 7  89536885.81946
     -1021.477        -795.960
  23941750.818    23941749.1174   23941751.7564  125814767.510 6  98037508.35642
     -4323.027       -3368.587
  21482085.931    21482085.9154   21482087.6174  112889160.844 8  87965578.01846
     -2637.873       -2055.486
 08  4 19  1  8  0.0000000  0 10G 2G 6G13G16G20G23G24G29G30G31
  23949964.391    23949962.4054   23949964.6634  125857909.787 5  98071117.22242
     -1940.716       -1512.252
  23564136.234    23564135.3954   23564138.8784  123830398.257 6  96491231.54443
      2864.646        2232.192
  23551381.631    23551381.7834   23551383.5784  123763336.446 6  96438993.34342
      2687.143        2093.872
  21708503.475    21708503.0264   21708505.0444  114078993.730 8  88892714.77246
      2050.310        1597.642
  24955056.615    24955054.8434   24955060.0724  131139714.211 5 102186805.44141
     -3870.291       -3015.806
  21564390.155    21564389.5924   21564390.0474  113321655.874 8  88302596.96646
       468.908         365.383
  24518388.554    24518387.6484   24518392.6594  128845006.256 5 100398729.07442
      2252.593        1755.275
  21871705.623    21871705.5404   21871708.0664  114936622.785 7  89561003.65446
     -1041.948        -811.911
  23966445.390    23966445.0444   23966448.8064  125944543.589 5  98138632.60541
     -4328.727       -3373.036
  21497185.333    21497185.1794   21497186.8914  112968508.048 8  88027407.01146
     -2651.929       -2066.438
 08  4 19  1  8 30.0000000  0 10G 2G 6G13G16G20G23G24G29G30G31
  23961097.585    23961097.0424   23961099.0854  125916419.075 6  98116708.85543
     -1959.928       -1527.217
  23547805.153    23547803.8444   23547808.2394  123744578.732 6  96424359.25643
      2856.629        2225.938
  23536074.717    23536074.6374   23536077.6074  123682903.471 5  96376318.35242
      2675.013        2084.430
  21696837.110    21696836.6004   21696838.6404  114017685.834 8  88844942.41146
      2036.877        1587.187
  24977171.239    24977169.2614   24977174.2884  131255925.485 4 102277359.22341
     -3877.116       -3021.130
  21561773.072    21561772.5894   21561773.1244  113307904.535 8  88291881.64846
       447.868         348.994
  24505559.350    24505558.9734   24505563.3994  128777594.681 5 100346200.63941
      2241.527        1746.650
  21877711.729    21877711.7344   21877714.3894  114968186.509 7  89585598.84346
     -1062.273        -827.742
  23991173.445    23991173.3764   23991176.3574  126074486.211 6  98239886.58042
     -4334.080       -3377.229
  21512364.360    21512364.2744   21512366.1104  113048275.299 8  88089563.31046
     -2665.858       -2077.291
 08  4 19  1  9  0.0000000  0 10G 2G 6G13G16G20G23G24G29G30G31
  23972340.854    23972340.5044   23972342.3214  125975503.346 6  98162748.46443
     -1979.153       -1542.194
  23531519.060    23531519.0124   23531522.2484  123658997.923 6  96357672.96343
      2848.584        2219.675
  23520838.588    23520838.2804   23520841.5594  123602834.058 6  96313926.63242
      2662.856        2074.943
  21685247.672    21685246.8884   21685248.8834  113956780.574 8  88797483.74746
      2023.390        1576.671
  24999324.681    24999323.3934   24999328.5164  131372339.256 5 102368070.92341
     -3883.935       -3026.456
  21559276.630    21559276.1334   21559276.4714  113294784.066 8  88281657.86046
       426.758         332.543
  24492796.103    24492795.6134   24492799.3404  128710516.182 5 100293931.70741
      2230.266        1737.885
  21883833.853    21883833.9334   21883836.5804  115000358.945 7  89610668.28146
     -1082.614        -843.596
  24015930.780    24015930.6484   24015933.5804  126204589.399 6  98341265.73642
     -4339.506       -3381.433
  21527622.515    21527622.4984   21527624.3684  113128457.485 8  88152042.89146
     -2679.673       -2088.056
 08  4 19  1  9 30.0000000  0 10G 2G 6G13G16G20G23G24G29G30G31
  23983694.828    23983693.5754   23983695.8244  126035163.751 6  98209236.95343
     -1998.283       -1557.117
  23515280.337    23515279.7254   23515282.7924  123573661.311 6  96291176.93643
      2840.585        2213.444
  23505672.368    23505671.7634   23505675.5264  123523134.235 6  96251822.95342
      2650.562        2065.360
  21673735.267    21673734.3934   21673736.6144  113896282.198 8  88750342.08146
      2009.903        1566.159
  25021515.868    25021514.9014   25021519.9824  131488956.036 5 102458941.38342
     -3890.436       -3031.505
  21556900.455    21556900.1244   21556900.6564  113282298.696 8  88271928.93946
       405.662         316.097
  24480094.898    24480094.0174   24480098.0284  128643776.342 5 100241926.70942
      2219.147        1729.234
  21890072.481    21890072.4224   21890074.9654  115033141.947 8  89636213.42046
     -1102.848        -859.360
  24040719.567    24040719.1554   24040722.6004  126334853.698 5  98442770.41842
     -4344.693       -3385.470
  21542959.894    21542959.8834   21542961.7274  113209056.188 8  88214847.09046
     -2693.486       -2098.823
 08  4 19  1 10  0.0000000  0 10G 2G 6G13G16G20G23G24G29G30G31
  23995156.498    23995155.9944   23995157.1754  126095398.697 6  98256173.51843
     -2017.472       -1572.070
  23499088.098    23499087.1434   23499090.9784  123488570.442 6  96224872.42143
      2832.120        2206.850
  23490576.608    23490576.9104   23490579.1514  123443805.684 6  96190008.47242
      2638.009        2055.587
  21662300.088    21662299.5424   21662301.3814  113836191.677 8  88703518.23746
      1996.089        1555.391
  25043744.871    25043744.0364   25043748.0734  131605769.954 4 102549964.81841
     -3897.200       -3036.744
  21554645.513    21554645.1954   21554645.6444  113270448.870 8  88262695.38046
       384.302         299.455
  24467459.563    24467459.3804   24467462.7594  128577377.265 5 100190187.16741
      2207.450        1720.084
  21896426.996    21896426.7904   21896429.3044  115066534.174 8  89662233.31446
     -1123.300        -875.295
  24065538.254    24065537.9544   24065540.8224  126465276.319 5  98544398.45242
     -4350.054       -3389.654
  21558376.356    21558376.3284   21558377.8954  113290069.331 8  88277974.24446
     -2707.424       -2109.681
 08  4 19  1 10 30.0000000  0 10G 2G 6G13G16G20G23G24G29G30G31
  24006728.318    24006727.8194   24006729.5074  126156207.683 6  98303557.29142
     -2036.507       -1586.900
  23482943.100    23482942.8154   23482946.7074  123403729.856 6  96158762.93343
      2823.822        2200.364
  23475552.171    23475552.1714   23475554.6444  123364853.562 6  96128487.28242
      2625.448        2045.807
  21650943.579    21650942.8244   21650944.8074  113776513.352 8  88657015.82046
      1982.401        1544.724
  25066011.259    25066010.3314   25066015.8404  131722781.277 5 102641142.26841
     -3903.619       -3041.748
  21552512.446    21552511.7994   21552512.1544  113259238.121 8  88253959.78746
       363.062         282.905
  24454889.916    24454889.3814   24454894.6064  128511324.190 5 100138717.28641
      2195.956        1711.161
  21902897.237    21902897.3584   21902900.0184  115100537.205 8  89688729.19946
     -1143.612        -891.129
  24090385.713    24090386.5364   24090388.0484  126595857.336 5  98646149.86842
     -4355.353       -3393.795
  21573871.742    21573871.6384   21573873.1994  113371497.671 8  88341424.90646
     -2721.198       -2120.412
 08  4 19  1 11  0.0000000  0 10G 2G 6G13G16G20G23G24G29G30G31
  24018406.650    24018407.0894   24018408.8714  126217588.977 5  98351387.00442
     -2055.449       -1601.669
  23466846.742    23466846.2534   23466849.9094  123319141.758 6  96092850.19643
      2815.421        2193.828
  23460600.655    23460600.6074   23460603.3314  123286280.647 6  96067261.79142
      2612.809        2035.954
  21639665.662    21639664.9194   21639667.2144  113717247.659 8  88610834.70646
      1968.665        1534.030
  25088314.270    25088314.0394   25088318.7404  131839986.586 5 102732471.05941
     -3910.005       -3046.789
  21550500.310    21550500.0784   21550500.6044  113248666.857 8  88245722.48246
       341.726         266.280
  24442386.708    24442386.8104   24442390.5424  128445619.141 5 100087518.50241
      2184.376        1702.114
  21909483.997    21909483.8334   21909486.5214  115135149.707 8  89715700.01346
     -1163.893        -906.928
  24115264.516    24115264.6614   24115269.0214  126726594.203 5  98748022.72741
     -4360.459       -3397.743
  21589446.048    21589445.7204   21589447.0814  113453339.296 8  88405197.57946
     -2734.892       -2131.081
 08  4 19  1 11 30.0000000  0 10G 2G 6G13G16G20G23G24G29G30G31
  24030196.311    24030195.7514   24030197.0504  126279537.687 5  98399658.81441
     -2074.293       -1616.376
  23450797.353    23450797.0654   23450801.0774  123234805.465 6  96027133.65343
      2806.992        2187.262
  23445720.291    23445720.2494   23445723.1084  123208085.807 6  96006330.62642
      2600.174        2026.100
  21628465.964    21628465.4144   21628467.6014  113658393.650 8  88564974.46546
      1954.965        1523.345
  25110654.706    25110654.2934   25110656.3774  131957379.580 5 102823946.19641
     -3916.128       -3051.508
  21548610.412    21548609.8654   21548610.3624  113238733.122 8  88237981.95046
       320.523         249.752
  24429948.480    24429947.9464   24429954.1244  128380262.212 5 100036591.15241
      2172.819        1693.115
  21916185.933    21916185.7184   21916188.2224  115170367.779 8  89743142.68846
     -1184.008        -922.605
  24140173.132    24140172.5584   24140173.9274  126857481.164 5  98850012.59542
     -4365.348       -3401.550
  21605097.396    21605097.4674   21605098.9844  113535590.012 8  88469289.04846
     -2748.460       -2141.656
 08  4 19  1 12  0.0000000  0 10G 2G 6G13G16G20G23G24G29G30G31
  24042090.968    24042090.4534   24042092.6214  126342052.112 5  98448371.45841
     -2093.190       -1631.051
  23434797.958    23434797.2274   23434800.6074  123150723.262 6  95961615.08543
      2798.460        2180.624
  23430913.957    23430913.3094   23430916.2484  123130272.906 6  95945697.32542
      2587.360        2016.132
  21617345.120    21617344.6334   21617346.5834  113599952.568 8  88519435.98746
      1941.115        1512.561
  25133028.099    25133026.1874   25133032.1334  132074957.082 5 102915564.93741
     -3922.304       -3056.347
  21546840.970    21546840.6074   21546841.6774  113229438.128 8  88230739.12546
       299.164         233.116
  24417579.795    24417578.8714   24417583.7834  128315255.974 5  99985937.00541
      2161.033        1683.908
  21923002.615    21923002.6754   21923005.1024  115206190.815 8  89771056.80346
     -1204.166        -938.314
  24165107.391    24165107.1364   24165110.9844  126988516.816 5  98952118.31342
     -4370.261       -3405.400
  21620826.889    21620826.8094   21620828.2504  113618248.347 8  88533698.12746
     -2762.059       -2152.253
 08  4 19  1 12 30.0000000  0 10G 2G 6G13G16G20G23G24G29G30G31
  24054095.793    24054094.9334   24054096.0914  126405129.407 5  98497522.58441
     -2111.910       -1645.633
  23418845.484    23418845.5174   23418848.7064  123066896.954 6  95896295.92043
      2789.961        2173.981
  23416178.537    23416178.9294   23416181.5904  123052843.567 6  95885362.80242
      2574.621        2006.201
  21606303.117    21606302.5124   21606304.3334  113541925.470 8  88474220.07246
      1927.368        1501.847
  25155437.033    25155436.0474   25155441.0424  132192716.260 5 103007325.36141
     -3928.280       -3060.957
  21545194.498    21545193.8744   21545194.6774  113220782.406 8  88223994.42246
       277.906         216.551
  24405276.435    24405275.0984   24405281.2554  128250602.552 5  99935557.82441
      2149.309        1674.785
  21929934.535    21929934.3594   21929936.8574  115242617.061 8  89799440.84446
     -1224.218        -953.935
  24190070.522    24190070.7374   24190073.5114  127119697.877 6  99054337.26942
     -4375.074       -3409.135
  21636633.316    21636633.2934   21636634.8914  113701312.365 8  88598423.36646
     -2775.505       -2162.729
 08  4 19  1 13  0.0000000  0 11G 2G 6G13G16G20G23G24G25G29G30G31
  24066205.443    24066205.3424   24066205.9934  126468767.702 5  98547110.96041
     -2130.472       -1660.105
  23402943.597    23402943.0184   23402946.3384  122983328.112 6  95831177.39343
      2781.406        2167.322
  23401517.036    23401517.5964   23401520.5164  122975799.899 6  95825328.89342
      2561.778        1996.179
  21595339.648    21595339.1684   21595341.2084  113484313.111 8  88429327.34746
      1913.592        1491.111
  25177880.164    25177878.4824   25177883.0774  132310652.748 4 103099224.18441
     -3934.025       -3065.501
  21543668.855    21543668.2554   21543668.8954  113212765.765 8  88217747.66446
       256.649         199.989
  24393041.210    24393040.4824   24393044.9964  128186303.800 5  99885455.01942
      2137.378        1665.501
  25364269.087    25364267.9534   25364273.8864  133290130.573 5 103862462.3404
      3009.715        2345.240
  21936980.836    21936980.5334   21936982.9514  115279644.803 8  89828293.64046
     -1244.187        -969.495
  24215059.675    24215059.3934   24215063.5024  127251021.571 5  99156667.38942
     -4379.717       -3412.764
  21652516.422    21652516.5224   21652518.0454  113784779.662 8  88663462.84646
     -2788.854       -2173.132
 08  4 19  1 13 30.0000000  0 11G 2G 6G13G16G20G23G24G25G29G30G31
  24078422.115    24078421.6334   24078423.1214  126532964.859 6  98597134.73942
     -2149.239       -1674.735
  23387090.022    23387089.7894   23387093.2234  122900019.151 6  95766261.35243
      2772.564        2160.443
  23386930.979    23386931.0674   23386933.0144  122899144.691 6  95765597.80942
      2548.622        1985.935
  21584455.725    21584455.0614   21584457.3994  113427116.868 8  88384758.86246
      1899.563        1480.180
  25200354.930    25200354.8044   25200358.0134  132428763.285 5 103191258.68341
     -3939.962       -3070.110
  21542265.238    21542264.6684   21542265.3354  113205389.786 8  88212000.14446
       235.147         183.230
  24380874.230    24380872.5464   24380876.2954  128122362.135 6  99835630.37542
      2125.375        1656.131
  25347094.725    25347095.6124   25347098.5454  133199881.026 5 103792138.07441
      3007.119        2343.219
  21944141.219    21944140.9244   21944143.3854  115317273.058 8  89857614.37046
     -1264.290        -985.159
  24240076.104    24240075.7574   24240079.3464  127382485.426 5  99259106.70042
     -4384.450       -3416.446
  21668476.295    21668476.2694   21668477.8574  113868648.623 8  88728815.25246
     -2802.334       -2183.638
 08  4 19  1 14  0.0000000  0 11G 2G 6G13G16G20G23G24G25G29G30G31
  24090743.833    24090743.7024   24090745.9744  126597719.303 6  98647592.58243
     -2167.737       -1689.131
  23371286.789    23371286.4684   23371289.2654  122816973.134 6  95701550.21643
      2763.836        2153.633
  23372418.224    23372418.4344   23372420.7294  122822881.214 6  95706171.81842
      2535.528        1975.730
  21573651.182    21573650.4874   21573652.7974  113370339.281 8  88340516.66246
      1885.653        1469.338
  25222863.526    25222861.9974   25222866.2154  132547045.153 5 103283426.55841
     -3945.499       -3074.439
  21540983.961    21540983.3574   21540984.0764  113198655.750 8  88206752.83746
       213.823         166.618
  24368774.317    24368773.8914   24368778.1354  128058781.320 5  99786086.89142
      2113.403        1646.794
  25329934.305    25329934.8564   25329938.6144  133109706.346 5 103721871.64641
      3004.476        2341.186
  21951415.479    21951415.5924   21951418.0904  115355501.776 7  89887402.99946
     -1284.259       -1000.724
  24265120.091    24265120.0784   24265122.7364  127514088.037 5  99361654.12941
     -4389.017       -3420.014
  21684512.449    21684512.3154   21684513.9164  113952918.926 8  88794480.41046
     -2815.642       -2194.005
 08  4 19  1 14 30.0000000  0 11G 2G 6G13G16G20G23G24G25G29G30G31
  24103173.319    24103172.5624   24103173.6854  126663028.925 6  98698482.96443
     -2186.260       -1703.569
  23355533.751    23355533.6914   23355537.1114  122734191.933 6  95637045.43343
      2754.938        2146.697
  23357980.338    23357980.2014   23357982.9674  122747012.347 6  95647053.42842
      2522.343        1965.438
  21562926.389    21562925.6484   21562927.9204  113313980.909 7  88296601.11746
      1871.606        1458.390
  25245403.565    25245403.2094   25245407.2564  132665494.903 5 103375725.02641
     -3951.064       -3078.751
  21539824.223    21539823.8924   21539824.3794  113192564.124 8  88202006.11146
       192.335         149.867
  24356743.838    24356744.4654   24356747.8944  127995563.913 5  99736826.62642
      2101.077        1637.191
  25312790.775    25312789.0014   25312792.9764  133019610.128 5 103651667.15941
      3001.975        2339.164
  21958804.332    21958804.2394   21958806.6774  115394329.428 8  89917658.30246
     -1304.233       -1016.286
  24290188.104    24290188.4974   24290192.2894  127645827.079 5  99464307.92441
     -4393.611       -3423.588
  21700624.514    21700624.4684   21700626.0634  114037588.653 8  88860456.85146
     -2828.948       -2204.374
 08  4 19  1 15  0.0000000  0 11G 2G 6G13G16G20G23G24G25G29G30G31
  24115706.302    24115705.2614   24115707.0054  126728892.113 6  98749805.16843
     -2204.582       -1717.864
  23339832.276    23339831.5184   23339835.1854  122651677.031 6  95572748.13643
      2746.020        2139.762
  23343618.703    23343618.3354   23343620.2184  122671539.125 6  95588243.33242
      2509.135        1955.157
  21552281.494    21552280.8714   21552283.2074  113258042.472 8  88253012.71646
      1857.616        1447.499
  25267975.355    25267975.6234   25267978.1784  132784108.873 5 103468151.61041
     -3956.516       -3082.989
  21538787.448    21538786.9754   21538787.5304  113187115.103 8  88197760.16146
       170.908         133.177
  24344783.939    24344783.1724   24344788.1524  127932711.290 5  99687850.62142
      2088.918        1627.738
  25295659.946    25295659.7314   25295664.5744  132929591.453 4 103581523.12941
      2999.379        2337.177
  21966306.492    21966306.3494   21966309.0454  115433754.081 8  89948378.80946
     -1324.072       -1031.741
  24315283.945    24315283.7944   24315285.8954  127777699.171 6  99567065.46741
     -4397.920       -3426.944
  21716812.032    21716812.0804   21716813.7124  114122654.911 8  88926742.23346
     -2842.101       -2214.623
 08  4 19  1 15 30.0000000  0 11G 2G 6G13G16G20G23G24G25G29G30G31
  24128344.821    24128344.2284   24128345.4874  126795310.053 6  98801559.53943
     -2223.081       -1732.272
  23324182.436    23324181.6564   23324185.0534  122569435.042 6  95508663.48943
      2736.808        2132.579
  23329332.993    23329333.0444   23329335.5544  122596468.595 6  95529746.87043
      2495.661        1944.672
  21541718.087    21541717.3534   21541719.6294  113202529.860 8  88209756.12546
      1843.344        1436.375
  25290577.277    25290575.6494   25290578.5504  132902888.486 4 103560707.17041
     -3962.210       -3087.465
  21537873.876    21537873.3854   21537874.2814  113182314.048 8  88194019.10646
       149.254         116.302
  24332893.778    24332893.9624   24332896.1324  127870230.563 5  99639164.37042
      2076.510        1618.048
  25278544.183    25278544.5554   25278548.2894  132839655.716 5 103511443.33341
      2996.477        2334.906
  21973923.046    21973922.8624   21973925.3604  115473778.888 7  89979566.93946
     -1344.125       -1047.369
  24340404.115    24340403.7084   24340406.9854  127909706.944 5  99669928.63341
     -4402.501       -3430.494
  21733075.880    21733075.7244   21733077.1334  114208120.688 8  88993338.91446
     -2855.470       -2225.039
 08  4 19  1 16  0.0000000  0 11G 2G 6G13G16G20G23G24G25G29G30G31
  24141088.367    24141087.4764   24141088.9344  126862277.725 6  98853742.21442
     -2241.405       -1746.543
  23308584.071    23308583.1484   23308586.5394  122487465.530 6  95444791.18743
      2727.738        2125.504
  23315124.324    23315124.0434   23315125.9524  122521800.604 6  95471564.00442
      2482.175        1934.166
  21531235.164    21531234.4314   21531236.5884  113147441.497 8  88166830.11546
      1829.178        1425.335
  25313211.862    25313211.6714   25313212.4004  133021827.066 4 103653386.62941
     -3967.271       -3091.424
  21537083.080    21537082.5734   21537083.4384  113178158.560 8  88190781.06446
       127.735          99.539
  24321074.803    24321074.7154   24321078.3284  127808121.241 5  99590767.45341
      2064.089        1608.397
  25261446.997    25261446.4584   25261449.1474  132749802.906 5 103441428.55441
      2993.707        2332.748
  21981653.003    21981652.8814   21981655.3844  115514400.044 8  90011219.77646
     -1363.978       -1062.836
  24365548.275    24365548.8284   24365552.3824  128041844.565 5  99772892.93242
     -4406.683       -3433.779
  21749414.575    21749414.5644   21749415.9854  114293981.534 8  89060243.46546
     -2868.620       -2235.287
 08  4 19  1 16 30.0000000  0 11G 2G 6G13G16G20G23G24G25G29G30G31
  23854144.523    23854143.6684   23854145.2844  125354377.243 5  97678754.78542
     -2259.643       -1760.740
  22993244.832    22993243.9194   22993247.7714  120830349.376 6  94153531.87943
      2718.538        2118.346
  23001199.201    23001199.5034   23001201.7744  120872117.278 6  94186096.48342
      2468.628        1923.604
  21221040.824    21221040.0504   21221042.1274  111517358.880 8  86896635.87146
      1814.955        1414.254
  25036083.050    25036081.4924   25036086.7264  131565507.551 6 102518592.40241
     -3972.418       -3095.392
  21236623.288    21236622.7054   21236623.1384  111599230.808 8  86960447.76146
       106.190          82.746
  24009531.808    24009533.1054   24009538.7764  126170965.719 5  98315061.91741
      2051.477        1598.547
  24944571.622    24944571.6464   24944575.6724  131084611.885 5 102143877.43641
      2990.860        2330.506
  21689704.349    21689704.1574   21689706.6614  113980199.201 7  88815738.60546
     -1383.788       -1078.275
  24090927.302    24090927.4064   24090929.0244  126598696.089 5  98648361.62041
     -4410.945       -3437.115
  21466036.599    21466036.6454   21466038.0604  112804820.191 8  87899857.99446
     -2881.707       -2245.487
 08  4 19  1 17  0.0000000  0 10G 2G 6G13G16G23G24G25G29G30G31
  23867095.462    23867095.1904   23867097.5784  125422440.820 5  97731791.31642
     -2277.986       -1775.052
  22977751.629    22977751.2424   22977754.5104  120748932.988 6  94090090.56343
      2709.132        2111.011
  22987145.983    22987145.7864   22987148.4294  120798264.488 6  94128548.90243
      2454.874        1912.889
  21210720.248    21210719.5304   21210721.8654  111463125.041 8  86854375.72746
      1800.569        1403.043
  21236078.866    21236078.3544   21236079.0454  111596370.596 8  86958219.01846
        84.479          65.831
  23997859.446    23997858.1104   23997862.6044  126109608.979 5  98267251.54041
      2038.784        1588.662
  24927505.971    24927503.7694   24927508.0154  130994929.090 5 102073994.95441
      2987.911        2328.236
  21697660.752    21697660.6824   21697663.0644  114022010.824 7  88848319.09746
     -1403.693       -1093.784
  24116120.232    24116119.8004   24116124.4224  126731088.807 5  98751524.69441
     -4415.159       -3440.388
  21482524.873    21482524.9944   21482526.6904  112891468.086 8  87967375.84546
     -2894.907       -2255.772
 08  4 19  1 17 30.0000000  0 10G 2G 6G13G16G23G24G25G29G30G31
  23880151.606    23880151.7304   23880152.6294  125491050.602 5  97785253.49141
     -2296.004       -1789.090
  22962312.612    22962311.9344   22962314.9974  120667797.958 6  94026868.45443
      2699.869        2103.793
  22973171.142    22973170.8434   22973173.6784  120724824.846 6  94071323.27743
      2441.179        1902.220
  21200481.906    21200481.1934   21200483.3664  111409322.088 8  86812451.35546
      1786.314        1391.932
  21235658.229    21235657.9434   21235658.5274  111594160.570 8  86956496.92946
        62.888          49.004
  23986256.457    23986255.1314   23986260.0204  126048633.895 6  98219738.50242
      2026.146        1578.818
  24910456.407    24910455.9054   24910459.7644  130905334.824 5 102004181.14741
      2985.052        2325.995
  21705730.295    21705730.3674   21705732.7124  114064417.681 7  88881363.41346
     -1423.376       -1109.131
  24141338.563    24141339.0164   24141340.9994  126863607.334 6  98854785.87742
     -4419.314       -3443.617
  21499088.429    21499088.4824   21499089.8454  112978508.597 8  88035199.63046
     -2907.789       -2265.807
 08  4 19  1 18  0.0000000  0 10G 2G 6G13G16G23G24G25G29G30G31
  23893311.262    23893311.2154   23893311.9724  125560203.546 5  97839138.93141
     -2314.204       -1803.256
  22946926.362    22946926.0724   22946930.0834  120586945.906 6  93963866.93244
      2690.253        2096.299
  22959274.253    22959274.4894   22959276.7764  120651799.592 6  94014420.43243
      2427.143        1891.275
  21190325.310    21190324.7554   21190327.1474  111355950.362 8  86770862.98746
      1771.770        1380.593
  21235361.307    21235360.9234   21235361.6844  111592600.587 8  86955281.34546
        41.077          32.005
  23974724.852    23974723.9224   23974728.3314  125988041.703 5  98172523.80342
      2013.258        1568.771
  24893423.354    24893422.8924   24893427.7474  130815829.614 5 101934436.35541
      2981.831        2323.484
  21713912.941    21713912.9164   21713915.2464  114107417.775 7  88914870.01746
     -1443.279       -1124.636
  24166579.143    24166579.3824   24166582.0644  126996248.554 6  98958142.61641
     -4423.520       -3446.911
  21515725.864    21515725.9194   21515727.3784  113065939.180 8  88103327.33846
     -2920.931       -2276.048
 08  4 19  1 18 30.0000000  0 10G 2G 6G13G16G23G24G25G29G30G31
  23906574.377    23906573.7284   23906574.5674  125629901.923 5  97893449.35641
     -2332.311       -1817.388
  22931596.119    22931596.0054   22931599.1454  120506383.134 6  93901090.68044
      2680.569        2088.762
  22945458.585    22945458.5564   22945460.8874  120579196.174 6  93957846.26443
      2413.113        1880.331
  21180252.225    21180251.6914   21180254.0224  111303015.956 8  86729615.46946
      1757.188        1369.233
  21235189.191    21235188.5874   21235189.5524  111591695.859 8  86954576.34146
        19.230          14.980
  23963269.323    23963268.1774   23963273.5084  125927839.842 6  98125613.33342
      2000.198        1558.598
  24876409.592    24876410.1564   24876413.4744  130726421.807 5 101864768.37841
      2978.646        2320.991
  21722209.043    21722209.1144   21722211.3624  114151014.135 8  88948841.18646
     -1463.120       -1140.094
  24191842.857    24191843.8714   24191846.1594  127129014.380 5  99061596.50241
     -4427.588       -3450.078
  21532438.362    21532438.1934   21532439.6464  113153763.062 8  88171761.55746
     -2933.996       -2286.233
 08  4 19  1 19  0.0000000  0 10G 2G 6G13G16G23G24G25G29G30G31
  23919941.385    23919940.6434   23919940.5004  125700144.288 5  97948183.68241
     -2350.427       -1831.508
  22916321.305    22916320.7834   22916324.5084  120426112.847 6  93838542.46444
      2670.825        2081.164
  22931723.731    22931723.8924   22931726.3494  120507018.035 6  93901603.60643
      2398.877        1869.231
  21170262.967    21170262.1334   21170264.3224  111250520.432 8  86688709.89346
      1742.550        1357.832
  21235141.886    21235141.6204   21235142.3234  111591447.448 8  86954382.70346
        -2.644          -2.063
  23951888.394    23951887.9414   23951891.9334  125868031.114 5  98079009.19142
      1987.088        1548.372
  24859414.444    24859414.7554   24859417.6224  130637111.996 5 101795176.96841
      2975.300        2318.418
  21730618.585    21730618.5134   21730620.8664  114195205.816 7  88983276.25946
     -1482.931       -1155.529
  24217131.257    24217131.2504   24217134.4774  127261903.451 5  99165146.38641
     -4431.706       -3453.273
  21549225.065    21549225.1344   21549226.6624  113241978.662 8  88240501.00446
     -2947.005       -2296.371
 08  4 19  1 19 30.0000000  0 10G 2G 6G13G16G23G24G25G29G30G31
  23933410.451    23933409.3154   23933411.3264  125770926.725 5  98003338.85742
     -2368.385       -1845.503
  22901101.908    22901101.1904   22901105.1294  120346135.034 6  93776222.10144
      2661.070        2073.562
  22918069.867    22918069.4984   22918071.8324  120435265.515 6  93845692.63443
      2384.638        1858.168
  21160356.418    21160355.8144   21160358.0454  111198462.820 8  86648145.56546
      1727.926        1346.430
  21235219.240    21235218.9104   21235219.5774  111591853.599 8  86954699.11246
       -24.442         -19.043
  23940581.706    23940581.0784   23940585.6794  125808616.106 6  98032711.82542
      1973.882        1538.090
  24842437.668    24842437.5774   24842441.1194  130547898.699 5 101725660.36341
      2972.200        2316.010
  21739140.796    21739140.6734   21739142.9214  114239989.542 8  89018172.68046
     -1502.613       -1170.866
  24242440.764    24242440.6024   24242446.0984  127394911.220 5  99268788.71141
     -4435.589       -3456.282
  21566085.963    21566085.7594   21566087.3404  113330582.518 8  88309542.98946
     -2959.879       -2306.397
 08  4 19  1 20  0.0000000  0 10G 2G 6G13G16G23G24G25G29G30G31
  23946982.905    23946982.2014   23946983.4434  125842247.933 5  98058913.80142
     -2386.364       -1859.505
  22885938.767    22885938.4524   22885941.5234  120266453.047 6  93714132.21944
      2651.031        2065.742
  22904496.763    22904497.1394   22904499.7624  120363942.335 6  93790116.14343
      2370.225        1846.918
  21150534.151    21150533.5564   21150535.7054  111146845.949 8  86607924.63846
      1713.147        1334.922
  21235421.629    21235421.2474   21235422.0264  111592916.612 8  86955527.37746
       -46.440         -36.183
  23929349.159    23929350.0894   23929354.3204  125749598.785 5  97986724.33442
      1960.486        1527.653
  24825478.330    24825479.6374   24825482.6224  130458785.450 4 101656221.68941
      2968.752        2313.321
  21747775.576    21747775.4074   21747777.7054  114285365.433 7  89053530.51046
     -1522.433       -1186.309
  24267775.552    24267775.6304   24267778.5784  127528037.189 5  99372523.16141
     -4439.540       -3459.378
  21583020.340    21583020.2304   21583021.9294  113419574.213 8  88378887.17346
     -2972.904       -2316.542
 08  4 19  1 20 30.0000000  0 10G 2G 6G13G16G23G24G25G29G30G31
  23960657.478    23960656.3654   23960658.5474  125914108.678 5  98114909.20442
     -2404.317       -1873.496
  22870833.545    22870832.7614   22870836.4484  120187072.078 6  93652276.96144
      2640.997        2057.913
  22891007.840    22891007.4284   22891009.9534  120293053.959 6  93734878.49743
      2355.655        1835.570
  21140796.320    21140795.8464   21140797.8934  111095673.771 8  86568050.21946
      1698.332        1323.374
  21235749.574    21235749.1324   21235749.9124  111594639.732 8  86956870.04246
       -68.397         -53.295
  23918195.935    23918195.6344   23918199.6654  125690983.845 5  97941050.39042
      1947.201        1517.289
  24808541.568    24808541.3864   24808544.6694  130369779.030 5 101586865.78241
      2965.203        2310.562
  21756523.128    21756522.9404   21756525.4444  114331334.693 7  89089350.72546
     -1542.146       -1201.673
  24293130.095    24293130.5234   24293134.2054  127661281.523 5  99476349.86042
     -4443.404       -3462.371
  21600028.802    21600028.8634   21600030.4174  113508954.619 8  88448534.20646
     -2985.790       -2326.591
 08  4 19  1 21  0.0000000  0 10G 2G 6G13G16G23G24G25G29G30G31
  23974434.636    23974433.6124   23974434.7004  125986504.565 6  98171321.61542
     -2422.006       -1887.290
  22855784.762    22855784.2784   22855787.6904  120107992.403 6  93590656.55444
      2631.026        2050.148
  22877600.822    22877600.6614   22877602.4354  120222600.966 6  93679980.03943
      2341.203        1824.311
  21131143.282    21131142.6304   21131144.7624  111044945.745 8  86528521.91646
      1683.556        1311.859
  21236202.897    21236202.3304   21236202.9654  111597021.416 8  86958725.94546
       -90.338         -70.399
  23907119.530    23907119.0804   23907122.5154  125632772.311 5  97895690.78442
      1933.663        1506.725
  24791623.724    24791622.8884   24791626.6754  130280873.582 5 101517588.92641
      2961.805        2307.890
  21765383.292    21765382.9854   21765385.3374  114377894.319 8  89125630.95646
     -1561.757       -1216.957
  24318507.830    24318507.6754   24318511.9204  127794640.270 5  99580265.68142
     -4447.197       -3465.341
  21617110.812    21617110.5604   21617112.3524  113598720.385 8  88518481.57446
     -2998.554       -2336.537
 08  4 19  1 21 30.0000000  0 10G 2G 6G13G16G23G24G25G29G30G31
  23988310.845    23988310.3504   23988312.0424  126059431.530 5  98228147.73742
     -2439.776       -1901.123
  22840793.993    22840793.3534   22840796.9394  120029214.312 7  93529271.07044
      2620.868        2042.234
  22864277.572    22864277.6054   22864278.9874  120152584.225 7  93625421.52143
      2326.574        1812.915
  21121574.343    21121573.8244   21121576.0094  110994661.319 8  86489339.28846
      1668.732        1300.310
  21236781.191    21236780.6454   21236781.0794  111600060.648 8  86961094.27446
      -112.280         -87.493
  23896118.541    23896118.0384   23896122.9814  125574964.585 5  97850645.83642
      1920.184        1496.258
  24774725.057    24774724.1314   24774728.6744  130192071.844 5 101448392.78641
      2958.310        2305.204
  21774355.169    21774354.7554   21774357.1454  114425041.001 8  89162368.61446
     -1581.349       -1232.220
  24343906.355    24343906.1954   24343910.5714  127928109.183 5  99684267.38841
     -4450.853       -3468.174
  21634265.159    21634265.1964   21634266.8994  113688868.147 8  88588726.59346
     -3011.284       -2346.455
 08  4 19  1 22  0.0000000  0 10G 2G 6G13G16G23G24G25G29G30G31
  24002290.830    24002289.9314   24002291.2204  126132889.083 5  98285387.31442
     -2457.448       -1914.894
  22825861.172    22825860.4854   22825864.1484  119950741.652 6  93468123.51844
      2610.621        2034.251
  22851036.831    22851036.8984   22851039.2454  120083007.868 6  93571206.16043
      2311.825        1801.420
  21112090.511    21112089.9854   21112092.1044  110944823.350 8  86450504.51546
      1653.786        1288.662
  21237485.010    21237484.4844   21237484.9994  111603759.491 8  86963976.64446
      -134.287        -104.644
  23885195.962    23885194.8634   23885199.2594  125517564.983 5  97805918.92342
      1906.458        1485.545
  24757846.085    24757845.9364   24757848.3604  130103377.058 5 101379280.03741
      2954.735        2302.389
  21783438.209    21783438.2294   21783440.6614  114472774.954 7  89199563.92846
     -1600.916       -1247.465
  24369326.301    24369324.9324   24369329.5614  128061687.945 5  99788354.60741
     -4454.531       -3471.074
  21651492.288    21651492.2884   21651493.8914  113779397.587 8  88659269.00946
     -3023.979       -2356.342
 08  4 19  1 22 30.0000000  0 10G 2G 6G13G16G23G24G25G29G30G31
  24016368.810    24016369.0214   24016370.1454  126206874.296 5  98343038.10342
     -2474.979       -1928.550
  22810986.426    22810986.1254   22810989.7414  119872575.714 6  93407214.94544
      2600.384        2026.277
  22837880.814    22837881.2604   22837883.2434  120013873.797 6  93517335.36643
      2297.074        1789.936
  21102691.796    21102691.1694   21102693.3184  110895432.339 8  86412018.01646
      1638.910        1277.075
  21238314.200    21238313.6864   21238314.0364  111608117.326 8  86967372.48846
      -156.255        -121.758
  23874351.680    23874350.1894   23874355.4304  125460575.123 5  97761511.29942
      1892.872        1474.969
  24740990.025    24740988.6154   24740992.1104  130014789.864 5 101310251.12641
      2951.261        2299.670
  21792633.041    21792633.0034   21792635.3604  114521094.040 7  89237215.15046
     -1620.344       -1262.604
  24394764.339    24394763.7874   24394766.1814  128195373.403 5  99892525.12641
     -4457.854       -3473.633
  21668791.551    21668791.5184   21668793.3654  113870306.249 8  88730106.90346
     -3036.598       -2366.178
 08  4 19  1 23  0.0000000  0 10G 2G 6G13G16G23G24G25G29G30G31
  24030547.977    24030547.6094   24030548.9604  126281384.448 5  98401097.92842
     -2492.352       -1942.085
  22796170.927    22796170.7244   22796173.4134  119794718.301 6  93346546.78244
      2590.118        2018.275
  22824810.344    22824810.0994   22824812.8284  119945184.430 6  93463811.33943
      2282.276        1778.399
  21093378.031    21093377.5534   21093379.5694  110846489.203 8  86373880.49546
      1624.000        1265.455
  21239268.899    21239268.4084   21239268.4874  111613134.309 8  86971281.90846
      -178.174        -138.835
  23863586.831    23863585.4824   23863588.1984  125403997.186 6  97717424.62942
      1879.104        1464.246
  24724152.244    24724152.0244   24724156.0834  129926311.435 5 101241306.92141
      2947.474        2296.742
  21801938.852    21801938.8034   21801941.2114  114569996.141 7  89275320.68746
     -1639.723       -1277.706
  24420224.260    24420224.8464   24420228.0714  128329163.035 5  99996776.75841
     -4461.294       -3476.340
  21686162.784    21686162.8044   21686164.4604  113961592.222 8  88801238.84046
     -3049.090       -2375.910
 08  4 19  1 23 30.0000000  0 10G 2G 6G13G16G23G24G25G29G30G31
  24044826.503    24044825.8274   24044827.7164  126356418.265 5  98459565.81142
     -2509.887       -1955.766
  22781414.317    22781414.1954   22781416.9854  119717173.010 6  93286121.88944
      2579.541        2010.030
  22811824.616    22811824.1434   22811826.5064  119876942.889 6  93410636.14743
      2267.110        1766.580
  21084150.240    21084149.6274   21084151.7184  110797996.123 8  86336093.70246
      1608.848        1253.647
  21240349.371    21240348.7384   21240348.9444  111618811.720 8  86975705.91946
      -200.339        -156.107
  23852897.425    23852896.9384   23852900.9474  125347834.441 5  97673661.46442
      1865.097        1453.327
  24707335.400    24707336.0494   24707339.7824  129837944.255 5 101172449.36441
      2943.670        2293.760
  21811355.743    21811355.4034   21811357.8294  114619481.282 8  89313880.53846
     -1659.296       -1292.957
  24445704.200    24445704.0344   24445706.5234  128463055.970 6 100101108.85441
     -4464.923       -3479.149
  21703605.609    21703605.4734   21703607.4134  114053254.911 8  88872664.31146
     -3061.762       -2385.788
 08  4 19  1 24  0.0000000  0 10G 2G 6G13G16G23G24G25G29G30G31
  24059204.800    24059203.6774   24059205.0444  126431976.316 5  98518442.21042
     -2527.237       -1969.289
  22766718.344    22766717.9214   22766721.4924  119639944.672 6  93225943.85844
      2569.031        2001.841
  22798924.374    22798924.3364   22798926.5574  119809155.018 6  93357814.42143
      2252.024        1754.811
  21075008.726    21075007.9844   21075010.0104  110749957.368 8  86298660.85646
      1593.746        1241.877
  21241555.943    21241555.4034   21241555.8974  111625153.259 8  86980647.44946
      -222.413        -173.319
  23842288.858    23842289.0204   23842293.2884  125292092.375 5  97630226.13442
      1851.083        1442.411
  24690542.689    24690541.3864   24690545.8054  129749693.243 5 101103682.37741
      2939.792        2290.755
  21820883.391    21820883.4164   21820885.8194  114669551.110 7  89352896.01246
     -1678.656       -1308.047
  24471202.428    24471201.9064   24471205.4604  128597052.664 5 100205521.86742
     -4468.226       -3481.718
  21721120.723    21721120.4484   21721122.0654  114145295.383 8  88944384.15746
     -3074.250       -2395.523
 08  4 19  1 24 30.0000000  0 10G 2G 6G13G16G23G24G25G29G30G31
  24073681.988    24073681.3834   24073682.2724  126508056.085 5  98577725.11842
     -2544.682       -1982.856
  22752083.223    22752082.7484   22752086.0324  119563035.325 6  93166014.42244
      2558.277        1993.462
  22786111.107    22786111.1664   22786113.9704  119741822.799 6  93305347.76642
      2236.747        1742.901
  21065953.831    21065953.2684   21065955.3924  110702373.966 8  86261582.86546
      1578.468        1229.979
  21242888.948    21242888.2954   21242888.7114  111632158.947 8  86986106.56246
      -244.617        -190.628
  23831762.845    23831762.3144   23831767.9724  125236772.929 5  97587120.17042
      1836.829        1431.289
  24673771.160    24673771.4564   24673774.6834  129661559.601 5 101035006.89141
      2935.691        2287.538
  21830522.318    21830522.3294   21830524.5954  114720203.654 7  89392365.55646
     -1698.105       -1323.191
  24496719.725    24496719.9794   24496723.1444  128731150.723 5 100310013.75741
     -4471.558       -3484.325
  21738706.921    21738706.7804   21738708.2944  114237711.787 8  89016396.93846
     -3086.808       -2405.306
 08  4 19  1 25  0.0000000  0 10G 2G 6G13G16G23G24G25G29G30G31
  24088257.709    24088257.0084   24088258.5284  126584654.401 5  98637412.08742
     -2561.886       -1996.266
  22737508.821    22737508.2374   22737511.8504  119486446.685 6  93106335.01544
      2547.612        1985.141
  22773385.966    22773385.8854   22773388.3894  119674948.426 6  93253237.86143
      2221.465        1731.006
  21056985.633    21056985.1924   21056987.3754  110655246.039 8  86224859.71146
      1563.285        1218.148
  21244348.401    21244347.5884   21244348.0754  111639828.010 8  86992082.50146
      -266.726        -207.839
  23821317.348    23821316.8094   23821320.6164  125181877.963 6  97544344.91042
      1822.696        1420.294
  24657022.613    24657021.7974   24657025.9324  129573543.961 5 100966423.29741
      2931.872        2284.568
  21840272.065    21840271.5834   21840274.1224  114771436.517 8  89432287.28046
     -1717.467       -1338.297
  24522257.343    24522257.2364   24522260.0254  128865347.449 5 100414582.59141
     -4474.850       -3486.897
  21756364.321    21756364.0844   21756365.6074  114330501.750 8  89088700.81046
     -3099.250       -2415.001
 08  4 19  1 25 30.0000000  0 10G 2G 6G13G16G23G24G25G29G30G31
  24102933.046    24102932.4994   24102933.5974  126661770.506 5  98697502.54341
     -2579.087       -2009.665
  22722995.787    22722995.6124   22722999.2104  119410182.198 6  93046908.20144
      2536.772        1976.702
  22760748.253    22760747.8404   22760750.6924  119608535.566 6  93201487.50043
      2206.113        1719.057
  21048104.963    21048104.3824   21048106.5974  110608576.668 8  86188493.91746
      1548.018        1206.243
  21245934.151    21245933.6054   21245934.1004  111648162.392 8  86998576.85246
      -288.880        -225.099
  23810951.545    23810951.1774   23810955.9344  125127411.300 6  97501903.37442
      1808.373        1409.130
  24640297.734    24640295.9204   24640299.7824  129485649.557 5 100897934.17141
      2927.668        2281.309
  21850131.466    21850131.2154   21850133.6824  114823249.726 7  89472661.18146
     -1736.733       -1353.296
  24547811.480    24547811.8654   24547815.6774  128999642.089 5 100519227.71741
     -4478.132       -3489.469
  21774092.444    21774092.5404   21774093.9224  114423664.725 8  89161295.32246
     -3111.573       -2424.603
 08  4 19  1 26  0.0000000  0 10G 2G 6G13G16G23G24G25G29G30G31
  24117705.587    24117704.9474   24117706.1094  126739400.736 5  98757993.62142
     -2596.189       -2023.017
  22708545.251    22708544.7124   22708547.9704  119334242.628 7  92987734.56844
      2525.876        1968.212
  22748198.690    22748198.1844   22748200.6554  119542585.305 6  93150097.49443
      2190.507        1706.882
  21039311.574    21039310.7544   21039312.8864  110562365.991 8  86152485.67546
      1532.679        1194.292
  21247646.585    21247646.0324   21247646.5134  111657161.249 8  87005588.97246
      -311.044        -242.376
  23800668.613    23800667.9844   23800672.4664  125073373.943 5  97459796.40142
      1794.029        1397.950
  24623594.438    24623594.1184   24623597.5614  129397876.701 5 100829539.82241
      2923.875        2278.336
  21860100.816    21860100.8244   21860103.3534  114875640.592 7  89513485.26846
     -1755.974       -1368.292
  24573387.103    24573386.1554   24573388.1444  129134031.463 5 100623946.55241
     -4481.269       -3491.874
  21791891.328    21791891.5124   21791892.8074  114517197.982 8  89234178.37146
     -3123.936       -2434.235
 08  4 19  1 26 30.0000000  0 10G 2G 6G13G16G23G24G25G29G30G31
  24132575.010    24132574.5634   24132575.8544  126817541.736 5  98818882.73742
     -2613.214       -2036.263
  22694156.019    22694155.9344   22694159.4444  119258629.211 6  92928815.08744
      2514.956        1959.698
  22735736.440    22735736.4284   22735738.8914  119477100.199 6  93099070.30543
      2175.083        1694.879
  21030604.854    21030604.2834   21030606.4444  110516613.701 8  86116834.58146
      1517.401        1182.385
  21249485.174    21249484.6314   21249485.0034  111666823.748 8  87013118.24246
      -333.156        -259.609
  23790468.401    23790468.0564   23790472.0804  125019767.280 6  97418025.00742
      1779.650        1386.723
  24606914.629    24606913.8374   24606917.4084  129310226.018 5 100761240.63641
      2919.598        2275.009
  21870180.226    21870179.9924   21870182.3884  114928606.566 7  89554757.49646
     -1775.101       -1383.192
  24598977.926    24598978.3724   24598978.8474  129268511.945 5 100728736.60941
     -4484.154       -3494.146
  21809760.263    21809760.0164   21809761.5214  114611098.945 8  89307347.95246
     -3136.127       -2443.734
 08  4 19  1 27  0.0000000  0 10G 2G 6G13G16G23G24G25G29G30G31
  24147541.003    24147540.1014   24147542.1804  126896187.757 5  98880165.25841
     -2629.907       -2049.284
  22679829.391    22679828.9604   22679832.4834  119183341.201 7  92870149.18544
      2504.050        1951.213
  22723363.311    22723363.1694   22723365.3764  119412078.508 6  93048404.02043
      2159.603        1682.823
  21021985.347    21021984.8914   21021987.1194  110471318.121 8  86081539.35946
      1502.186        1170.532
  21251449.679    21251449.1344   21251449.2824  111677147.026 8  87021162.36846
      -355.127        -276.709
  23780348.760    23780348.1144   23780352.3094  124966590.559 6  97376588.61142
      1765.351        1375.612
  24590258.078    24590257.7264   24590262.2004  129222695.919 5 100693035.44441
      2915.634        2271.931
  21880367.614    21880367.5704   21880369.9724  114982142.860 7  89596474.17946
     -1794.075       -1397.981
  24624584.573    24624584.6304   24624587.7134  129403078.207 5 100833593.39341
     -4486.985       -3496.344
  21827697.594    21827697.6414   21827699.1404  114705362.196 8  89380799.80946
     -3148.172       -2453.119
 08  4 19  1 27 30.0000000  0 10G 2G 6G13G16G23G24G25G29G30G31
  24162603.896    24162602.2794   24162603.4134  126975338.255 5  98941841.03242
     -2646.746       -2062.405
  22665564.939    22665564.5594   22665567.7604  119108381.875 6  92811739.32244
      2493.145        1942.717
  22711079.423    22711079.7854   22711082.1064  119347524.839 6  92998102.41043
      2143.968        1670.616
  21013453.366    21013452.8054   21013455.0404  110426481.737 8  86046601.99146
      1486.885        1158.606
  21253540.233    21253539.5924   21253539.9934  111688132.901 8  87029722.83946
      -377.220        -293.933
  23770312.038    23770310.9814   23770315.8614  124913847.746 6  97335490.38642
      1750.865        1364.308
  24573626.387    24573626.0254   24573629.5604  129135289.451 5 100624926.53241
      2911.471        2268.662
  21890663.877    21890663.7554   21890665.9544  115036249.744 7  89638635.43046
     -1813.048       -1412.768
  24650208.054    24650207.3824   24650211.9964  129537730.129 5 100938516.90441
     -4489.828       -3498.567
  21845704.343    21845704.3564   21845705.9414  114799988.087 7  89454534.22646
     -3160.206       -2462.498
 08  4 19  1 28  0.0000000  0 10G 2G 6G13G16G23G24G25G29G30G31
  24177760.039    24177759.6084   24177760.4034  127054990.801 5  99003907.97741
     -2663.428       -2075.406
  22651363.389    22651363.3034   22651367.1814  119033753.641 6  92753587.41744
      2482.093        1934.093
  22698885.325    22698885.3254   22698887.1204  119283441.847 6  92948167.57943
      2128.191        1658.344
  21005008.986    21005008.3454   21005010.3914  110382105.982 8  86012023.57346
      1471.472        1146.598
  21255756.679    21255756.3654   21255756.8004  111699781.557 8  87038799.65146
      -399.349        -311.177
  23760358.019    23760357.6484   23760361.9704  124861541.148 6  97294732.02342
      1736.262        1352.930
  24557016.170    24557016.0414   24557019.4984  129048008.416 5 100556915.35741
      2907.206        2265.338
  21901068.230    21901068.3224   21901070.3114  115090925.378 7  89681239.80846
     -1832.023       -1427.548
  24675846.227    24675845.9234   24675850.3844  129672465.553 4 101043505.43341
     -4492.537       -3500.715
  21863779.491    21863779.5174   21863781.3864  114894975.002 7  89528549.98346
     -3172.255       -2471.889
 08  4 19  1 28 30.0000000  0 10G 2G 6G13G16G23G24G25G29G30G31
  24193012.072    24193012.1504   24193013.8974  127135143.315 5  99066364.49041
     -2680.045       -2088.325
  22637226.598    22637225.7254   22637229.0244  118959459.878 6  92695696.38244
      2471.052        1925.485
  22686781.077    22686780.7204   22686782.6104  119219832.597 7  92898601.93443
      2112.463        1646.080
  20996652.612    20996651.8544   20996653.9214  110338192.610 8  85977805.40846
      1456.154        1134.664
  21258099.702    21258099.2974   21258099.7924  111712093.917 8  87048393.69946
      -421.407        -328.383
  23750489.303    23750488.3174   23750491.4504  124809673.824 6  97254315.92442
      1721.687        1341.540
  24540431.467    24540431.2324   24540434.6414  128960855.171 5 100489003.84641
      2903.133        2262.194
  21911580.949    21911580.7864   21911582.9334  115146168.930 7  89724286.72846
     -1850.797       -1442.183
  24701501.884    24701502.1444   24701504.6454  129807282.883 5 101148557.88541
     -4495.139       -3502.713
  21881923.638    21881923.4974   21881925.3084  114990321.513 7  89602845.96046
     -3184.095       -2481.115
 08  4 19  1 29  0.0000000  0 10G 2G 6G13G16G23G24G25G29G30G31
  24208359.992    24208360.5404   24208361.4794  127215795.682 5  99129210.42241
     -2696.677       -2101.319
  22623152.809    22623152.3674   22623155.7514  118885504.092 6  92638068.59244
      2459.609        1916.580
  22674767.095    22674766.6664   22674769.3404  119156701.846 6  92849409.16043
      2096.413        1633.572
  20988384.820    20988384.1174   20988386.1324  110294744.867 8  85943950.02846
      1440.551        1122.509
  21260569.096    21260568.7964   21260569.4144  111725072.215 8  87058506.72246
      -443.641        -345.698
  23740703.711    23740702.6914   23740705.6864  124758250.366 6  97214245.71742
      1706.757        1329.923
  24523871.859    24523871.3664   24523875.3974  128873833.497 5 100421194.83042
      2898.547        2258.611
  21922201.600    21922201.4114   21922203.3564  115201980.688 7  89767776.39646
     -1869.787       -1456.975
  24727171.807    24727171.9514   24727174.7614  129942182.377 5 101253674.27741
     -4497.908       -3504.877
  21900135.737    21900135.8014   21900137.6124  115086028.172 7  89677422.59046
     -3196.122       -2490.482
 08  4 19  1 29 30.0000000  0 10G 2G 6G13G16G23G24G25G29G30G31
  24223803.271    24223801.3284   24223803.5594  127296945.153 5  99192443.73841
     -2713.305       -2114.259
  22609143.803    22609143.8084   22609147.0904  118811888.421 7  92580705.75944
      2448.120        1907.623
  22662844.936    22662844.9164   22662847.8584  119094051.677 6  92800590.93843
      2080.258        1620.987
  20980205.559    20980204.9284   20980207.0514  110251763.774 8  85910458.29846
      1424.899        1110.308
  21263165.425    21263165.0254   21263165.7144  111738716.247 8  87069138.49646
      -465.925        -363.063
  23731002.548    23731001.6714   23731005.6714  124707272.765 6  97174522.91042
      1691.776        1318.263
  24507337.207    24507336.5534   24507341.5434  128786944.673 5 100353489.32342
      2894.059        2255.100
  21932929.771    21932929.8094   21932931.9084  115258358.695 8  89811707.22746
     -1888.699       -1471.709
  24752858.368    24752857.1124   24752859.4754  130077161.818 5 101358853.10541
     -4500.672       -3507.003
  21918416.608    21918416.5714   21918418.0784  115182092.650 8  89752278.02146
     -3208.113       -2499.832
 08  4 19  1 30  0.0000000  0 10G 2G 6G13G16G23G24G25G29G30G31
  24239338.991    24239338.1664   24239338.7204  127378588.339 5  99256061.87441
     -2729.671       -2127.023
  22595200.431    22595200.2944   22595203.1274  118738613.931 7  92523608.79344
      2436.721        1898.746
  22651014.761    22651014.9654   22651017.4424  119031883.273 6  92752148.11443
      2064.195        1608.469
  20972115.230    20972114.5614   20972116.7324  110209249.199 8  85877330.09746
      1409.317        1098.166
  21265888.610    21265888.2244   21265888.5404  111753025.192 8  87080288.39046
      -488.096        -380.331
  23721386.750    23721385.8714   23721390.2794  124656742.370 6  97135148.61042
      1676.765        1306.585
  24490828.249    24490827.7164   24490830.8194  128700189.207 5 100285887.75641
      2889.605        2251.642
  21943765.568    21943765.3164   21943767.5564  115315300.669 7  89856077.56646
     -1907.460       -1486.329
  24778558.917    24778558.9944   24778561.3594  130212217.465 5 101464091.31041
     -4503.178       -3508.970
  21936764.785    21936764.6684   21936766.0674  115278512.402 8  89827410.30246
     -3219.963       -2509.060
 08  4 19  1 30 30.0000000  0 10G 2G 6G13G16G23G24G25G29G30G31
  24254968.669    24254967.6244   24254970.2344  127460722.576 5  99320062.54241
     -2745.969       -2139.731
  22581322.077    22581321.8614   22581324.9424  118665682.507 7  92466779.12044
      2425.301        1889.849
  22639277.457    22639276.9414   22639278.9904  118970199.048 7  92704082.51343
      2048.056        1595.894
  20964113.780    20964113.1364   20964115.4014  110167202.062 8  85844566.13046
      1393.779        1086.067
  21268737.798    21268737.2904   21268737.6284  111767998.737 8  87091956.13246
      -510.203        -397.560
  23711856.567    23711855.6434   23711860.4934  124606661.212 5  97096124.38242
      1661.837        1294.944
  24474345.207    24474344.6604   24474347.9684  128613568.725 5 100218391.32841
      2885.083        2248.089
  21954708.170    21954708.1514   21954710.3144  115372804.926 7  89900886.14246
     -1926.185       -1500.928
  24804272.522    24804271.5784   24804276.2264  130347347.500 5 101569387.26741
     -4505.450       -3510.738
  21955180.070    21955180.0804   21955181.5134  115375285.831 8  89902818.15046
     -3231.665       -2518.177
 08  4 19  1 31  0.0000000  0 10G 2G 6G13G16G23G24G25G29G30G31
  24270690.319    24270690.2394   24270692.3094  127543345.482 5  99384443.93641
     -2762.219       -2152.367
  22567509.694    22567509.1284   22567512.6004  118593096.765 7  92410218.79544
      2413.740        1880.836
  22627631.546    22627631.6624   22627633.1714  118909001.784 7  92656396.32643
      2031.774        1583.195
  20956201.913    20956201.2164   20956203.3384  110125623.845 8  85812167.53646
      1378.138        1073.876
  21271713.815    21271713.3594   21271713.5244  111783637.066 8  87104141.89346
      -532.356        -414.828
  23702411.469    23702411.0944   23702415.3084  124557031.529 5  97057451.91142
      1646.732        1283.171
  24457887.191    24457886.9484   24457889.9974  128527084.967 5 100151001.43841
      2880.535        2244.567
  21965757.784    21965757.4824   21965759.5524  115430869.359 7  89946131.15246
     -1944.771       -1515.408
  24830001.904    24830002.0374   24830005.2484  130482550.076 5 101674739.95441
     -4507.976       -3512.729
  21973662.485    21973662.5544   21973663.8584  115472411.082 7  89978500.12746
     -3243.319       -2527.259
 08  4 19  1 31 30.0000000  0 10G 2G 6G13G16G23G24G25G29G30G31
  24286506.160    24286505.6814   24286506.7344  127626456.249 5  99449205.58541
     -2778.445       -2165.012
  22553763.006    22553762.7134   22553765.8914  118520860.314 6  92353930.64444
      2402.058        1871.734
  22616078.666    22616078.8844   22616081.1874  118848295.919 6  92609093.11843
      2015.363        1570.408
  20948379.521    20948378.8424   20948381.0504  110084517.544 8  85780136.68747
      1362.359        1061.584
  21274816.718    21274816.1464   21274816.5574  111799942.393 8  87116847.31046
      -554.616        -432.161
  23693053.286    23693053.8224   23693057.9374  124507857.835 5  97019134.80742
      1631.492        1271.301
  24441456.753    24441456.6874   24441460.1024  128440741.420 5 100083720.73341
      2875.748        2240.828
  21976913.651    21976913.5134   21976915.7374  115489494.751 7  89991813.41145
     -1963.505       -1530.017
  24855739.804    24855740.8624   24855745.4134  130617825.201 4 101780149.08541
     -4510.259       -3514.495
  21992211.894    21992211.8004   21992213.1974  115569888.291 7  90054456.41146
     -3255.081       -2536.425
 08  4 19  1 32  0.0000000  0 10G 2G 6G13G16G23G24G25G29G30G31
  24302414.175    24302414.2494   24302414.5584  127710050.700 5  99514344.12442
     -2794.632       -2177.629
  22540083.731    22540083.3504   22540086.6524  118448974.080 6  92297915.41844
      2390.274        1862.551
  22604620.199    22604620.7524   22604623.7004  118788082.237 6  92562173.42744
      1998.819        1557.518
  20940646.816    20940646.2994   20940648.2224  110043882.450 8  85748473.01246
      1346.551        1049.259
  21278046.072    21278045.5624   21278045.9974  111816912.686 8  87130070.86046
      -576.860        -449.503
  23683784.613    23683783.3874   23683787.7474  124459140.709 6  96981173.49442
      1616.236        1259.393
  24425052.808    24425052.5334   24425056.1594  128354538.254 5 100016549.46342
      2870.945        2237.112
  21988175.544    21988175.1964   21988177.5744  115548677.419 7  90037929.96645
     -1982.108       -1544.500
  24881498.095    24881497.8274   24881500.0114  130753169.152 5 101885611.73441
     -4512.736       -3516.421
  22010827.072    22010827.2124   22010828.8564  115667713.960 7  90130684.19246
     -3266.735       -2545.507
 08  4 19  1 32 30.0000000  0 10G 2G 6G13G16G23G24G25G29G30G31
  24318414.114    24318412.6454   24318414.1144  127794126.263 5  99579857.51542
     -2810.582       -2190.073
  22526471.342    22526470.6264   22526474.0794  118377439.975 7  92242174.59044
      2378.523        1853.390
  22593256.639    22593256.1524   22593259.0234  118728362.924 6  92515638.93043
      1982.283        1544.642
  20933004.285    20933003.5414   20933005.5044  110003719.858 8  85717177.50146
      1330.783        1036.970
  21281401.727    21281401.3534   21281401.8854  111834547.636 8  87143812.23946
      -599.001        -466.750
  23674600.271    23674599.9054   23674604.6474  124410881.954 6  96943569.32842
      1600.872        1247.424
  24408676.144    24408675.7714   24408678.7004  128268476.875 5  99949488.72642
      2866.287        2233.463
  21999542.895    21999542.9574   21999545.5504  115608415.100 7  90084478.66745
     -2000.573       -1558.892
  24907265.893    24907265.3044   24907268.5654  130888579.165 5 101991126.01141
     -4514.829       -3518.045
  22029508.769    22029508.7534   22029510.4134  115765886.334 7  90207182.13345
     -3278.269       -2554.504
 08  4 19  1 33  0.0000000  0 10G 2G 6G13G16G23G24G25G29G30G31
  24334502.023    24334502.5214   24334503.8954  127878679.094 5  99645742.79942
     -2826.281       -2202.280
  22512925.968    22512925.4364   22512928.7584  118306258.649 7  92186708.66944
      2366.837        1844.288
  22581987.066    22581986.6104   22581988.6784  118669139.141 7  92469490.57543
      1965.850        1531.826
  20925451.312    20925450.7004   20925452.7224  109964029.250 8  85686249.76146
      1315.168        1024.804
  21284884.085    21284883.5344   21284883.7724  111852846.241 8  87158070.79446
      -620.973        -483.868
  23665505.453    23665504.2894   23665508.0794  124363082.687 6  96906323.25743
      1585.668        1235.582
  24392325.914    24392325.6894   24392329.0754  128182557.784 5  99882538.85541
      2861.684        2229.887
  22011015.876    22011015.8994   22011018.4404  115668705.438 7  90131458.12045
     -2018.828       -1573.114
  24933045.442    24933044.9184   24933049.4414  131024052.564 5 102096689.65641
     -4516.770       -3519.571
  22048255.521    22048255.6294   22048257.2584  115864402.203 7  90283947.74345
     -3289.523       -2563.264
 08  4 19  1 33 30.0000000  0 10G 2G 6G13G16G23G24G25G29G30G31
  24350684.452    24350683.5594   24350684.7574  127963708.114 5  99711999.13542
     -2842.263       -2214.753
  22499448.241    22499447.6934   22499451.2314  118235433.640 7  92131520.41444
      2354.860        1834.962
  22570812.040    22570812.0754   22570813.7364  118610414.589 6  92423731.18943
      1949.141        1518.810
  20917988.584    20917988.0814   20917990.0114  109924812.824 8  85655691.52247
      1299.286        1012.430
  21288492.692    21288492.2184   21288492.7254  111871809.957 8  87172847.68046
      -643.203        -501.197
  23656497.693    23656496.7374   23656501.5714  124315746.257 6  96869437.79143
      1570.178        1223.513
  24376004.193    24376003.3274   24376006.9434  128096783.940 5  99815702.12741
      2856.695        2225.981
  22022593.664    22022593.7244   22022596.0504  115729547.725 7  90178867.83145
     -2037.241       -1587.455
  24958837.060    24958838.2644   24958840.5264  131159588.320 5 102202301.80741
     -4518.861       -3521.188
  22067067.877    22067067.8004   22067069.5734  115963261.090 7  90360980.64046
     -3300.990       -2572.201
 08  4 19  1 34  0.0000000  0 10G 2G 6G13G16G23G24G25G29G30G31
  24366954.946    24366954.5644   24366955.0644  128049212.332 5  99778625.74842
     -2858.028       -2227.051
  22486039.248    22486038.7704   22486041.8504  118164968.534 7  92076612.58244
      2342.846        1825.593
  22559732.278    22559731.9984   22559735.1114  118552193.323 6  92378363.91243
      1932.306        1505.699
  20910617.001    20910616.2934   20910618.2944  109886073.675 8  85625505.16046
      1283.390        1000.042
  21292228.339    21292227.9574   21292228.4354  111891440.127 8  87188143.84346
      -665.399        -518.490
  23647577.749    23647577.4274   23647581.6094  124268876.603 6  96832916.01843
      1554.509        1211.313
  24359710.271    24359710.0544   24359712.2314  128011158.507 5  99748981.02641
      2851.683        2222.083
  22034277.055    22034276.6494   22034278.9204  115790941.394 7  90226706.96745
     -2055.622       -1601.781
  24984640.940    24984641.3774   24984640.9714  131295186.304 5 102307962.65041
     -4521.025       -3522.915
  22085945.527    22085945.4094   22085946.9644  116062462.891 7  90438280.73646
     -3312.395       -2581.086
 08  4 19  1 34 30.0000000  0 10G 2G 6G13G16G23G24G25G29G30G31
  24383314.734    24383314.7244   24383315.9474  128135186.749 5  99845618.73542
     -2873.583       -2239.166
  22472698.198    22472698.3014   22472701.7724  118094863.403 7  92021985.22044
      2330.830        1816.229
  22548749.111    22548749.2444   22548751.4814  118494475.898 6  92333389.35943
      1915.523        1492.612
  20903335.750    20903335.0514   20903337.0894  109847810.611 8  85595689.80947
      1267.522         987.679
  21296090.281    21296089.8454   21296090.2054  111911734.432 8  87203957.53846
      -687.527        -535.737
  23638747.977    23638747.7084   23638750.5244  124222473.896 6  96796758.11342
      1539.020        1199.237
  24343443.360    24343442.6384   24343447.3824  127925680.940 5  99682375.12241
      2846.855        2218.294
  22046064.067    22046063.6854   22046065.9534  115852883.047 7  90274973.16845
     -2073.792       -1615.952
  25010455.105    25010454.4964   25010459.7694  131430842.333 5 102413668.61041
     -4522.771       -3524.218
  22104887.776    22104887.4364   22104889.0064  116162003.632 7  90515844.96345
     -3323.633       -2589.843
 08  4 19  1 35  0.0000000  0 10G 2G 6G13G16G23G24G25G29G30G31
  24399764.796    24399764.4844   24399766.4924  128221629.138 4  99912976.35641
     -2889.168       -2251.323
  22459426.875    22459426.4344   22459429.7694  118025120.300 7  91967639.97244
      2318.698        1806.773
  22537862.150    22537862.3824   22537864.2164  118437264.322 6  92288808.95443
      1898.624        1479.446
  20896145.125    20896144.6034   20896146.6464  109810024.674 8  85566246.29946
      1251.533         975.221
  21300078.754    21300078.0904   21300078.4914  111932692.900 8  87220288.83346
      -709.672        -552.996
  23630006.926    23630006.4444   23630009.9634  124176540.212 6  96760965.64942
      1523.252        1186.942
  24327207.095    24327206.0714   24327209.7514  127840353.316 5  99615886.11941
      2841.705        2214.300
  22057955.079    22057954.7724   22057957.0284  115915370.953 7  90323665.10745
     -2092.040       -1630.162
  25036279.850    25036281.6824   25036284.6944  131566554.363 4 102519418.14741
     -4524.708       -3525.751
  22123893.489    22123893.5914   22123895.3494  116261881.806 7  90593672.12446
     -3334.901       -2598.625
 08  4 19  1 35 30.0000000  0 10G 2G 6G13G16G23G24G25G29G30G31
  24416303.318    24416301.6854   24416304.3884  128308538.074 5  99980697.52541
     -2904.672       -2263.379
  22446224.978    22446224.5344   22446227.6674  117955743.084 7  91913579.78544
      2306.442        1797.221
  22527072.251    22527072.1534   22527074.2714  118380562.979 6  92244626.15143
      1881.539        1466.130
  20889045.983    20889045.4054   20889047.4354  109772718.545 8  85537176.63347
      1235.537         962.753
  21304193.628    21304193.0234   21304193.4654  111954316.808 8  87237138.64146
      -731.901        -570.313
  23621355.695    23621354.3094   23621359.4444  124131079.385 6  96725541.64742
      1507.452        1174.630
  24310998.963    24310998.9014   24311001.7064  127755178.953 5  99549516.50342
      2836.556        2210.290
  22069950.000    22069949.8064   22069951.8644  115978404.514 7  90372782.05645
     -2110.202       -1644.311
  25062115.086    25062115.7154   25062119.7594  131702322.045 4 102625211.12941
     -4526.520       -3527.189
  22142964.059    22142963.8864   22142965.4384  116362097.121 7  90671762.00745
     -3346.130       -2607.377
 08  4 19  1 36  0.0000000  0 10G 2G 6G13G16G23G24G25G29G30G31
  24432929.950    24432928.7214   24432930.2394  128395911.424 5 100048780.59741
     -2920.227       -2275.486
  22433092.903    22433092.3304   22433095.6144  117886733.919 7  91859806.42744
      2294.055        1787.572
  22516379.417    22516379.7724   22516382.1384  118324373.829 6  92200842.28643
      1864.225        1452.642
  20882038.207    20882037.6084   20882039.8394  109735893.191 8  85508481.58746
      1219.420         950.197
  21308435.154    21308434.5544   21308434.9104  111976606.138 8  87254506.91946
      -754.126        -587.629
  23612794.933    23612794.6454   23612798.9864  124086093.591 6  96690487.79642
      1491.544        1162.229
  24294820.557    24294819.9464   24294822.8064  127670159.416 5  99483267.53542
      2831.313        2206.210
  22082048.766    22082048.5654   22082050.5314  116041982.306 7  90422323.12345
     -2128.369       -1658.472
  25087963.066    25087962.5474   25087964.3404  131838143.550 5 102731046.07241
     -4528.350       -3528.598
  22162098.100    22162097.9804   22162099.4904  116462647.945 7  90750113.34245
     -3357.352       -2616.123
 08  4 19  1 36 30.0000000  0  9G 2G 6G13G16G23G24G25G29G31
  24449643.800    24449643.6274   24449644.6024  128483747.269 5 100117224.08842
     -2935.560       -2287.422
  22420031.661    22420030.9664   22420034.4054  117818095.199 7  91806321.71544
      2281.730        1777.975
  22505785.887    22505785.4454   22505787.7844  118268700.105 6  92157460.14443
      1847.134        1439.317
  20875122.390    20875121.8204   20875123.9374  109699550.640 8  85480162.84647
      1203.310         937.643
  21312803.136    21312802.5874   21312803.1554  111999560.741 8  87272393.59146
      -776.335        -604.937
  23604325.137    23604324.2174   23604328.4984  124041585.562 5  96655806.22942
      1475.547        1149.777
  24278669.975    24278670.5474   24278673.5674  127585296.948 5  99417141.02442
      2826.096        2202.127
  22094250.152    22094249.9664   22094252.2014  116106102.820 7  90472287.12945
     -2146.457       -1672.564
  22181295.851    22181295.8214   22181297.2604  116563532.739 7  90828724.86445
     -3368.467       -2624.780
 08  4 19  1 37  0.0000000  0  9G 2G 6G13G16G23G24G25G29G31
  24466446.906    24466446.1444   24466447.1664  128572042.762 5 100186025.76042
     -2950.776       -2299.292
  22407041.150    22407040.3254   22407043.5144  117749829.448 7  91753127.64144
      2269.345        1768.324
  22495289.136    22495289.0544   22495292.1424  118213544.608 6  92114481.86043
      1829.903        1425.880
  20868298.515    20868297.8964   20868300.0984  109663691.470 8  85452220.73646
      1187.299         925.160
  21317298.217    21317297.5844   21317298.1324  112023181.135 8  87290799.14546
      -798.356        -622.094
  23595947.388    23595946.6754   23595951.2234  123997557.525 6  96621498.71142
      1459.645        1137.385
  24262553.139    24262552.1264   24262555.5634  127500593.530 5  99351138.44242
      2820.769        2197.993
  22106555.166    22106554.6454   22106557.1014  116170764.582 7  90522672.94645
     -2164.322       -1686.488
  22200556.332    22200556.5234   22200558.5834  116664750.070 7  90907595.51945
     -3379.365       -2633.265
 08  4 19  1 37 30.0000000  0  9G 2G 6G13G16G23G24G25G29G31
  24483334.726    24483333.6524   24483336.2924  128660795.519 5 100255183.71241
     -2965.997       -2311.162
  22394122.002    22394121.0194   22394124.5584  117681938.765 7  91700225.82844
      2256.783        1758.534
  22484892.884    22484892.7124   22484895.4644  118158909.779 6  92071909.34343
      1812.463        1412.317
  20861566.869    20861566.3414   20861568.5194  109628316.925 8  85424656.24747
      1171.080         912.529
  21321919.550    21321919.0404   21321919.2934  112047467.006 8  87309723.26546
      -820.601        -639.429
  23587661.221    23587660.4654   23587665.1624  123954012.236 6  96587567.32943
      1443.467        1124.764
  24246464.555    24246464.0254   24246467.6614  127416051.077 6  99285261.21442
      2815.384        2193.785
  22118962.337    22118962.1094   22118964.2724  116235965.709 7  90573478.95545
     -2182.337       -1700.522
  22219880.568    22219880.7084   22219882.4754  116766298.318 7  90986724.00145
     -3390.424       -2641.889
 08  4 19  1 38  0.0000000  0  9G 2G 6G13G16G23G24G25G29G31
  24500311.329    24500309.9494   24500310.4264  128750002.013 5 100324695.26841
     -2981.043       -2322.886
  22381274.687    22381273.8444   22381276.9824  117614424.356 7  91647617.22445
      2244.227        1748.748
  22474595.691    22474595.6244   22474598.1034  118104797.059 6  92029743.66743
      1795.115        1398.783
  20854927.721    20854927.0904   20854929.1084  109593427.140 8  85397469.42047
      1154.906         899.924
  21326667.298    21326666.9334   21326667.0204  112072416.950 8  87329164.70946
      -842.690        -656.635
  23579466.335    23579466.2874   23579470.5594  123910950.653 6  96554012.89243
      1427.313        1112.195
  24230407.333    24230406.3894   24230410.4114  127331670.351 5  99219509.98442
      2810.011        2189.625
  22131471.877    22131471.6354   22131473.9904  116301703.841 7  90624703.44745
     -2200.186       -1714.435
  22239267.152    22239267.1204   22239269.0044  116868174.812 7  91066108.26945
     -3401.326       -2650.384
 08  4 19  1 38 30.0000000  0  9G 2G 6G13G16G23G24G25G29G31
  24517372.430    24517371.4304   24517373.8214  128839662.335 5 100394560.50841
     -2996.307       -2334.774
  22368498.742    22368498.5044   22368501.8284  117547291.116 7  91595305.63245
      2231.348        1738.716
  22464398.117    22464398.1094   22464401.0254  118051211.380 6  91987988.63743
      1777.323        1384.923
  20848381.386    20848380.7454   20848382.9174  109559025.972 8  85370663.31047
      1138.490         887.137
  21331542.035    21331541.6154   21331542.1104  112098033.421 8  87349125.45346
      -865.052        -674.064
  23571365.882    23571365.2174   23571368.8744  123868377.617 6  96520839.11143
      1410.858        1099.365
  24214381.645    24214381.1534   24214384.8524  127247455.964 5  99153888.40442
      2804.257        2185.142
  22144083.806    22144083.4324   22144085.9424  116367979.400 7  90676346.65245
     -2218.182       -1728.453
  22258716.386    22258716.2664   22258718.0564  116970380.737 7  91145749.24345
     -3412.385       -2659.002
 08  4 19  1 39  0.0000000  0  9G 2G 6G13G16G23G24G25G29G31
  24534519.818    24534519.4814   24534521.3654  128929774.531 5 100464777.80942
     -3011.224       -2346.396
  22355796.488    22355796.2824   22355799.9484  117480541.873 7  91543293.24145
      2218.629        1728.800
  22454301.977    22454302.2274   22454304.7334  117998156.152 6  91946646.95343
      1759.693        1371.181
  20841928.437    20841927.8674   20841929.9614  109525115.145 8  85344239.17247
      1122.218         874.454
  21336543.983    21336543.3194   21336543.8784  112124317.464 8  87369606.56246
      -887.211        -691.336
  23563357.553    23563357.1834   23563361.4904  123826296.064 6  96488048.34343
      1394.558        1086.660
  24198388.246    24198388.3634   24198391.9494  127163410.332 5  99088398.35042
      2798.783        2180.867
  22156797.743    22156797.5144   22156799.8394  116434791.333 7  90728407.81945
     -2235.926       -1742.281
  22278227.912    22278228.0244   22278229.5924  117072914.773 7  91225645.90845
     -3423.216       -2667.437
 08  4 19  1 39 30.0000000  0  9G 2G 6G13G16G23G24G25G29G31
  24551753.954    24551753.6084   24551754.0664  129020336.923 5 100535345.92342
     -3026.188       -2358.067
  22343168.729    22343168.0924   22343171.5944  117414179.463 7  91491582.29845
      2205.601        1718.650
  22444307.915    22444307.8044   22444310.3534  117945634.073 6  91905720.67344
      1741.846        1357.279
  20835569.205    20835568.6074   20835570.7084  109491696.547 8  85318198.55347
      1105.752         861.631
  21341672.402    21341672.0584   21341672.3984  112151269.572 8  87390608.22646
      -909.496        -708.701
  23555443.505    23555443.4644   23555447.5164  123784708.633 6  96455642.56843
      1377.985        1073.757
  24182428.177    24182427.3404   24182430.5364  127079536.264 5  99023041.98442
      2792.931        2176.318
  22169613.746    22169613.1834   22169615.7124  116502138.685 7  90780886.23745
     -2253.811       -1756.211
  22297802.040    22297801.9014   22297803.1804  117175776.024 7  91305797.55045
     -3434.139       -2675.955
 08  4 19  1 40  0.0000000  0  9G 2G 6G13G16G23G24G25G29G31
  24569071.521    24569071.4324   24569073.7394  129111346.715 5 100606262.58542
     -3041.020       -2369.614
  22330614.066    22330613.5374   22330616.8794  117348205.634 7  91440174.16445
      2192.706        1708.598
  22434415.613    22434415.2864   22434417.2664  117893647.466 7  91865211.65644
      1724.010        1343.385
  20829303.870    20829303.2054   20829305.2814  109458770.720 8  85292541.90347
      1089.368         848.865
  21346927.940    21346927.5854   21346927.5284  112178888.414 8  87412129.38746
      -931.654        -725.963
  23547623.739    23547623.2454   23547628.0584  123743617.563 6  96423623.54143
      1361.477        1060.891
  24166500.061    24166499.7094   24166502.8494  126995834.994 5  98957820.25042
      2787.219        2171.854
  22182530.840    22182530.6184   22182532.9384  116570019.457 7  90833780.32745
     -2271.475       -1769.976
  22317437.561    22317437.5584   22317438.9104  117278962.403 7  91386202.55145
     -3444.865       -2684.312
 08  4 19  1 40 30.0000000  0  9G 2G 6G13G16G23G24G25G29G31
  24586475.239    24586474.8134   24586475.9284  129202799.287 5 100677524.38942
     -3055.678       -2381.084
  22318133.633    22318133.3964   22318136.5184  117282620.966 7  91389069.26845
      2179.785        1698.532
  22424625.097    22424624.5554   22424626.4944  117842197.047 6  91825120.40544
      1706.137        1329.457
  20823131.930    20823131.3254   20823133.3684  109426337.335 8  85267269.08047
      1072.983         836.095
  21352310.355    21352309.8724   21352309.8254  112207171.819 8  87434168.32246
      -953.725        -743.157
  23539898.473    23539898.2474   23539903.1564  123703023.293 6  96391991.73343
      1344.892        1047.986
  24150605.616    24150605.6414   24150607.6414  126912306.825 6  98892733.32642
      2781.457        2167.367
  22195548.812    22195548.7654   22195551.1204  116638429.969 7  90887087.24745
     -2289.067       -1783.692
  22337134.679    22337134.3694   22337135.9204  117382470.542 7  91466858.25145
     -3455.509       -2692.609
 08  4 19  1 41  0.0000000  0  9G 2G 6G13G16G23G24G25G29G31
  24603959.449    24603961.7114   24603962.4714  129294691.327 4 100749128.56241
     -3070.408       -2392.546
  22305727.329    22305727.1904   22305730.3634  117217426.675 7  91338268.55445
      2166.482        1688.170
  22414936.615    22414936.1034   22414938.3264  117791284.341 7  91785448.23344
      1687.943        1315.280
  20817053.832    20817053.2004   20817055.3584  109394396.400 8  85242379.98747
      1056.336         823.117
  21357818.872    21357818.2174   21357818.8204  112236118.916 8  87456724.40046
      -976.092        -760.591
  23532268.887    23532268.2054   23532272.5554  123662926.781 6  96360747.78042
      1328.102        1034.877
  24134743.039    24134742.7774   24134745.8674  126828952.638 5  98827782.02142
      2775.480        2162.718
  22208667.325    22208667.0754   22208669.3364  116707367.464 7  90940804.80045
     -2306.817       -1797.520
  22356892.322    22356892.2004   22356893.5454  117486298.041 7  91547762.81145
     -3466.370       -2701.069
 08  4 19  1 41 30.0000000  0  9G 2G 6G13G16G23G24G25G29G31
  24621531.982    24621531.1544   24621532.6064  129387021.349 5 100821073.91641
     -3084.850       -2403.766
  22293396.549    22293396.0154   22293399.0144  117152625.955 7  91287774.53945
      2153.540        1678.081
  22405350.502    22405350.4344   22405353.0574  117740912.840 7  91746197.76044
      1670.085        1301.359
  20811069.758    20811069.1244   20811071.2344  109362950.097 8  85217876.39147
      1040.032         810.411
  21363453.803    21363453.2824   21363454.0084  112265730.562 8  87479798.29446
      -998.037        -777.693
  23524733.861    23524733.3194   23524737.0104  123623331.409 5  96329894.21842
      1311.564        1021.995
  24118914.881    24118915.1874   24118918.1854  126745775.399 5  98762968.64242
      2769.692        2158.195
  22221885.732    22221885.6784   22221887.7354  116776831.017 7  90994932.20545
     -2324.098       -1810.983
  22376710.548    22376710.4004   22376712.0964  117590444.244 7  91628915.69445
     -3476.735       -2709.143
 08  4 19  1 42  0.0000000  0  9G 2G 6G13G16G23G24G25G29G31
  24639184.203    24639183.1064   24639185.1134  129479783.692 5 100893356.26642
     -3099.333       -2415.077
  22281139.667    22281139.4864   22281142.8824  117088217.991 7  91237586.56245
      2140.249        1667.726
  22395868.383    22395868.3204   22395869.9554  117691081.671 7  91707368.29744
      1651.915        1287.206
  20805179.463    20805178.7514   20805180.9974  109331996.305 8  85193756.59047
      1023.452         797.490
  21369214.566    21369214.0844   21369214.4484  112296003.520 8  87503387.66946
     -1020.234        -794.986
  23517294.284    23517294.2344   23517297.9734  123584236.237 6  96299430.47442
      1294.695        1008.850
  24103120.672    24103120.1444   24103123.5924  126662774.082 6  98698292.30542
      2763.677        2153.533
  22235203.545    22235203.3194   22235205.6084  116846816.018 7  91049466.03945
     -2341.618       -1824.643
  22396588.512    22396588.3834   22396590.2774  117694903.817 7  91710312.73845
     -3487.284       -2717.371
 08  4 19  1 42 30.0000000  0 10G 2G 6G13G16G21G23G24G25G29G31
  24656917.170    24656916.8974   24656919.3964  129572978.193 4 100965975.33341
     -3113.608       -2426.184
  22268958.676    22268958.6034   22268962.1974  117024207.374 7  91187708.20045
      2127.072        1657.458
  22386489.866    22386489.4994   22386491.3034  117641795.775 6  91668963.61544
      1633.753        1273.051
  20799383.479    20799382.8374   20799385.0574  109301538.824 8  85170023.58347
      1006.970         784.649
  25337856.842                                   133151334.045 4
      2725.259
  21375101.633    21375101.1584   21375101.2504  112326939.710 8  87527493.79246
     -1042.236        -812.126
  23509950.471    23509950.7224   23509954.5544  123545645.783 6  96269360.00942
      1277.901         995.755
  24087360.659    24087360.0044   24087363.2344  126579953.184 6  98633756.55243
      2757.711        2148.873
  22248620.648    22248620.3054   22248622.4764  116917323.149 7  91104406.69145
     -2358.910       -1838.108
  22416526.586    22416526.5764   22416527.9444  117799678.290 7  91791955.16745
     -3497.703       -2725.483
 08  4 19  1 43  0.0000000  0 10G 2G 6G13G16G21G23G24G25G29G31
  24674734.251    24674732.6374   24674735.4924  129666601.011 4 101038928.10641
     -3127.601       -2437.088
  22256854.268    22256853.6794   22256856.9914  116960594.877 7  91138140.07345
      2113.770        1647.092
  22377214.651    22377214.9844   22377216.4214  117593056.379 7  91630984.85844
      1615.530        1258.844
  20793681.852    20793681.2504   20793683.4614  109271577.073 8  85146676.78047
       990.463         771.790
  25322311.167                                   133069636.525 5
      2721.208
  21381114.398    21381113.6974   21381114.7134  112358537.577 8  87552115.55646
     -1064.273        -829.312
  23502703.631    23502702.9624   23502707.1224  123507560.946 5  96239683.58842
      1261.043         982.620
  24071634.411    24071634.1584   24071637.5224  126497313.113 6  98569361.75943
      2751.687        2144.158
  22262136.144    22262135.9494   22262138.2544  116988349.050 7  91159751.56245
     -2376.141       -1851.535
  22436523.934    22436523.8464   22436525.2184  117904764.365 7  91873840.40745
     -3508.045       -2733.545
 08  4 19  1 43 30.0000000  0  9G 6G13G16G21G23G24G25G29G31
  22244824.769    22244824.6444   22244827.7014  116897381.548 7  91088882.97945
      2100.483        1636.737
  22368044.093    22368044.0794   22368046.2104  117544864.776 7  91593432.96344
      1597.238        1244.597
  20788074.593    20788074.0664   20788076.3104  109242110.650 8  85123715.81847
       973.957         758.928
  25306787.140    25306786.6184   25306789.4434  132988062.698 5 103627086.84541
      2717.043        2117.199
  21387252.484    21387251.9444   21387253.3434  112390795.401 8  87577251.66246
     -1086.221        -846.404
  23495553.336    23495552.5794   23495555.4574  123469982.398 6  96210401.60743
      1244.197         969.501
  24055943.276    24055942.7064   24055945.9824  126414854.765 6  98505108.55942
      2745.562        2139.394
  22275750.258    22275750.0574   22275752.3864  117059890.590 7  91215498.23345
     -2393.221       -1864.848
  22456580.163    22456579.9224   22456581.2974  118010159.569 7  91955966.57245
     -3518.237       -2741.485
 08  4 19  1 44  0.0000000  0  9G 6G13G16G21G23G24G25G29G31
  22232872.536    22232871.9434   22232875.0764  116834569.362 7  91039938.44745
      2087.017        1626.244
  22358978.288    22358978.2304   22358980.2834  117497223.238 7  91556309.72044
      1578.824        1230.250
  20782561.821    20782561.3324   20782563.5174  109213141.136 8  85101142.21247
       957.321         745.957
  25291288.070    25291287.9894   25291290.6894  132906614.782 5 103563620.95341
      2712.876        2113.927
  21393516.963    21393516.1864   21393516.6524  112423712.287 8  87602901.24846
     -1108.236        -863.564
  23488498.862    23488497.9814   23488501.3744  123432912.404 6  96181515.79843
      1227.168         956.249
  24040286.331    24040285.2754   24040288.6144  126332579.770 5  98440998.18042
      2739.389        2134.595
  22289461.709    22289461.5564   22289463.8494  117131945.890 7  91271645.24845
     -2410.439       -1878.269
  22476694.150    22476694.3244   22476695.7724  118115861.590 7  92038331.78445
     -3528.507       -2749.488
 08  4 19  1 44 30.0000000  0  9G 6G13G16G21G23G24G25G29G31
  22220996.456    22220995.9854   22220999.0834  116772161.342 7  90991308.84545
      2073.498        1615.711
  22350018.027    22350017.6474   22350019.6714  117450134.570 7  91519617.25144
      1560.401        1215.889
  20777143.783    20777143.3794   20777145.5834  109184669.892 8  85078956.84447
       940.753         733.051
  25275813.872    25275813.7974   25275815.5884  132825295.609 5 103500255.37341
      2708.440        2110.490
  21399906.096    21399905.5894   21399905.4874  112457288.906 8  87629064.89146
     -1130.177        -880.656
  23481541.340    23481541.2934   23481545.4364  123396353.716 6  96153028.36743
      1210.145         942.965
  24024665.493    24024665.2384   24024668.6324  126250490.986 6  98377032.90342
      2733.154        2129.720
  22303270.948    22303270.7944   22303273.2434  117204513.855 7  91328191.68345
     -2427.454       -1891.525
  22496866.881    22496866.7164   22496868.5624  118221869.814 7  92120935.58245
     -3538.690       -2757.424
 08  4 19  1 45  0.0000000  0  9G 6G13G16G21G23G24G25G29G31
  22209197.442    22209197.4984   22209200.4874  116710161.034 7  90942996.95245
      2059.893        1605.107
  22341163.008    22341162.7424   22341164.8584  117403602.926 7  91483358.83544
      1541.764        1201.374
  20771821.387    20771820.8534   20771823.0094  109156699.755 8  85057161.97147
       924.000         719.998
  25260364.826    25260364.5114   25260365.9874  132744110.843 5 103436994.49141
      2703.962        2106.991
  21406421.187    21406420.6264   21406420.5674  112491526.085 8  87655743.19846
     -1152.226        -897.837
  23474683.879    23474682.5394   23474686.4304  123360310.244 6  96124942.51643
      1192.857         929.500
  24009080.918    24009081.0144   24009083.4264  126168591.971 6  98313215.49143
      2726.801        2124.761
  22317177.503    22317177.5094   22317180.1004  117277594.119 7  91385137.33245
     -2444.532       -1904.835
  22517097.603    22517097.6984   22517099.3834  118328184.416 7  92203778.14245
     -3548.873       -2765.364
 08  4 19  1 45 30.0000000  0  9G 6G13G16G21G23G24G25G29G31
  22197477.912    22197477.6154   22197480.8314  116648571.642 7  90895005.25445
      2046.030        1594.312
  22332415.005    22332414.6704   22332416.9084  117357631.424 7  91447536.92344
      1522.954        1186.722
  20766594.571    20766593.9564   20766596.1354  109129232.167 8  85035758.61347
       907.151         706.874
  25244942.932    25244942.2084   25244942.7994  132663063.007 5 103373840.34541
      2699.252        2103.306
  21413061.986    21413061.5824   21413061.9364  112526424.287 8  87682936.56646
     -1174.341        -915.073
  23467922.895    23467922.7654   23467926.7584  123324784.539 6  96097260.06543
      1175.502         915.973
  23993532.165    23993532.3584   23993535.5384  126086885.485 6  98249548.08043
      2720.260        2119.693
  22331181.650    22331181.6294   22331183.9884  117351185.896 7  91442481.58945
     -2461.610       -1918.150
  22537386.543    22537386.5614   22537388.3294  118434803.908 7  92286858.26545
     -3559.075       -2773.304
 08  4 19  1 46  0.0000000  0  9G 6G13G16G21G23G24G25G29G31
  22185836.012    22185835.5084   22185838.9394  116587393.456 7  90847333.94145
      2032.397        1583.685
  22323773.664    22323773.2064   22323775.2294  117312220.751 7  91412151.96044
      1504.302        1172.179
  20761463.318    20761462.7024   20761464.9464  109102266.595 8  85014746.36647
       890.479         693.882
  25229545.736    25229544.9124   25229546.3784  132582153.757 5 103310794.22641
      2694.651        2099.743
  21419828.344    21419827.8714   21419828.4024  112561981.608 8  87710643.60846
     -1196.207        -932.106
  23461261.497    23461260.6624   23461264.2884  123289777.058 6  96069981.34843
      1158.235         902.504
  23978021.118    23978019.7984   23978024.4424  126005371.926 5  98186031.04942
      2713.977        2114.783
  22345282.491    22345282.1544   22345284.5924  117425285.563 7  91500221.64045
     -2478.423       -1931.244
  22557733.088    22557732.9774   22557734.5364  118541725.132 7  92370173.49345
     -3569.069       -2781.092
 08  4 19  1 46 30.0000000  0  9G 6G13G16G21G23G24G25G29G31
  22174272.861    22174272.6364   22174275.6074  116526629.152 7  90799985.14445
      2018.640        1572.960
  22315239.526    22315239.2754   22315240.9604  117267374.344 7  91377206.78344
      1485.551        1157.575
  20756427.955    20756427.3074   20756429.3994  109075805.093 8  84994127.09247
       873.715         680.805
  25214175.759    25214174.6064   25214177.7554  132501386.001 5 103247858.35941
      2689.978        2096.089
  21426719.881    21426719.3674   21426719.9224  112598197.657 8  87738863.92546
     -1218.110        -949.187
  23454698.680    23454698.0354   23454702.8964  123255290.741 6  96043108.91043
      1140.917         889.023
  23962546.980    23962546.5944   23962549.1214  125924053.672 6  98122666.21542
      2707.395        2109.644
  22359479.444    22359479.3084   22359481.5474  117499891.701 7  91558356.29445
     -2495.223       -1944.330
  22578137.294    22578137.0904   22578138.4464  118648947.238 7  92453723.19745
     -3579.004       -2788.838
 08  4 19  1 47  0.0000000  0  9G 6G13G16G21G23G24G25G29G31
  22162789.106    22162788.8674   22162792.0974  116466281.314 7  90752960.85945
      2004.633        1562.052
  22306812.527    22306812.8494   22306815.1674  117223093.532 7  91342702.26244
      1466.547        1142.761
  20751488.350    20751487.8114   20751490.0284  109049848.263 8  84973900.97047
       856.804         667.641
  25198835.008    25198832.9414   25198836.0964  132420762.713 5 103185035.05941
      2684.971        2092.155
  21433736.995    21433736.4144   21433736.8684  112635072.545 8  87767597.60246
     -1240.145        -966.350
  23448235.749    23448235.0144   23448239.7024  123221328.058 6  96016644.65343
      1123.363         875.349
  23947110.260    23947109.7784   23947112.1804  125842933.154 6  98059455.43842
      2700.745        2104.477
  22373772.298    22373772.4164   22373774.7964  117575002.419 7  91616884.03245
     -2512.140       -1957.510
  22598597.833    22598597.7514   22598599.4954  118756469.014 7  92537506.39645
     -3589.014       -2796.635
 08  4 19  1 47 30.0000000  0  9G 6G13G16G21G23G24G25G29G31
  22151385.006    22151384.6904   22151387.8144  116406351.464 7  90706262.24845
      1990.628        1551.140
  22298494.501    22298494.6834   22298496.8344  117179381.231 7  91308640.78144
      1447.575        1127.970
  20746645.156    20746644.5884   20746646.9104  109024396.930 8  84954068.67347
       839.892         654.449
  25183520.434    25183519.7544   25183520.3244  132340286.388 5 103122326.20541
      2680.004        2088.301
  21440879.149    21440878.7014   21440878.9244  112672604.724 8  87796843.47446
     -1262.024        -983.401
  23441872.107    23441871.6894   23441876.8194  123187890.132 6  95990589.25543
      1105.801         861.656
  23931711.048    23931710.8814   23931713.3074  125762012.120 6  97996400.06442
      2694.025        2099.254
  22388161.173    22388160.9824   22388163.4954  117650615.506 7  91675803.24745
     -2528.816       -1970.504
  22619115.252    22619115.3834   22619116.3274  118864287.993 7  92621521.18545
     -3598.919       -2804.354
 08  4 19  1 48  0.0000000  0 10G 3G 6G13G16G21G23G24G25G29G31
  24990438.579    24990436.8014   24990440.9054  131325636.279 5 102331685.77241
      3588.554        2796.279
  22140060.932    22140060.2964   22140063.0664  116346841.996 7  90659891.18145
      1976.630        1540.232
  22290285.558    22290285.3834   22290287.0864  117136239.736 7  91275024.07344
      1428.570        1113.173
  20741898.421    20741897.8494   20741900.0444  108999452.948 8  84934631.96547
       823.028         641.318
  25168233.587    25168232.3094   25168236.4574  132259959.973 5 103059734.23641
      2675.004        2084.417
  21448146.297    21448146.0014   21448145.9374  112710794.380 8  87826601.68946
     -1283.918       -1000.455
  23435609.372    23435608.4514   23435613.6254  123154979.437 6  95964944.70143
      1088.251         847.982
  23916350.513    23916349.7424   23916353.5604  125681292.369 5  97933501.57942
      2687.361        2094.045
  22402645.281    22402645.1784   22402647.7654  117726729.465 7  91735112.80845
     -2545.429       -1983.454
  22639688.976    22639688.7654   22639690.4564  118972403.049 7  92705766.66645
     -3608.744       -2812.009
 08  4 19  1 48 30.0000000  0 10G 3G 6G13G16G21G23G24G25G29G31
  24969955.385    24969954.2804   24969959.7854  131218001.212 5 102247814.25541
      3587.155        2795.198
  22128816.473    22128815.8144   22128819.0624  116287752.155 7  90613847.11945
      1962.708        1529.380
  22282184.181    22282184.0854   22282185.8514  117093668.377 7  91241851.62044
      1409.575        1098.366
  20737247.860    20737247.1874   20737249.3674  108975013.403 8  84915588.15947
       806.241         628.235
  25152976.735    25152975.9964   25152978.6434  132179783.361 4 102997259.14841
      2670.033        2080.541
  21455538.081    21455537.4614   21455537.8634  112749637.828 8  87856869.35546
     -1305.626       -1017.374
  23429446.844    23429446.2254   23429451.2724  123122595.002 6  95939710.20343
      1070.733         834.340
  23901028.325    23901027.6314   23901031.5834  125600773.366 5  97870759.58142
      2680.625        2088.796
  22417224.194    22417223.5214   22417225.9694  117803339.594 7  91794809.06145
     -2561.885       -1996.277
  22660317.929    22660317.8214   22660319.3074  119080809.409 7  92790239.14845
     -3618.328       -2819.477
 08  4 19  1 49  0.0000000  0 10G 3G 6G13G16G21G23G24G25G29G31
  24949483.639    24949481.5144   24949484.5614  131110411.053 5 102163977.89341
      3585.589        2793.971
  22117652.135    22117651.3924   22117654.5914  116229082.883 7  90568130.77445
      1948.613        1518.402
  22274191.451    22274191.3984   22274193.6484  117051668.060 7  91209124.11744
      1390.466        1083.479
  20732693.093    20732692.4444   20732694.5204  108951078.395 8  84896937.56647
       789.413         615.130
  25137749.367    25137748.9524   25137748.5324  132099757.994 5 102934901.78841
      2664.932        2076.559
  21463053.597    21463053.0324   21463053.4594  112789133.018 8  87887644.87146
     -1327.385       -1034.328
  23423384.160    23423383.9574   23423388.5454  123090737.627 6  95914886.42543
      1053.077         820.567
  23885744.983    23885744.5744   23885747.0514  125520455.700 6  97808174.41842
      2673.855        2083.536
  22431896.129    22431896.0534   22431898.1344  117880442.234 7  91854888.97945
     -2578.316       -2009.073
  22681001.411    22681001.2244   22681002.9244  119189504.187 7  92874936.37645
     -3627.961       -2826.974
 08  4 19  1 49 30.0000000  0 10G 3G 6G13G16G21G23G24G25G29G31
  24929017.857    24929017.2394   24929017.7844  131002866.898 5 102080177.28841
      3584.094        2792.825
  22106567.866    22106567.3364   22106570.2414  116170835.244 7  90522743.03845
      1934.562        1507.453
  22266308.166    22266308.0594   22266310.1574  117010240.133 7  91176842.66644
      1371.356        1068.584
  20728234.303    20728233.6514   20728235.7324  108927647.699 8  84878679.94147
       772.622         602.042
  25122548.698    25122548.3654   25122548.6864  132019885.407 5 102872663.20141
      2659.829        2072.560
  21470692.972    21470692.3944   21470692.7104  112829278.338 8  87918926.92246
     -1349.008       -1051.170
  23417422.962    23417422.7414   23417426.4634  123059407.939 6  95890473.76843
      1035.444         806.838
  23870498.935    23870498.5704   23870501.6234  125440340.410 6  97745746.90642
      2667.143        2078.286
  22446661.138    22446661.2484   22446663.4544  117958034.819 7  91915350.78245
     -2594.574       -2021.739
  22701739.530    22701739.5134   22701741.3474  119298484.647 7  92959856.20045
     -3637.433       -2834.361
 08  4 19  1 50  0.0000000  0 10G 3G 6G13G16G21G23G24G25G29G31
  24908557.645    24908560.0334   24908560.8164  130895372.061 4 101996415.16741
      3582.466        2791.488
  22095564.087    22095563.8574   22095566.7914  116113011.580 7  90477685.69845
      1920.389        1496.409
  22258534.367    22258534.1144   22258535.9544  116969387.201 7  91145009.20444
      1352.213        1053.680
  20723871.755    20723871.1904   20723873.2624  108904722.561 8  84860816.16447
       755.742         588.885
  25107378.593    25107377.7814   25107381.8994  131940168.833 5 102810546.46941
      2654.617        2068.515
  21478456.049    21478455.5834   21478455.5734  112870073.358 8  87950715.26246
     -1370.638       -1068.027
  23411561.957    23411561.6444   23411565.4494  123028608.208 6  95866473.97043
      1017.856         793.158
  23855291.908    23855292.0224   23855294.4744  125360429.838 6  97683478.94342
      2660.281        2072.947
  22461519.967    22461519.6604   22461521.8414  118036115.627 7  91976192.90645
     -2610.790       -2034.382
  22722532.468    22722532.4864   22722533.8614  119407750.099 7  93044998.11245
     -3646.897       -2841.740
 08  4 19  1 50 30.0000000  0 10G 3G 6G13G16G21G23G24G25G29G31
  24888113.466    24888113.1734   24888117.9214  130787928.561 4 101912693.01741
      3580.497        2789.987
  22084641.870    22084641.3194   22084644.5974  116055613.731 7  90432960.07145
      1906.076        1485.250
  22250869.809    22250869.4714   22250871.5794  116929111.177 7  91113625.22344
      1332.858        1038.601
  20719605.634    20719605.0794   20719607.0684  108882304.194 8  84843347.43647
       738.801         575.693
  25092240.350    25092240.0184   25092243.4384  131860611.332 5 102748553.68741
      2649.147        2064.269
  21486342.641    21486342.0974   21486342.3144  112911517.454 8  87983009.38246
     -1392.301       -1084.910
  23405802.261    23405801.9854   23405804.9774  122998340.343 6  95842888.49943
       999.981         779.227
  23840125.207    23840124.3344   23840128.1334  125280726.036 5  97621372.07742
      2653.206        2067.428
  22476470.657    22476470.5524   22476472.8734  118114682.502 7  92037413.82545
     -2626.973       -2046.992
  22743378.562    22743378.5434   22743380.2134  119517297.826 7  93130359.89645
     -3656.362       -2849.108
 08  4 19  1 51  0.0000000  0 10G 3G 6G13G16G21G23G24G25G29G31
  24867679.566    24867678.0154   24867682.9274  130680538.315 5 101829012.27241
      3578.802        2788.687
  22073800.895    22073800.2994   22073803.5344  115998643.585 7  90388567.81245
      1891.797        1474.124
  22243315.663    22243315.3674   22243317.5634  116889414.001 7  91082692.35244
      1313.500        1023.500
  20715436.030    20715435.3524   20715437.4044  108860392.786 8  84826273.63147
       721.845         562.476
  25077131.104    25077131.1884   25077134.5524  131781214.723 5 102686686.27142
      2643.776        2060.059
  21494352.414    21494351.9824   21494352.3494  112953609.030 8  88015807.99446
     -1413.897       -1101.738
  23400143.864    23400143.1514   23400147.6624  122968606.013 6  95819718.87443
       982.137         765.315
  23824997.514    23824997.1974   23825000.8694  125201230.476 6  97559427.50843
      2646.259        2062.020
  22491512.922    22491512.9194   22491515.4734  118193732.749 7  92099011.35945
     -2643.115       -2059.573
  22764278.260    22764278.3544   22764279.9904  119627125.879 7  93215940.10645
     -3665.690       -2856.378
 08  4 19  1 51 30.0000000  0 10G 3G 6G13G16G21G23G24G25G29G31
  24847255.333    24847253.7694   24847257.9534  130573204.143 5 101745375.21541
      3576.762        2787.104
  22063041.451    22063040.9544   22063044.0724  115942103.055 7  90344510.29545
      1877.441        1462.943
  22235872.320    22235872.0494   22235874.3294  116850297.783 7  91052212.16244
      1294.126        1008.413
  20711362.995    20711362.3374   20711364.3074  108838989.188 8  84809595.57347
       704.951         549.311
  25062054.152    25062052.7934   25062055.5294  131701981.619 5 102624946.28141
      2638.311        2055.842
  21502485.109    21502484.6384   21502484.9494  112996347.770 8  88049110.90845
     -1435.446       -1118.530
  23394587.537    23394587.1284   23394590.5394  122939407.345 6  95796966.68643
       964.305         751.413
  23809910.263    23809910.1094   23809913.5234  125121945.178 6  97497646.77443
      2639.243        2056.551
  22506647.480    22506647.4334   22506649.8534  118273265.151 7  92160984.68245
     -2659.127       -2072.044
  22785231.284    22785231.5904   22785232.7404  119737233.107 7  93301737.85645
     -3674.919       -2863.577
 08  4 19  1 52  0.0000000  0 10G 3G 6G13G16G21G23G24G25G29G31
  24826840.750    24826840.9974   24826843.9334  130465930.200 5 101661785.18141
      3574.831        2785.598
  22052364.385    22052364.0024   22052367.1804  115885995.462 7  90300790.10845
      1863.024        1451.703
  22228540.183    22228539.9374   22228542.2734  116811766.116 7  91022187.46944
      1274.630         993.212
  20707386.955    20707386.3864   20707388.3954  108818095.377 8  84793314.66447
       687.955         536.066
  25047008.186    25047006.6014   25047010.1944  131622916.399 5 102563336.99341
      2632.822        2051.588
  21510741.426    21510740.8284   21510740.9544  113039734.078 8  88082918.41446
     -1456.965       -1135.300
  23389133.400    23389132.6714   23389136.6754  122910746.765 6  95774633.67343
       946.404         737.455
  23794863.177    23794863.1974   23794866.5504  125042873.589 6  97436032.57743
      2632.203        2051.059
  22521873.647    22521873.7304   22521876.0624  118353278.551 7  92223332.77845
     -2675.086       -2084.484
  22806237.256    22806237.0674   22806238.8204  119847618.796 7  93387752.52345
     -3684.101       -2870.726
 08  4 19  1 52 30.0000000  0 10G 3G 6G13G16G21G23G24G25G29G31
  24806437.954    24806438.8094   24806442.8064  130358718.311 5 101578243.50541
      3572.631        2783.884
  22041770.510    22041769.8614   22041772.8864  115830322.592 7  90257408.73545
      1848.453        1440.352
  22221319.230    22221319.1144   22221321.2504  116773820.773 7  90992619.68444
      1255.003         977.921
  20703508.328    20703507.5424   20703509.6074  108797712.398 8  84777431.87147
       670.881         522.765
  25031994.862    25031994.8264   25031996.7124  131544021.785 5 102501860.69141
      2626.858        2046.883
  21519120.460    21519119.9964   21519120.2234  113083766.789 8  88117229.60846
     -1478.549       -1152.115
  23383782.851    23383782.2624   23383786.0274  122882626.151 6  95752721.45143
       928.324         723.358
  23779857.681    23779857.4294   23779859.7284  124964017.512 6  97374586.27943
      2624.870        2045.361
  22537191.259    22537190.9084   22537193.1034  118433771.007 7  92286054.20545
     -2691.073       -2096.942
  22827295.420    22827295.4454   22827297.0414  119958281.271 7  93473982.96745
     -3693.438       -2878.003
 08  4 19  1 53  0.0000000  0 10G 3G 6G13G16G21G23G24G25G29G31
  24786046.174    24786045.9884   24786052.9584  130251571.185 4 101494752.31941
      3570.319        2782.059
  22031259.187    22031258.8604   22031261.8624  115775087.293 7  90214368.27645
      1833.866        1428.990
  22214210.087    22214210.2964   22214212.5204  116736464.747 7  90963511.09644
      1235.336         962.592
  20699726.901    20699726.3094   20699728.2604  108777841.661 8  84761948.17947
       653.796         509.448
  25017014.581    25017013.9664   25017016.5194  131465300.934 5 102440519.84841
      2621.045        2042.374
  21527622.526    21527622.2444   21527622.5494  113128445.850 8  88152044.40546
     -1500.078       -1168.892
  23378535.053    23378534.2854   23378538.9754  122855048.414 6  95731232.24943
       910.209         709.248
  23764893.211    23764892.4914   23764895.6884  124885379.692 6  97313310.03443
      2617.506        2039.634
  22552598.800    22552598.8204   22552601.2344  118514740.916 7  92349147.67445
     -2706.902       -2109.269
  22848405.891    22848405.9164   22848407.8544  120069219.668 6  93560428.47145
     -3702.521       -2885.083
 08  4 19  1 53 30.0000000  0 10G 3G 6G13G16G21G23G24G25G29G31
  24765672.437    24765672.6634   24765676.1754  130144491.498 5 101411313.63741
      3568.314        2780.502
  22020832.192    22020831.6744   22020834.5594  115720291.437 7  90171670.21145
      1819.246        1417.597
  22207214.173    22207214.0854   22207216.6404  116699700.021 7  90934863.23444
      1215.681         947.285
  20696043.132    20696042.6384   20696044.6944  108758484.121 8  84746864.35047
       636.789         496.202
  25002067.597    25002067.7904   25002070.8514  131386756.490 5 102379316.40341
      2615.190        2037.753
  21536247.534    21536247.2034   21536247.4204  113173770.242 8  88187362.18346
     -1521.470       -1185.555
  23373390.933    23373390.4864   23373394.4164  122828015.132 6  95710167.30243
       892.084         695.138
  23749970.989    23749970.6284   23749973.7284  124806962.135 6  97252205.48743
      2610.323        2034.022
  22568097.432    22568097.4124   22568099.6894  118596185.768 7  92412611.16345
     -2722.662       -2121.546
  22869569.147    22869569.0194   22869571.1204  120180432.167 7  93647087.57045
     -3711.559       -2892.122
 08  4 19  1 54  0.0000000  0 10G 3G 6G13G16G21G23G24G25G29G31
  24745310.240    24745309.1374   24745313.0374  130037478.745 5 101327927.06341
      3565.885        2778.609
  22010487.976    22010487.6224   22010490.7124  115665933.656 7  90129313.50945
      1804.521        1406.123
  22200331.067    22200330.7174   22200332.6414  116663525.569 7  90906675.35644
      1195.893         931.877
  20692456.898    20692456.2414   20692458.3824  108739636.819 8  84732177.99147
       619.651         482.855
  24987153.642    24987152.4894   24987157.4014  131308388.438 4 102318250.45741
      2609.145        2033.103
  21544994.534    21544994.1494   21544994.3474  113219735.600 8  88223179.37246
     -1542.925       -1202.275
  23368349.806    23368348.7204   23368353.3414  122801524.654 6  95689525.29243
       873.859         680.927
  23735090.850    23735089.8594   23735093.1974  124728763.544 6  97191271.56543
      2602.900        2028.224
  22583685.535    22583685.4654   22583687.5834  118678100.898 7  92476441.12945
     -2738.405       -2133.821
  22890783.625    22890783.7854   22890785.0994  120291913.417 7  93733956.04645
     -3720.580       -2899.147
 08  4 19  1 54 30.0000000  0 10G 3G 6G13G16G21G23G24G25G29G31
  24724959.842    24724960.0464   24724961.7704  129930539.469 5 101244597.82541
      3563.371        2776.662
  22000228.768    22000228.4644   22000231.2894  115612020.484 7  90087303.30245
      1789.705        1394.575
  22193560.419    22193560.2964   22193562.4654  116627947.509 7  90878952.18744
      1175.976         916.353
  20688968.483    20688967.8484   20688970.0154  108721305.612 8  84717893.95547
       602.419         469.421
  24972277.773    24972276.9224   24972278.6624  131230203.293 5 102257327.07141
      2602.958        2028.272
  21553863.950    21553863.6214   21553863.9724  113266345.608 8  88259498.84046
     -1564.410       -1219.022
  23363413.781    23363412.8954   23363417.2314  122775583.253 6  95669311.15943
       855.498         666.631
  23720252.525    23720251.8334   23720254.7694  124650790.213 6  97130513.13743
      2595.361        2022.359
  22599363.190    22599362.9774   22599365.2794  118760488.430 7  92540639.19445
     -2754.109       -2146.055
  22912049.621    22912049.4814   22912051.1334  120403666.121 7  93821036.04045
     -3729.595       -2906.174
 08  4 19  1 55  0.0000000  0 10G 3G 6G13G16G21G23G24G25G29G31
  24704623.640    24704623.0544   24704627.5644  129823675.123 5 101161327.03041
      3560.971        2774.756
  21990054.101    21990053.6094   21990056.5084  115558552.445 7  90045639.93845
      1774.955        1383.080
  22186903.228    22186903.3124   22186905.9964  116592966.707 7  90851694.38144
      1156.146         900.896
  20685578.170    20685577.5344   20685579.7954  108703489.674 8  84704011.43547
       585.379         456.141
  24957433.884    24957434.7084   24957435.8954  131152202.892 5 102196547.54841
      2596.988        2023.635
  21562855.973    21562855.3184   21562855.7764  113313598.020 8  88296318.94045
     -1585.659       -1235.578
  23358580.985    23358580.7974   23358584.6124  122750191.255 6  95649525.17843
       837.328         652.467
  23705457.719    23705457.2384   23705460.1894  124573043.029 6  97069930.94143
      2587.834        2016.486
  22615130.045    22615130.0284   22615132.4844  118843344.780 7  92605202.60245
     -2769.560       -2158.101
  22933366.534    22933366.4084   22933367.8194  120515687.727 7  93908325.66045
     -3738.425       -2913.058
 08  4 19  1 55 30.0000000  0 10G 3G 6G13G16G21G23G24G25G29G31
  24684301.897    24684299.7154   24684304.6254  129716885.258 5 101078114.19941
      3558.370        2772.745
  21979963.678    21979963.1474   21979966.4364  115505528.681 7  90004322.77045
      1759.984        1371.413
  22180360.661    22180360.6814   22180362.5454  116558582.519 7  90824901.54944
      1136.135         885.301
  20682285.658    20682284.9694   20682287.1194  108686186.803 8  84690528.67147
       568.162         442.724
  24942625.967    24942623.6564   24942628.2614  131074386.730 5 102135911.68941
      2590.711        2018.722
  21571969.463    21571968.8844   21571969.0904  113361488.666 8  88333636.30546
     -1607.021       -1252.223
  23353853.896    23353853.4724   23353857.4024  122725347.754 6  95630166.62743
       818.895         638.098
  23690705.403    23690705.0914   23690708.6404  124495521.077 6  97009524.29343
      2580.274        2010.599
  22630985.501    22630985.3834   22630987.8664  118926665.247 7  92670127.68545
     -2785.103       -2170.210
  22954733.861    22954733.3944   22954735.2814  120627973.265 7  93995820.90545
     -3747.254       -2919.938
 08  4 19  1 56  0.0000000  0 10G 3G 6G13G16G21G23G24G25G29G31
  24663993.979    24663994.2264   24663998.0274  129610176.845 5 100994964.92941
      3555.414        2770.443
  21969959.569    21969959.1174   21969962.1204  115452955.913 7  89963357.02345
      1744.903        1359.664
  22173932.131    22173932.3874   22173934.4724  116524801.520 7  90798578.67144
      1115.952         869.572
  20679091.805    20679091.0034   20679093.1924  108669402.480 8  84677449.96547
       550.818         429.217
  24927855.439    24927855.0374   24927856.8414  130996763.122 5 102075425.86341
      2584.182        2013.654
  21581205.008    21581204.3844   21581204.7224  113410021.225 8  88371453.72246
     -1628.439       -1268.905
  23349231.823    23349231.0844   23349234.8684  122701059.041 6  95611240.39143
       800.340         623.644
  23675997.898    23675997.5934   23676000.6724  124418231.270 6  96949298.50543
      2572.447        2004.506
  22646929.669    22646929.3754   22646931.8684  119010452.512 7  92735416.47545
     -2800.675       -2182.349
  22976151.376    22976151.7884   22976153.0284  120740525.962 7  94083524.30144
     -3756.198       -2926.902
 08  4 19  1 56 30.0000000  0 10G 3G 6G13G16G21G23G24G25G29G31
  24643706.260    24643706.0984   24643708.3754  129503550.539 5 100911879.60041
      3552.836        2768.462
  21960040.920    21960040.5854   21960043.4134  115400834.197 7  89922742.74945
      1729.864        1347.941
  22167618.087    22167618.4424   22167621.0754  116491623.975 7  90772726.03444
      1095.858         853.914
  20675996.288    20675995.6304   20675997.8094  108653135.806 8  84664774.60647
       533.613         415.805
  24913121.446    24913120.9664   24913120.3754  130919332.618 5 102015090.43641
      2577.788        2008.669
  21590562.216    21590561.6564   21590561.9134  113459193.700 8  88409769.93746
     -1649.705       -1285.487
  23344715.186    23344714.8794   23344719.1714  122677324.822 6  95592746.21843
       781.890         609.263
  23661333.977    23661333.6284   23661336.9894  124341173.697 6  96889253.69343
      2564.706        1998.464
  22662961.567    22662961.4124   22662964.4364  119094702.614 7  92801065.98845
     -2815.992       -2194.279
  22997619.653    22997619.6484   22997621.6694  120853342.120 7  94171432.94045
     -3764.843       -2933.642
 08  4 19  1 57  0.0000000  0 10G 3G 6G13G16G21G23G24G25G29G31
  24623431.524    24623430.5584   24623433.8404  129397010.856 5 100828861.77741
      3549.791        2766.118
  21950208.989    21950208.5634   21950211.5694  115349166.992 7  89882482.64445
      1714.583        1336.037
  22161420.233    22161420.0644   22161423.1504  116459053.270 7  90747346.29744
      1075.481         838.031
  20672999.688    20672999.0324   20673001.3054  108637389.161 8  84652504.56347
       516.141         402.177
  24898420.107    24898421.0434   24898424.4304  130842098.933 4 101954908.42341
      2571.130        2003.478
  21600040.940    21600040.5044   21600040.6544  113509006.089 8  88448584.88146
     -1671.091       -1302.149
  23340305.066    23340304.3284   23340308.3594  122654148.404 6  95574686.67843
       763.160         594.669
  23646715.079    23646714.6644   23646718.4864  124264352.068 6  96829392.70443
      2556.686        1992.222
  22679082.209    22679082.1034   22679084.1564  119179414.679 7  92867075.44045
     -2831.457       -2206.332
  23019138.156    23019138.1694   23019140.1914  120966421.673 7  94259546.85544
     -3773.752       -2940.585
 08  4 19  1 57 30.0000000  0 10G 3G 6G13G16G21G23G24G25G29G31
  24603174.789    24603173.4294   24603176.9884  129290555.908 6 100745909.95341
      3547.081        2763.949
  21940463.215    21940462.8394   21940465.8404  115297952.061 7  89842574.90445
      1699.632        1324.392
  22155338.135    22155337.8774   22155340.2644  116427087.584 7  90722437.99844
      1055.427         822.408
  20670101.452    20670100.8664   20670103.1614  108622159.142 8  84640637.03547
       499.028         388.856
  24883764.120    24883763.0494   24883765.6284  130765061.096 5 101894879.07641
      2564.753        1998.487
  21609640.661    21609640.2084   21609640.5974  113559453.048 8  88487894.22646
     -1692.126       -1318.540
  23335999.720    23335999.6944   23336004.4784  122631527.499 6  95557060.06643
       744.781         580.354
  23632141.337    23632140.7934   23632144.5244  124187764.403 6  96769714.06043
      2548.996        1986.226
  22695288.562    22695288.8204   22695291.6014  119264583.103 7  92933440.47445
     -2846.554       -2218.092
  23040705.876    23040705.5964   23040707.5014  121079759.641 7  94347862.15544
     -3782.211       -2947.180
 08  4 19  1 58  0.0000000  0 10G 3G 6G13G16G21G23G24G25G29G31
  24582931.918    24582933.1514   24582937.6124  129184191.449 5 100663028.66142
      3543.976        2761.556
  21930804.543    21930803.9364   21930806.8964  115247194.561 7  89803023.55845
      1684.254        1312.409
  22149371.316    22149371.1154   22149373.1944  116395731.997 7  90698005.08544
      1034.989         806.490
  20667302.360    20667301.7114   20667303.9364  108607449.553 8  84629175.02847
       481.651         375.313
  24869142.123    24869141.9834   24869142.8014  130688225.300 5 101835007.05342
      2557.782        1993.073
  21619361.568    21619361.0174   21619361.3954  113610536.578 8  88527699.60745
     -1713.372       -1335.097
  23331802.515    23331801.5044   23331805.7954  122609466.891 6  95539870.05743
       725.985         565.704
  23617612.678    23617612.3094   23617615.6864  124111415.833 6  96710221.68943
      2541.034        1980.024
  22711583.357    22711582.9184   22711585.3334  119350208.653 7  93000161.75145
     -2861.778       -2229.958
  23062322.041    23062322.0384   23062323.8484  121193356.306 6  94436379.03544
     -3790.880       -2953.940
 08  4 19  1 58 30.0000000  0 10G 3G 6G13G16G21G23G24G25G29G31
  24562709.818    24562709.4004   24562713.8294  129077918.493 5 100580218.77241
      3540.833        2759.100
  21921232.619    21921232.3574   21921235.0864  115196895.098 7  89763829.19345
      1668.906        1300.447
  22143520.081    22143519.8624   22143522.3514  116364986.562 7  90674047.60944
      1014.616         790.605
  20664602.026    20664601.5024   20664603.6424  108593259.419 8  84618117.78947
       464.275         361.773
  24854558.998    24854558.0324   24854560.2664  130611592.475 5 101775293.21141
      2550.978        1987.767
  21629203.522    21629202.7874   21629202.7474  113662253.957 8  88567998.82946
     -1734.516       -1351.567
  23327710.513    23327709.7824   23327714.7084  122587966.576 6  95523116.61643
       707.260         551.118
  23603129.262    23603129.2514   23603132.8044  124035306.853 6  96650916.02443
      2532.841        1973.643
  22727963.254    22727963.3864   22727965.3424  119436287.490 7  93067236.17945
     -2876.894       -2241.735
  23083987.693    23083987.9094   23083989.5004  121307208.691 7  94525095.18044
     -3799.405       -2960.581
 08  4 19  1 59  0.0000000  0 10G 3G 6G13G16G21G23G24G25G29G31
  24542504.974    24542505.2894   24542507.0574  128971738.275 5 100497480.88641
      3537.743        2756.687
  21911748.327    21911747.6804   21911750.8434  115147053.880 8  89724991.85945
      1653.667        1288.569
  22137786.215    22137785.9714   22137788.2144  116334851.905 7  90650566.09344
       994.262         774.739
  20662000.682    20661999.9774   20662002.1654  108579588.229 8  84607464.90947
       447.013         348.318
  24840015.667    24840015.7394   24840017.1814  130535164.198 5 101715738.73742
      2544.134        1982.435
  21639165.166    21639164.5824   21639164.2964  113714603.110 8  88608790.33846
     -1755.513       -1367.932
  23323725.253    23323724.7724   23323729.7014  122567027.070 6  95506800.21343
       688.624         536.578
  23588692.569    23588692.5634   23588694.1834  123959438.217 6  96591797.62443
      2524.905        1967.452
  22744429.364    22744428.9734   22744431.2994  119522816.232 7  93134661.16945
     -2891.781       -2253.333
  23105701.667    23105701.2634   23105703.2424  121421313.622 7  94614008.11145
     -3807.704       -2967.044
 08  4 19  1 59 30.0000000  0 11G 3G 6G 7G13G16G21G23G24G25G29G31
  24522316.793    24522316.5584   24522320.4344  128865655.379 5 100414819.05941
      3534.435        2754.092
  21902351.923    21902351.4204   21902354.6244  115097675.325 7  89686515.08046
      1638.196        1276.516
  25224016.255                                   132553089.597 5
      3260.890
  22132168.613    22132168.5414   22132170.7674  116305332.285 7  90627563.80344
       973.729         758.741
  20659498.515    20659497.8364   20659499.9804  108566438.971 8  84597218.66847
       429.600         334.752
  24825511.568    24825510.7934   24825513.6744  130458945.683 5 101656347.80542
      2537.048        1976.908
  21649247.072    21649246.5184   21649246.4284  113767585.101 8  88650075.01445
     -1776.586       -1384.354
  23319848.370    23319847.7294   23319852.2024  122546651.609 6  95490923.24143
       669.805         521.923
  23574301.311    23574300.9104   23574304.2154  123883814.346 6  96532869.94843
      2516.736        1961.096
  22760980.682    22760980.2764   22760982.8864  119609795.303 7  93202437.03745
     -2906.753       -2265.004
  23127462.804    23127462.8814   23127464.5494  121535672.205 7  94703118.69944
     -3816.154       -2973.634
 08  4 19  2  0  0.0000000  0 11G 3G 6G 7G13G16G21G23G24G25G29G31
  24502150.116    24502149.8434   24502150.4084  128759670.121 5 100332233.15641
      3531.227        2751.641
  21893043.452    21893042.8484   21893045.9074  115048758.674 7  89648398.26945
      1622.859        1264.562
  25205408.421                                   132455301.695 5
      3258.372
  22126667.835    22126667.8364   22126669.8814  116276427.086 7  90605040.26544
       953.265         742.806
  20657095.106    20657094.6104   20657096.6664  108553809.884 8  84587377.81947
       412.308         321.280
  24811047.086    24811046.7894   24811049.6544  130382936.817 5 101597120.23141
      2530.128        1971.508
  21659448.616    21659448.1714   21659448.3924  113821195.955 8  88691849.72945
     -1797.470       -1400.630
  23316077.891    23316077.5214   23316082.0654  122526839.574 6  95475485.29943
       650.994         507.262
  23559957.291    23559957.0134   23559960.2684  123808434.778 6  96474132.68243
      2508.620        1954.765
  22777616.765    22777616.7784   22777619.6744  119697219.578 7  93270559.80145
     -2921.531       -2276.521
  23149271.739    23149272.2514   23149273.7334  121650279.864 7  94792423.38244
     -3824.376       -2980.037
 08  4 19  2  0 30.0000000  0 11G 3G 6G 7G13G16G21G23G24G25G29G31
  24481998.798    24481998.3614   24482003.3614  128653782.943 5 100249723.72441
      3527.941        2749.043
  21883822.835    21883822.3384   21883825.2124  115000303.869 7  89610641.26846
      1607.470        1252.573
  25186815.086                                   132357592.081 5
      3255.599
  22121284.245    22121284.1204   22121286.5684  116248136.380 7  90582995.56444
       932.747         726.808
  20654790.846    20654790.1664   20654792.1824  108541699.764 8  84577941.35947
       395.008         307.799
  24796623.644    24796622.2414   24796624.3544  130307138.618 5 101538056.71241
      2522.981        1965.964
  21669769.563    21669769.2524   21669769.5304  113875432.776 8  88734112.19145
     -1818.315       -1416.865
  23312415.614    23312414.9074   23312418.3664  122507590.684 6  95460486.19243
       632.183         492.596
  23545659.618    23545659.3984   23545661.9564  123733299.768 6  96415585.95043
      2500.407        1948.368
  22794337.194    22794337.1614   22794339.5464  119785085.509 7  93339026.71045
     -2936.201       -2287.949
  23171128.170    23171128.2214   23171129.3144  121765133.243 7  94881919.52244
     -3832.563       -2986.422
 08  4 19  2  1  0.0000000  0 11G 3G 6G 7G13G16G21G23G24G25G29G31
  24461868.852    24461868.3644   24461872.1624  128547996.303 5 100167292.70642
      3524.556        2746.377
  21874690.692    21874690.0444   21874692.7574  114952312.926 8  89573245.72845
      1591.966        1240.490
  25168235.703    25168236.5914   25168238.5344  132259962.901 5 103059740.93741
      3253.030        2534.805
  22116018.716    22116018.6224   22116020.3734  116220462.218 7  90561431.33045
       912.185         710.790
  20652585.345    20652584.6054   20652586.6154  108530109.413 8  84568909.91847
       377.687         294.299
  24782239.304    24782238.2684   24782242.9074  130231553.883 5 101479159.54841
      2515.835        1960.392
  21680209.911    21680209.2054   21680209.2914  113930294.301 8  88776861.40345
     -1839.132       -1433.092
  23308861.265    23308860.3664   23308863.1834  122488906.664 6  95445927.22043
       613.393         477.959
  23531408.761    23531408.0934   23531411.6684  123658411.327 6  96357231.33243
      2492.118        1941.906
  22811141.000    22811141.2594   22811143.7984  119873390.911 6  93407836.05645
     -2950.771       -2299.303
  23193030.113    23193030.1684   23193031.9724  121880230.758 7  94971605.90144
     -3840.598       -2992.670
 08  4 19  2  1 30.0000000  0 11G 3G 6G 7G13G16G21G23G24G25G29G31
  24441759.137    24441757.1194   24441759.9944  128442313.767 5 100084942.70342
      3520.907        2743.541
  21865646.768    21865646.3344   21865649.0964  114904788.313 8  89536213.52346
      1576.317        1228.300
  25149673.204    25149673.3464   25149674.0874  132162416.876 5 102983731.08641
      3250.028        2532.473
  22110870.099    22110870.1364   22110872.3344  116193407.148 7  90540349.46245
       891.451         694.640
  20650478.771    20650478.2044   20650480.1274  108519040.056 8  84560284.45947
       360.251         280.713
  24767898.289    24767897.5904   24767900.2144  130156186.448 5 101420431.71241
      2508.719        1954.832
  21690768.282    21690767.6714   21690767.9284  113985780.346 8  88820097.30345
     -1859.961       -1449.324
  23305413.472    23305413.2034   23305415.2574  122470789.593 6  95431809.98043
       594.377         463.155
  23517205.566    23517205.1804   23517207.9474  123583772.671 6  96299071.31643
      2483.736        1935.376
  22828029.052    22828028.4174   22828030.7754  119962134.430 7  93476986.85945
     -2965.423       -2310.729
  23214978.434    23214978.5594   23214980.4994  121995571.213 6  95061481.55744
     -3848.762       -2999.039
 08  4 19  2  2  0.0000000  0 11G 3G 6G 7G13G16G21G23G24G25G29G31
  24421667.318    24421667.2504   24421670.5894  128336736.960 5 100002675.06141
      3517.393        2740.805
  21856691.874    21856691.4514   21856694.2804  114857730.960 7  89499545.47246
      1560.728        1216.153
  25131126.682    25131126.4244   25131129.5164  132064954.942 5 102907786.78641
      3247.273        2530.337
  22105839.755    22105839.2094   22105841.3234  116166971.739 7  90519750.49045
       870.758         678.505
  20648471.337    20648470.8104   20648472.8514  108508491.462 8  84552064.77947
       342.877         267.172
  24753598.168    24753598.3674   24753598.7034  130081037.923 5 101361874.41341
      2501.230        1948.995
  21701445.344    21701444.6604   21701444.8564  114041888.637 8  88863818.14945
     -1880.677       -1465.466
  23302073.701    23302072.9584   23302075.4874  122453239.606 6  95418134.55743
       575.480         448.442
  23503048.864    23503049.1064   23503052.2934  123509384.478 6  96241106.46543
      2475.307        1928.815
  22844999.238    22844998.7534   22845001.0534  120051312.751 6  93546476.45544
     -2979.876       -2321.985
  23236973.370    23236973.1134   23236974.5664  122111152.197 7  95151544.67244
     -3856.712       -3005.236
